[[{"header":{"parameterUnit":"m.s-1","parameterCategory":1,"la1":30.6,"la2":28.766,"lo1":-90.7593,"lo2":-88.6598,"dx":0.0162,"dy":0.0183,"nx":116,"ny":114,"refTime":"2022-12-18T06:00:00:Z","depth":0,"parameterNumber":2,"parameterNumberName":"U-component_of_WINDS"},"data":[0.0,0.0,0.0,0.0,0.0,0.0,0.0,0.0,0.0,0.0,0.0,0.0,0.0,0.0,0.0,0.0,0.0,0.0,0.0,0.0,0.0,0.0,0.0,0.0,0.0,0.0,0.0,0.0,0.0,0.0,0.0,0.0,0.0,0.0,0.0,0.0,0.0,0.0,0.0,0.0,0.0,0.0,0.0,0.0,0.0,0.0,0.0,0.0,0.0,0.0,0.0,0.0,0.0,0.0,0.0,0.0,0.0,0.0,0.0,0.0,0.0,0.0,0.0,0.0,0.0,0.0,0.0,0.0,0.0,0.0,0.0,0.0,0.0,0.0,0.0,0.0,0.0,0.0,0.0,0.0,0.0,0.0,0.0,0.0,0.0,0.0,0.0,0.0,0.0,0.0,0.0,0.0,0.0,0.0,0.0,0.0,0.0,0.0,0.0,0.0,0.0,0.0,0.0,0.0,0.0,0.0,0.0,0.0,0.0,0.0,0.0,0.0,0.0,0.0,0.0,0.0,0.0,0.0,0.0,0.0,0.0,0.0,0.0,0.0,0.0,0.0,0.0,0.0,0.0,0.0,0.0,0.0,0.0,0.0,0.0,0.0,0.0,0.0,0.0,0.0,0.0,0.0,0.0,0.0,0.0,0.0,0.0,0.0,0.0,0.0,0.0,0.0,0.0,0.0,0.0,0.0,0.0,0.0,0.0,0.0,0.0,0.0,0.0,0.0,0.0,0.0,0.0,0.0,0.0,0.0,0.0,0.0,0.0,0.0,0.0,0.0,0.0,0.0,0.0,0.0,0.0,0.0,0.0,0.0,0.0,0.0,0.0,0.0,0.0,0.0,0.0,0.0,0.0,0.0,0.0,0.0,0.0,0.0,0.0,0.0,0.0,0.0,0.0,0.0,0.0,0.0,0.0,0.0,0.0,0.0,0.0,0.0,0.0,0.0,0.0,0.0,0.0,0.0,0.0,0.0,0.0,0.0,0.0,0.0,0.0,0.0,0.0,0.0,0.0,0.0,0.0,0.0,0.0,0.0,0.0,0.0,0.0,0.0,0.0,0.0,0.0,0.0,0.0,0.0,0.0,0.0,0.0,0.0,0.0,0.0,0.0,0.0,0.0,0.0,0.0,0.0,0.0,0.0,0.0,0.0,0.0,0.0,0.0,0.0,0.0,0.0,0.0,0.0,0.0,0.0,0.0,0.0,0.0,0.0,0.0,0.0,0.0,0.0,0.0,0.0,0.0,0.0,0.0,0.0,0.0,0.0,0.0,0.0,0.0,0.0,0.0,0.0,0.0,0.0,0.0,0.0,0.0,0.0,0.0,0.0,0.0,0.0,0.0,0.0,0.0,0.0,0.0,0.0,0.0,0.0,0.0,0.0,0.0,0.0,0.0,0.0,0.0,0.0,0.0,0.0,0.0,0.0,0.0,0.0,0.0,0.0,0.0,0.0,0.0,0.0,0.0,0.0,0.0,0.0,0.0,0.0,0.0,0.0,0.0,0.0,0.0,0.0,0.0,0.0,0.0,0.0,0.0,0.0,0.0,0.0,0.0,0.0,0.0,0.0,0.0,0.0,0.0,0.0,0.0,0.0,0.0,0.0,0.0,0.0,0.0,0.0,0.0,0.0,0.0,0.0,0.0,0.0,0.0,0.0,0.0,0.0,0.0,0.0,0.0,0.0,0.0,0.0,0.0,0.0,0.0,0.0,0.0,0.0,0.0,0.0,0.0,0.0,0.0,0.0,0.0,0.0,0.0,0.0,0.0,0.0,0.0,0.0,0.0,0.0,0.0,0.0,0.0,0.0,0.0,0.0,0.0,0.0,0.0,0.0,0.0,0.0,0.0,0.0,0.0,0.0,0.0,0.0,0.0,0.0,0.0,0.0,0.0,0.0,0.0,0.0,0.0,0.0,0.0,0.0,0.0,0.0,0.0,0.0,0.0,0.0,0.0,0.0,0.0,0.0,0.0,0.0,0.0,0.0,0.0,0.0,0.0,0.0,0.0,0.0,0.0,0.0,0.0,0.0,0.0,0.0,0.0,0.0,0.0,0.0,0.0,0.0,0.0,0.0,0.0,0.0,0.0,0.0,0.0,0.0,0.0,0.0,0.0,0.0,0.0,0.0,0.0,0.0,0.0,0.0,0.0,0.0,0.0,0.0,0.0,0.0,0.0,0.0,0.0,0.0,0.0,0.0,0.0,0.0,0.0,0.0,0.0,0.0,0.0,0.0,0.0,0.0,0.0,0.0,0.0,0.0,0.0,0.0,0.0,0.0,0.0,0.0,0.0,0.0,0.0,0.0,0.0,0.0,0.0,0.0,0.0,0.0,0.0,0.0,0.0,0.0,0.0,0.0,0.0,0.0,0.0,0.0,0.0,0.0,0.0,0.0,0.0,0.0,0.0,0.0,0.0,0.0,0.0,0.0,0.0,0.0,0.0,0.0,0.0,0.0,0.0,0.0,0.0,0.0,0.0,0.0,0.0,0.0,0.0,0.0,0.0,0.0,0.0,0.0,0.0,0.0,0.0,0.0,0.0,0.0,0.0,0.0,0.0,0.0,0.0,0.0,0.0,0.0,0.0,0.0,0.0,0.0,0.0,0.0,0.0,0.0,0.0,0.0,0.0,0.0,0.0,0.0,0.0,0.0,0.0,0.0,0.0,0.0,0.0,0.0,0.0,0.0,0.0,0.0,0.0,0.0,0.0,0.0,0.0,0.0,0.0,0.0,0.0,0.0,0.0,0.0,0.0,0.0,0.0,0.0,0.0,0.0,0.0,0.0,0.0,0.0,0.0,0.0,0.0,0.0,0.0,0.0,0.0,0.0,0.0,0.0,0.0,0.0,0.0,0.0,0.0,0.0,0.0,0.0,0.0,0.0,0.0,0.0,0.0,0.0,0.0,0.0,0.0,0.0,0.0,0.0,0.0,0.0,0.0,0.0,0.0,0.0,0.0,0.0,0.0,0.0,0.0,0.0,0.0,0.0,0.0,0.0,0.0,0.0,0.0,0.0,0.0,0.0,0.0,0.0,0.0,0.0,0.0,0.0,0.0,0.0,0.0,0.0,0.0,0.0,0.0,0.0,0.0,0.0,0.0,0.0,0.0,0.0,0.0,0.0,0.0,0.0,0.0,0.0,0.0,0.0,0.0,0.0,0.0,0.0,0.0,0.0,0.0,0.0,0.0,0.0,0.0,0.0,0.0,0.0,0.0,0.0,0.0,0.0,0.0,0.0,0.0,0.0,0.0,0.0,0.0,0.0,0.0,0.0,0.0,0.0,0.0,0.0,0.0,0.0,0.0,0.0,0.0,0.0,0.0,0.0,0.0,0.0,0.0,0.0,0.0,0.0,0.0,0.0,0.0,0.0,0.0,0.0,0.0,0.0,0.0,0.0,0.0,0.0,0.0,0.0,0.0,0.0,0.0,0.0,0.0,0.0,0.0,0.0,0.0,0.0,0.0,0.0,0.0,0.0,0.0,0.0,0.0,0.0,0.0,0.0,0.0,0.0,0.0,0.0,0.0,0.0,0.0,0.0,0.0,0.0,0.0,0.0,0.0,0.0,0.0,0.0,0.0,0.0,0.0,0.0,0.0,0.0,0.0,0.0,0.0,0.0,0.0,0.0,0.0,0.0,0.0,0.0,0.0,0.0,0.0,0.0,0.0,0.0,0.0,0.0,0.0,0.0,0.0,0.0,0.0,0.0,0.0,0.0,0.0,0.0,0.0,0.0,0.0,0.0,0.0,0.0,0.0,0.0,0.0,0.0,0.0,0.0,0.0,0.0,0.0,0.0,0.0,0.0,0.0,0.0,0.0,0.0,0.0,0.0,0.0,0.0,0.0,0.0,0.0,0.0,0.0,0.0,0.0,0.0,0.0,0.0,0.0,0.0,0.0,0.0,0.0,0.0,0.0,0.0,0.0,0.0,0.0,0.0,0.0,0.0,0.0,0.0,0.0,0.0,0.0,0.0,0.0,0.0,0.0,0.0,0.0,0.0,0.0,0.0,0.0,0.0,0.0,0.0,0.0,0.0,0.0,0.0,0.0,0.0,0.0,0.0,0.0,0.0,0.0,0.0,0.0,0.0,0.0,0.0,0.0,0.0,0.0,0.0,0.0,0.0,0.0,0.0,0.0,0.0,0.0,0.0,0.0,0.0,0.0,0.0,0.0,0.0,0.0,0.0,0.0,0.0,0.0,0.0,0.0,0.0,0.0,0.0,0.0,0.0,0.0,0.0,0.0,0.0,0.0,0.0,0.0,0.0,0.0,0.0,0.0,0.0,0.0,0.0,0.0,0.0,0.0,0.0,0.0,0.0,0.0,0.0,0.0,0.0,0.0,0.0,0.0,0.0,0.0,0.0,0.0,0.0,0.0,0.0,0.0,0.0,0.0,0.0,0.0,0.0,0.0,0.0,0.0,0.0,0.0,0.0,0.0,0.0,0.0,0.0,0.0,0.0,0.0,0.0,0.0,0.0,0.0,0.0,0.0,0.0,0.0,0.0,0.0,0.0,0.0,0.0,0.0,0.0,0.0,0.0,0.0,0.0,0.0,0.0,0.0,0.0,0.0,0.0,0.0,0.0,0.0,0.0,0.0,0.0,0.0,0.0,0.0,0.0,0.0,0.0,0.0,0.0,0.0,0.0,0.0,0.0,0.0,0.0,0.0,0.0,0.0,0.0,0.0,0.0,0.0,0.0,0.0,0.0,0.0,0.0,0.0,0.0,0.0,0.0,0.0,0.0,0.0,0.0,0.0,0.0,0.0,0.0,0.0,0.0,0.0,0.0,0.0,0.0,0.0,0.0,0.0,0.0,0.0,0.0,0.0,0.0,0.0,0.0,0.0,0.0,0.0,0.0,0.0,0.0,0.0,0.0,0.0,0.0,0.0,0.0,0.0,0.0,0.0,0.0,0.0,0.0,0.0,0.0,0.0,0.0,0.0,0.0,0.0,0.0,0.0,0.0,0.0,0.0,0.0,0.0,0.0,0.0,0.0,0.0,0.0,0.0,0.0,0.0,0.0,0.0,0.0,0.0,0.0,0.0,0.0,0.0,0.0,0.0,0.0,0.0,0.0,0.0,0.0,0.0,0.0,0.0,0.0,0.0,0.0,0.0,0.0,0.0,0.0,0.0,0.0,0.0,0.0,0.0,0.0,0.0,0.0,0.0,0.0,0.0,0.0,0.0,0.0,0.0,0.0,0.0,0.0,0.0,0.0,0.0,0.0,0.0,0.0,0.0,0.0,0.0,0.0,0.0,0.0,0.0,0.0,0.0,0.0,0.0,0.0,0.0,0.0,0.0,0.0,0.0,0.0,0.0,0.0,0.0,0.0,0.0,0.0,0.0,0.0,0.0,0.0,0.0,0.0,0.0,0.0,0.0,0.0,0.0,0.0,0.0,0.0,0.0,0.0,0.0,0.0,0.0,0.0,0.0,0.0,0.0,0.0,0.0,0.0,0.0,0.0,0.0,0.0,0.0,0.0,0.0,0.0,0.0,0.0,0.0,0.0,0.0,0.0,0.0,0.0,0.0,0.0,0.0,0.0,0.0,0.0,0.0,0.0,0.0,0.0,0.0,0.0,0.0,0.0,0.0,0.0,0.0,0.0,0.0,0.0,0.0,0.0,0.0,0.0,0.0,0.0,0.0,0.0,0.0,0.0,0.0,0.0,0.0,0.0,0.0,0.0,0.0,0.0,0.0,0.0,0.0,0.0,0.0,0.0,0.0,0.0,0.0,0.0,0.0,0.0,0.0,0.0,0.0,0.0,0.0,0.0,0.0,0.0,0.0,0.0,0.0,0.0,0.0,0.0,0.0,0.0,0.0,0.0,0.0,0.0,0.0,0.0,0.0,0.0,0.0,0.0,0.0,0.0,0.0,0.0,0.0,0.0,0.0,0.0,0.0,0.0,0.0,0.0,0.0,0.0,0.0,0.0,0.0,0.0,0.0,0.0,0.0,0.0,0.0,0.0,0.0,0.0,0.0,0.0,0.0,0.0,0.0,0.0,0.0,0.0,0.0,0.0,0.0,0.0,0.0,0.0,0.0,0.0,0.0,0.0,0.0,0.0,0.0,0.0,0.0,0.0,0.0,0.0,0.0,0.0,0.0,0.0,0.0,4.2086,3.7977,0.0,0.0,0.0,0.0,0.0,0.0,0.0,0.0,0.0,0.0,0.0,0.0,0.0,0.0,0.0,0.0,0.0,0.0,0.0,0.0,0.0,0.0,0.0,2.6432,2.6502,2.662,2.6343,0.0,0.0,0.0,0.0,0.0,0.0,0.0,0.0,0.0,2.7209,2.86,2.958,3.2392,3.6753,3.4541,3.2803,3.1507,0.0,0.0,0.0,0.0,0.0,0.0,0.0,0.0,0.0,0.0,0.0,0.0,0.0,0.0,0.0,0.0,0.0,0.0,0.0,0.0,0.0,0.0,0.0,0.0,0.0,0.0,0.0,0.0,0.0,0.0,0.0,0.0,0.0,0.0,0.0,0.0,0.0,0.0,0.0,0.0,0.0,0.0,0.0,0.0,0.0,0.0,0.0,0.0,0.0,0.0,0.0,0.0,0.0,0.0,0.0,0.0,0.0,0.0,0.0,0.0,0.0,0.0,0.0,0.0,0.0,0.0,0.0,0.0,0.0,0.0,4.3976,4.1949,0.0,0.0,0.0,0.0,0.0,0.0,0.0,0.0,0.0,0.0,0.0,0.0,0.0,0.0,0.0,0.0,0.0,0.0,0.0,0.0,0.0,2.6961,2.713,2.7602,2.7955,2.8126,2.7815,2.7589,2.7462,2.7336,0.0,0.0,0.0,0.0,2.7652,2.7747,2.8948,3.1255,3.4446,3.8144,4.2252,4.3042,4.1873,3.8997,3.5458,0.0,0.0,0.0,0.0,0.0,0.0,0.0,0.0,0.0,0.0,0.0,0.0,0.0,0.0,0.0,0.0,0.0,0.0,0.0,0.0,0.0,0.0,0.0,0.0,0.0,0.0,0.0,0.0,0.0,0.0,0.0,0.0,0.0,0.0,0.0,0.0,0.0,0.0,0.0,0.0,0.0,0.0,0.0,0.0,0.0,0.0,0.0,0.0,0.0,0.0,0.0,0.0,0.0,0.0,0.0,0.0,0.0,0.0,0.0,0.0,0.0,0.0,0.0,4.8246,4.8355,4.8355,4.8355,4.876,4.9293,4.6035,4.6839,4.9801,4.405,0.0,0.0,0.0,0.0,0.0,0.0,0.0,0.0,0.0,0.0,0.0,0.0,0.0,0.0,0.0,0.0,0.0,0.0,0.0,2.8426,2.921,2.9603,3.0132,3.0879,3.0259,2.9516,2.8916,2.8284,2.7968,2.7968,2.8537,2.9137,2.9769,3.037,3.2297,3.5584,4.3137,4.7466,4.8731,5.0026,5.0374,4.9679,4.3232,3.9629,3.8333,0.0,0.0,0.0,0.0,0.0,0.0,0.0,0.0,0.0,0.0,0.0,0.0,0.0,0.0,0.0,0.0,0.0,0.0,0.0,0.0,0.0,0.0,0.0,0.0,0.0,0.0,0.0,0.0,0.0,0.0,0.0,0.0,0.0,0.0,0.0,0.0,0.0,0.0,0.0,0.0,0.0,4.2076,4.3983,0.0,0.0,0.0,0.0,0.0,0.0,0.0,0.0,0.0,0.0,0.0,0.0,0.0,4.661,4.8621,5.0235,5.1789,5.3378,5.5033,5.5762,5.5762,5.5762,5.5337,5.4337,5.2152,0.0,5.0657,4.9796,0.0,0.0,0.0,0.0,0.0,0.0,0.0,0.0,0.0,0.0,0.0,0.0,0.0,0.0,0.0,0.0,0.0,0.0,0.0,0.0,0.0,3.3076,3.4646,3.5408,3.6653,3.6247,3.3451,3.3386,3.2401,2.9927,3.0148,3.0622,3.1399,3.3593,3.7796,4.4022,4.8889,5.2207,5.404,5.4261,5.4577,5.4798,5.1322,4.7277,4.2947,4.1557,0.0,0.0,0.0,0.0,0.0,0.0,0.0,0.0,0.0,0.0,0.0,0.0,0.0,0.0,0.0,0.0,0.0,0.0,0.0,0.0,0.0,0.0,0.0,0.0,0.0,0.0,0.0,0.0,0.0,0.0,0.0,0.0,0.0,0.0,0.0,0.0,0.0,0.0,0.0,4.1294,4.4427,4.6839,4.5902,4.455,0.0,0.0,0.0,0.0,0.0,0.0,0.0,0.0,0.0,5.039,5.0797,5.1999,5.409,5.529,5.6405,5.7532,5.8336,5.8883,5.9209,5.8483,5.7914,5.7341,5.5719,5.477,5.4129,5.1012,4.9057,4.8003,0.0,0.0,0.0,0.0,4.2457,4.2583,0.0,0.0,0.0,0.0,0.0,0.0,0.0,0.0,0.0,0.0,0.0,0.0,3.4058,3.7503,4.0038,4.0738,4.2808,4.2332,3.8145,3.7916,3.6161,3.219,3.1855,3.2171,3.3056,3.7733,4.3706,5.0974,5.3471,5.5746,5.7737,5.739,5.7516,5.7958,5.7295,5.3629,4.7846,4.6424,4.3927,4.0672,0.0,0.0,0.0,0.0,0.0,0.0,0.0,0.0,0.0,0.0,0.0,0.0,0.0,0.0,0.0,0.0,0.0,0.0,0.0,0.0,0.0,0.0,0.0,0.0,0.0,0.0,0.0,0.0,0.0,0.0,0.0,0.0,0.0,0.0,0.0,0.0,0.0,4.4111,4.6818,4.8939,4.8574,4.7541,0.0,0.0,0.0,0.0,0.0,0.0,5.0037,5.1068,5.2723,5.5138,5.579,5.6956,5.8747,5.9371,5.9887,6.0321,6.0484,6.0645,6.0773,5.9766,5.9031,5.8459,5.7593,5.701,5.644,5.2566,5.0805,5.0431,4.9047,4.7469,4.5876,4.6295,4.6559,4.6752,0.0,0.0,0.0,0.0,0.0,0.0,0.0,0.0,0.0,0.0,0.0,3.7742,3.9088,4.3072,4.5924,4.6624,4.6886,4.5441,4.1749,3.9748,3.7297,3.4279,3.353,3.3846,3.5205,4.32,4.9521,5.3882,5.7326,5.9064,5.9222,5.9823,6.0107,6.0107,5.9444,5.7105,5.3597,5.2175,4.9963,4.7024,4.2252,0.0,0.0,0.0,0.0,0.0,0.0,0.0,0.0,0.0,0.0,0.0,0.0,0.0,0.0,0.0,0.0,0.0,0.0,0.0,0.0,0.0,0.0,0.0,0.0,0.0,0.0,0.0,0.0,0.0,0.0,0.0,0.0,0.0,0.0,0.0,0.0,0.0,0.0,4.999,5.2789,0.0,0.0,0.0,0.0,5.0498,5.0661,5.2018,5.4894,5.5654,5.7092,5.948,6.0158,6.0511,6.062,6.1189,6.1488,6.1515,6.2112,6.1844,6.0697,6.0697,5.9359,5.7274,5.7274,5.6516,5.5525,5.6344,5.6045,5.481,5.2867,5.1222,5.0161,5.0301,5.0431,5.072,0.0,0.0,0.0,0.0,0.0,3.0142,3.0142,3.0974,3.181,3.259,3.6767,4.0181,4.1591,4.682,5.0477,5.1189,5.3411,5.3241,4.9712,4.6619,4.4042,4.2035,3.8535,3.9408,4.5286,5.0089,5.4387,5.8085,5.9317,6.0202,6.0645,6.0392,6.055,6.0961,6.0265,5.9254,5.7958,5.6125,5.3502,5.0342,4.8162,4.4488,0.0,0.0,0.0,0.0,0.0,0.0,0.0,0.0,0.0,0.0,0.0,0.0,0.0,0.0,0.0,0.0,0.0,0.0,0.0,0.0,0.0,0.0,0.0,0.0,0.0,0.0,0.0,0.0,0.0,0.0,0.0,0.0,0.0,0.0,0.0,0.0,0.0,5.2108,5.3426,0.0,5.3288,5.4036,5.4624,5.4379,5.6495,5.8422,5.9914,6.0565,6.1461,6.2682,6.3306,6.3442,6.3062,6.4012,6.3873,6.2712,6.3324,6.2993,6.1632,6.0839,6.0065,5.9152,5.8387,5.7934,5.743,5.7971,5.7057,5.5236,5.457,5.4057,5.3617,5.3731,5.3489,5.3436,0.0,0.0,0.0,0.0,3.0252,3.0481,3.0704,3.1797,3.3287,3.523,3.9634,4.3482,4.5881,5.122,5.5005,5.5791,5.8497,5.8359,5.3923,5.1027,4.8034,4.4787,4.2299,4.4654,5.2554,5.4767,5.7548,6.1024,6.1024,6.1277,6.1751,6.1245,6.1277,6.1719,6.1245,6.0897,6.0581,5.9097,5.7046,5.464,5.2776,4.9111,4.4548,0.0,0.0,0.0,0.0,0.0,0.0,0.0,0.0,0.0,0.0,0.0,0.0,0.0,0.0,0.0,0.0,0.0,0.0,0.0,0.0,0.0,0.0,0.0,0.0,0.0,0.0,0.0,0.0,0.0,0.0,0.0,0.0,0.0,0.0,4.906,5.1564,5.3426,5.4869,5.5752,5.606,5.7295,5.8178,5.8395,6.0593,6.2193,6.2818,6.3415,6.3984,6.4581,6.4924,6.491,6.4291,6.4808,6.4386,6.3045,6.341,6.2819,6.1565,6.0772,6.0156,5.9673,5.856,5.8092,5.8092,5.7762,5.677,5.5493,5.5835,5.5835,5.5493,5.5493,5.5409,5.5067,0.0,0.0,0.0,3.0384,3.0355,3.0464,3.116,3.2455,3.4899,3.9186,4.3495,4.7804,5.2123,5.6438,5.9426,6.022,6.1668,6.0066,5.42,5.2497,4.8726,4.2164,4.4654,4.9394,5.6157,5.7073,5.9034,6.2441,6.2441,6.2473,6.2473,6.2473,6.2473,6.2473,6.241,6.213,6.1529,6.1141,6.083,6.0044,5.5936,5.3184,5.0996,0.0,0.0,0.0,0.0,0.0,0.0,0.0,0.0,0.0,0.0,0.0,0.0,0.0,0.0,0.0,0.0,0.0,0.0,0.0,0.0,0.0,0.0,0.0,0.0,0.0,0.0,0.0,0.0,0.0,0.0,0.0,0.0,0.0,5.0118,5.2723,5.4379,5.389,5.7445,5.9724,5.9182,6.0674,6.1949,6.2573,6.2628,6.2899,6.3352,6.4066,6.4517,6.5112,6.5037,6.4739,6.4133,6.3439,6.2808,6.2271,6.2271,6.1641,6.0342,6.0342,5.9722,5.8468,5.7621,5.729,5.7124,5.6267,5.5763,5.5931,5.6744,5.6578,5.5717,5.5717,5.574,5.5763,0.0,0.0,0.0,3.0909,3.1399,3.1918,3.2613,3.3909,3.6366,4.0652,4.5019,4.955,5.4432,5.8358,6.122,6.253,6.3531,6.2678,5.9438,5.5353,5.1257,4.7067,5.2156,5.6182,5.8845,6.085,6.2598,6.4069,6.457,6.482,6.482,6.482,6.482,6.4789,6.3756,6.3474,6.3693,6.2058,6.169,6.1721,5.9284,5.6338,5.3264,0.0,0.0,0.0,0.0,0.0,0.0,0.0,0.0,0.0,0.0,0.0,0.0,0.0,0.0,0.0,0.0,0.0,0.0,0.0,0.0,0.0,0.0,0.0,0.0,0.0,0.0,0.0,0.0,0.0,0.0,0.0,5.2886,5.4243,5.3972,5.5383,5.7038,5.8612,6.0185,6.1407,6.2139,6.3035,6.3822,6.4419,6.488,6.4951,6.4611,6.4771,6.4656,6.4273,6.4683,6.4627,6.4059,6.4691,6.4042,6.2133,6.2559,6.1903,6.0213,5.9523,5.9021,5.8709,5.767,5.7329,5.7329,5.7158,5.6645,5.5888,5.6184,5.6076,5.5717,5.5717,5.5631,5.5311,0.0,0.0,0.0,3.1589,3.2234,3.2929,3.3625,3.492,3.7822,4.3328,4.6504,5.0856,5.7431,6.0318,6.2385,6.3794,6.3837,6.2395,5.9076,5.481,5.2584,5.2932,5.6496,5.9274,6.1002,6.2674,6.3984,6.4733,6.5419,6.5731,6.5731,6.5731,6.5575,6.5295,6.4764,6.4608,6.4639,6.3318,6.2934,6.3151,6.1863,5.9114,5.5721,5.5316,5.3303,5.0636,4.985,4.9563,4.9316,4.7552,0.0,0.0,0.0,0.0,0.0,0.0,0.0,0.0,0.0,0.0,0.0,0.0,0.0,0.0,0.0,0.0,0.0,0.0,0.0,0.0,0.0,0.0,0.0,0.0,5.6503,5.8585,5.8747,5.9154,5.9941,6.1352,6.2465,6.3279,6.374,6.4581,6.5058,6.476,6.5136,6.4957,6.4274,6.43,6.4246,6.4017,6.4093,6.3792,6.3235,6.3244,6.2436,6.0768,6.0748,6.0074,5.8964,5.843,5.8259,5.8088,5.7228,5.6882,5.6709,5.6587,5.6174,5.5733,0.0,0.0,0.0,0.0,5.5191,5.4959,3.1677,3.1498,3.1539,3.2266,3.2961,3.3625,3.432,3.5552,3.9055,4.6362,4.7855,5.1695,6.0561,6.2113,6.3049,6.4512,6.3294,6.0504,5.5946,5.3089,5.3621,5.8338,5.8896,6.0266,6.2695,6.3567,6.4346,6.5062,6.5748,6.609,6.609,6.609,6.5779,6.5218,6.5654,6.553,6.4938,6.4474,6.4243,6.4119,6.33,6.1258,5.8603,5.7363,5.5966,5.4576,5.3314,5.2852,5.2637,5.1277,0.0,0.0,0.0,0.0,0.0,0.0,0.0,0.0,0.0,0.0,0.0,0.0,0.0,0.0,0.0,0.0,0.0,0.0,0.0,0.0,0.0,0.0,0.0,0.0,5.9616,6.2411,6.3577,6.319,6.2811,6.2763,6.4256,6.5124,6.4517,6.5288,6.5458,6.4265,6.4111,6.3856,6.3064,6.293,0.0,0.0,0.0,6.2091,6.1573,6.0071,5.9093,5.8694,5.7837,5.7516,5.7584,5.7411,5.7389,5.7411,5.6412,5.6084,5.6129,5.5775,5.5592,5.5684,5.5866,5.549,5.4827,5.4827,5.4827,5.4827,3.2273,3.2127,3.2297,3.2993,3.3656,3.4352,3.5078,3.59,3.9189,4.7032,4.8189,5.21,6.2113,6.2438,6.2965,6.5716,6.3248,6.0168,5.682,5.7178,5.7738,5.8429,6.1227,6.3131,6.3978,6.5417,6.6571,6.7249,6.7896,6.8236,6.8236,6.8236,6.8259,6.8104,6.7033,6.6571,6.6324,6.4659,6.3611,6.3056,6.2377,6.2038,6.1915,6.1877,6.1495,6.0948,6.0352,6.0175,5.9866,5.7948,5.6555,5.5411,5.4021,5.2426,0.0,0.0,0.0,0.0,0.0,0.0,0.0,0.0,0.0,0.0,0.0,0.0,0.0,0.0,0.0,0.0,0.0,0.0,0.0,6.0104,6.279,6.4771,6.5504,6.4985,6.439,6.3975,6.5151,6.5625,6.5037,6.5149,6.4976,6.4162,6.4029,6.36,6.2408,6.154,6.0764,5.9763,5.8841,5.8329,5.8236,5.8009,5.7872,5.8195,5.8021,0.0,5.8664,5.7779,5.7424,5.7446,5.6928,5.6742,5.6582,5.6902,5.688,5.6465,5.6188,5.6012,5.5832,5.5832,5.5832,5.5832,3.2866,3.2771,3.2993,3.3688,3.4383,3.5078,3.5805,3.65,3.9262,4.5763,4.6616,4.9759,5.8264,5.8261,5.833,6.0125,5.817,5.6678,5.6005,5.8242,6.0051,6.1072,6.321,6.4628,6.5077,6.5985,6.7073,6.8397,6.9074,6.9566,6.9905,6.9905,6.972,6.9351,6.8705,6.8212,6.7812,6.6457,6.5472,6.4795,6.4118,6.3872,6.3749,6.2809,6.2624,6.2764,6.2531,6.2514,6.239,6.134,6.0537,5.9858,5.8978,5.6868,5.3844,0.0,0.0,0.0,0.0,0.0,0.0,0.0,0.0,0.0,0.0,0.0,0.0,0.0,0.0,5.4976,5.6212,0.0,6.1705,6.2884,6.5518,6.7458,6.7458,6.6864,6.5815,6.438,6.4698,6.4899,6.4559,6.4585,6.4023,6.277,6.252,6.1548,5.9907,5.9233,5.8724,5.8088,5.7573,5.7516,5.7791,5.752,5.773,5.8206,5.7941,5.8007,5.8254,5.773,5.7548,5.7548,5.7239,5.7164,5.7208,5.771,5.7885,5.7863,5.7623,5.6968,5.6116,5.6116,5.6116,5.6116,3.3309,3.3403,3.3656,3.4194,3.4889,3.5616,3.6311,3.7038,3.9205,4.3879,4.4658,4.7077,5.3385,5.3202,5.2777,5.3102,5.3112,5.3641,5.5101,5.8504,6.1402,6.3533,6.458,6.5288,6.5719,6.6211,6.7196,6.8705,6.9382,6.9967,7.0521,7.0644,7.0336,6.972,6.9967,6.9628,6.8858,6.8458,6.7843,6.7042,6.6365,6.5688,6.4888,6.3102,6.2733,6.3225,6.3225,6.2841,6.2457,6.2964,6.2595,6.2103,6.2964,6.0306,5.6508,5.4299,5.0711,0.0,0.0,0.0,0.0,0.0,0.0,0.0,0.0,5.3754,5.446,5.6359,5.7228,5.8019,5.9427,6.2296,6.4652,6.5136,6.7309,6.8677,6.801,6.7053,6.5667,6.3803,6.3786,6.3813,6.3224,6.3199,6.2505,6.0845,6.0291,5.9209,5.7573,5.732,5.7261,5.7352,5.7269,5.7565,5.7889,5.7604,5.7712,5.818,5.7753,5.7579,5.7667,5.7579,5.7514,5.7536,5.7732,5.7907,5.8125,5.854,5.8977,5.937,5.9283,5.83,5.6924,5.6727,5.6662,5.6662,3.3309,3.3783,3.4194,3.4288,3.4889,3.5616,3.6311,3.7038,3.8886,4.2642,4.3616,4.5995,5.1121,5.0667,4.9764,4.9264,5.3001,5.5376,5.5561,5.9347,6.1994,6.2887,6.4764,6.5534,6.5011,6.735,6.8366,6.8027,6.8674,6.9043,6.9135,6.972,6.9628,6.9043,7.0244,7.009,6.892,6.9443,6.8951,6.775,6.7073,6.6396,6.5719,6.4857,6.4611,6.4672,6.4672,6.2896,6.0965,6.3697,6.2031,5.9492,6.3365,6.2018,5.8492,5.6764,5.3949,5.0617,4.6835,4.676,4.8023,4.9454,5.0594,5.2968,0.0,5.9019,5.9534,6.393,6.5287,6.5938,6.6671,6.7566,6.8071,6.7456,6.6944,6.6098,6.4869,6.2907,6.1518,6.1277,6.2855,6.326,6.0772,6.0555,5.9731,5.8009,5.7768,5.7722,5.7401,5.6988,5.7087,5.7536,5.7061,5.7138,5.7643,5.7524,5.7809,5.8291,5.771,5.7754,5.8191,5.7732,5.7514,5.7579,5.8431,5.9305,6.0113,6.0157,6.0463,6.0834,6.0419,6.0135,5.9829,5.8955,5.865,5.865,3.3878,3.4446,3.5047,3.5458,3.5805,3.6216,3.6943,3.7291,3.8356,4.0606,4.118,4.2398,4.5269,4.484,4.4789,4.5634,5.0051,5.3314,5.4483,5.9839,6.2918,6.2825,6.4795,6.5965,6.6057,6.6796,6.7596,6.8489,6.8366,6.852,6.8889,6.9566,6.9536,6.892,6.9474,6.9197,6.8304,6.8212,6.7627,6.6735,6.6427,6.5934,6.5319,6.5442,6.5472,6.5207,6.3426,6.174,0.0,6.2243,6.079,5.8951,6.2558,6.0819,5.716,5.5993,5.3078,5.0426,5.099,5.1035,5.1961,5.605,5.7288,5.8449,6.2031,6.2709,6.3469,6.6535,6.7349,6.781,6.876,6.8782,6.8412,6.7462,6.6592,6.5765,6.4552,6.2852,6.1651,6.0945,6.138,6.1202,6.038,5.9518,5.8761,5.8388,5.7757,5.7376,5.7112,5.6976,5.6835,5.7034,5.6867,5.6902,5.7099,5.7667,5.8213,5.8693,5.9305,5.972,5.9938,6.0004,6.0026,6.0069,6.0463,6.0856,6.1249,6.1249,6.1358,6.1511,6.1314,6.1249,6.114,6.0179,5.9807,5.9807,3.4604,3.5173,3.5837,3.6342,3.6595,3.688,3.7417,3.748,3.7828,3.8746,3.903,3.9566,4.0598,4.0546,4.1202,4.3125,4.7311,5.0944,5.356,5.9008,6.2364,6.2794,6.4426,6.5657,6.6334,6.6242,6.6796,6.8058,6.7966,6.815,6.8643,6.9505,6.9536,6.8889,6.9074,6.8797,6.815,6.7658,6.7165,6.6704,6.655,6.6057,6.5472,6.578,6.5095,6.3751,6.185,6.0206,5.8971,5.916,5.7465,5.585,5.932,5.7484,5.42,5.4296,5.1905,4.9818,5.36,5.4244,5.531,6.0862,6.2296,6.3035,6.4663,6.5395,6.6209,6.8028,6.8516,6.874,6.8945,6.8566,6.7759,6.6179,6.5146,6.4206,6.3153,6.1935,6.0882,6.0158,5.9446,5.9256,5.9769,5.8639,5.812,5.8335,5.7645,5.7017,5.6771,5.6793,5.7033,5.7579,5.7601,5.7776,5.8191,5.8912,5.9436,5.9764,6.0681,6.1118,6.1118,6.1205,6.1183,6.1052,6.1183,6.1314,6.1467,6.1577,6.1708,6.1839,6.1992,6.1612,6.0719,6.0162,6.0018,6.0001,3.5363,3.5932,3.6406,3.6437,3.7006,3.7449,3.748,3.748,3.7421,3.7301,3.7869,3.8435,3.8803,3.9287,4.0385,4.2448,4.5741,4.9404,5.3468,5.6392,5.9408,6.2671,6.3502,6.4241,6.4949,6.6211,6.6581,6.5996,6.7289,6.7935,6.7966,6.9289,6.9536,6.892,6.9566,6.9505,6.8858,6.8828,6.8828,6.8735,6.812,6.7473,6.6796,6.615,6.3122,5.9308,6.0475,5.8563,5.5351,5.4496,5.126,4.846,5.2778,5.1989,4.9906,5.2256,5.0932,4.9414,5.2722,5.4874,5.7009,6.045,6.3244,6.5395,6.6644,6.6942,6.7458,6.9276,7.0117,6.983,6.7611,6.7556,6.6908,6.3305,6.1733,6.0701,5.9315,5.8234,5.77,5.7514,5.7536,5.7732,5.8401,5.7776,5.7273,5.6858,5.6378,5.6312,5.6771,5.6793,5.7667,5.9545,5.9611,6.0288,6.1664,6.1708,6.173,6.1751,6.1314,6.1118,6.1074,6.0179,5.9501,5.9086,5.9567,6.0026,6.0506,6.0943,6.1402,6.1882,6.2385,6.0868,5.8352,5.8949,5.9202,5.9109,3.609,3.6658,3.7133,3.7133,3.7322,3.748,3.748,3.748,3.7421,3.7238,3.7622,0.0,0.0,0.0,0.0,0.0,4.5249,4.8112,5.0882,5.5684,5.8947,6.0086,6.2979,6.4641,6.4888,6.5349,6.5688,6.5903,6.5903,6.5903,6.5934,6.7289,6.7566,6.695,6.7627,6.7535,6.6888,6.6427,6.6242,6.6273,6.6488,6.484,6.2354,6.381,6.1058,5.6209,0.0,5.3039,5.0889,5.0876,4.9141,4.7566,5.1432,5.0407,4.8133,5.0139,5.1483,5.3164,5.7411,6.0016,6.2202,6.5464,6.7295,6.8299,6.8706,6.8814,6.9086,7.009,6.892,6.7872,6.813,6.6069,6.3856,6.2647,6.1461,6.042,5.9672,5.9146,5.8955,5.8955,5.9523,5.9851,5.972,5.8387,5.771,5.8191,5.7492,5.7536,5.865,5.8715,5.9021,5.9676,6.031,6.0572,6.0419,6.1031,6.1205,6.0899,6.1052,6.1271,6.1577,6.1271,6.1031,6.0878,6.1052,6.1181,6.1237,5.9705,5.9201,5.9201,5.7841,5.6827,5.5766,5.4851,5.4503,5.4703,3.6785,3.7164,3.748,3.748,3.748,0.0,0.0,0.0,0.0,0.0,0.0,0.0,0.0,0.0,0.0,0.0,0.0,4.6234,4.8789,5.3067,5.6053,5.7285,6.0086,6.1717,6.1994,6.1888,6.2349,6.3349,6.3548,6.3947,6.4549,6.615,6.6673,6.6273,6.6457,6.6304,6.5873,6.5195,6.4524,6.3984,6.3822,6.1679,5.8755,5.9728,5.6805,0.0,5.0487,4.8291,4.6059,4.666,4.6166,4.5847,4.9142,4.9395,4.8991,5.1308,5.2985,5.5366,6.1165,6.3365,6.4921,6.8368,6.9394,6.9532,6.9691,7.0012,6.9991,6.9881,6.834,6.6847,6.6036,6.3787,6.1756,6.0701,6.0307,6.0092,5.9654,5.9851,5.996,5.996,6.0637,6.0921,6.0463,5.9436,5.8999,5.9458,5.8912,5.8977,5.9917,5.996,6.02,6.0725,6.1162,6.1249,6.0987,6.1577,6.1817,6.1708,6.1992,6.221,6.2363,6.2363,6.2166,6.1416,6.0569,6.0133,5.9774,5.7445,5.6333,5.6168,5.503,5.3784,5.2742,5.1819,5.0812,5.0151,3.748,3.748,3.748,0.0,0.0,0.0,0.0,0.0,0.0,0.0,0.0,0.0,0.0,0.0,0.0,0.0,0.0,0.0,4.7127,4.8789,5.1067,5.433,5.5253,5.6023,5.67,5.6537,5.7181,5.867,6.0402,6.1997,6.3394,6.5391,6.6313,6.6169,6.5525,6.5249,6.5187,6.4512,6.3365,6.1727,6.0112,5.8121,5.5906,5.4294,5.0946,4.6909,4.6991,4.4624,4.1455,4.203,4.2762,4.3913,4.6579,4.9297,5.2297,5.5545,5.5683,5.6284,6.3794,6.5262,6.552,6.9133,6.9696,6.9561,6.9884,7.0206,7.0118,6.8734,6.7931,6.6044,6.1534,6.083,6.009,5.7797,5.8781,5.9807,5.9829,6.0244,6.0528,6.0528,6.0943,6.1031,6.0572,6.0965,6.1074,6.0615,6.0506,6.0484,6.0572,6.0572,6.1205,6.2581,6.2232,6.2428,6.3302,6.3324,6.3543,6.3958,6.3958,6.3717,6.328,6.328,6.2371,6.0878,5.8539,5.7288,5.6482,5.4149,5.3115,5.3172,5.3316,5.1981,4.9481,5.0064,4.8462,4.6317,0.0,0.0,0.0,0.0,0.0,0.0,0.0,0.0,0.0,0.0,0.0,0.0,0.0,0.0,0.0,0.0,0.0,0.0,4.3802,4.7034,4.9528,5.0913,5.3991,5.5776,5.5992,5.6484,5.6946,5.7285,5.761,5.7476,5.7239,5.8053,5.8077,5.737,5.7222,5.7134,5.7104,5.6348,5.584,5.5517,5.5488,5.3382,5.0393,5.1288,4.8239,4.3615,4.4492,4.357,4.203,4.2605,4.57,4.9666,5.1741,5.4287,5.6953,5.9017,6.0592,6.2466,6.6068,6.7827,6.9105,7.0442,7.0571,7.0704,7.1296,6.8931,6.6646,6.6288,6.1871,5.7838,5.7214,5.7297,5.7331,5.7534,5.9556,6.1424,6.1795,6.197,6.2035,6.2035,6.245,6.2538,6.2079,6.2778,6.3062,6.2581,6.1555,6.1402,6.2494,6.256,6.2712,6.3084,6.3695,6.3936,6.3826,6.3826,6.3695,6.3455,6.3455,6.3184,6.2665,6.2665,6.2124,6.1293,5.8888,5.7771,5.7242,5.3109,5.1332,5.1169,4.9498,4.8436,4.7755,4.7853,4.7477,4.6806,0.0,0.0,0.0,0.0,0.0,0.0,0.0,0.0,0.0,0.0,0.0,0.0,0.0,0.0,0.0,0.0,0.0,0.0,0.0,4.4572,4.6296,4.6973,4.9743,5.1251,5.1282,5.1871,5.2793,5.4114,5.3898,5.4104,5.4812,5.485,5.4509,5.3993,5.3762,5.3666,5.3637,5.329,5.2693,0.0,0.0,4.9509,4.665,4.6866,4.4861,4.1873,4.2526,4.3154,4.399,4.6304,4.9534,5.3084,5.5287,5.7847,6.0509,6.3054,6.4049,6.5002,6.7907,6.91,6.9809,7.0558,7.0524,7.0171,6.8935,6.7022,6.4597,6.1596,5.7759,5.4857,5.5089,5.5571,5.656,5.7946,6.0457,6.2276,6.256,6.2778,6.2887,6.2887,6.3127,6.3259,6.3215,6.3695,6.4067,6.4198,6.328,6.2953,6.3564,6.3805,6.3914,6.3914,6.446,6.4613,6.4329,6.4329,6.3869,6.3156,6.2484,6.16,6.0542,6.0076,5.9335,5.8533,5.6109,5.4957,5.4284,5.0535,4.9105,4.8882,4.7505,4.7061,4.7061,4.7061,4.7061,4.7061,0.0,0.0,0.0,0.0,0.0,0.0,0.0,0.0,0.0,3.924,3.9575,4.0003,0.0,0.0,0.0,0.0,0.0,0.0,0.0,0.0,4.2725,4.3279,4.4603,4.5311,4.5311,4.5923,4.7487,5.002,4.9824,5.1049,5.3377,5.2923,5.2456,5.2191,5.1715,5.1489,5.1366,5.1366,5.0657,4.9228,4.7773,4.6032,4.4121,0.0,4.1742,4.1324,4.1481,4.3258,4.6133,5.0801,5.3661,5.5599,5.8196,6.0959,6.3831,6.6738,6.6318,6.5817,6.9126,6.9512,6.9004,6.98,6.9788,6.8514,6.5225,6.4273,6.2545,5.6084,5.4391,5.3865,5.3225,5.4368,5.6007,5.806,6.0266,6.1861,6.2254,6.2647,6.2996,6.3259,6.3346,6.3543,6.3958,6.411,6.4525,6.5356,6.5115,6.4744,6.4307,6.47,6.4919,6.4919,6.4919,6.4687,6.439,6.4455,6.3782,6.215,6.1046,5.9737,5.8015,5.679,5.5934,5.4764,5.251,5.1174,5.0579,4.8095,4.7204,4.7204,4.7204,4.7204,4.7204,4.7204,4.7204,4.7204,0.0,0.0,0.0,0.0,0.0,0.0,0.0,0.0,0.0,0.0,4.0645,3.9972,0.0,0.0,0.0,0.0,0.0,0.0,0.0,0.0,0.0,4.1925,4.3217,4.3925,4.3925,4.5126,4.5988,4.648,4.6793,4.6872,4.6506,4.6251,4.5107,4.3519,4.3349,4.3108,4.2591,4.2591,4.2711,4.2858,4.2567,4.2282,4.1873,4.1585,4.1402,0.0,4.2396,4.365,4.5637,5.1171,5.5628,5.9328,6.2297,6.5467,6.804,6.8003,6.8044,6.822,6.8857,6.8847,6.8747,6.8162,6.8068,6.7066,6.3915,6.0003,5.6279,5.3156,4.9586,4.7418,4.8978,5.0349,5.2206,5.4958,5.6443,5.806,6.0463,6.0878,6.1511,6.3084,6.363,6.3914,6.4001,6.4722,6.5246,6.5399,6.5749,6.588,6.5814,6.588,6.5923,6.5923,6.5923,6.5066,6.3142,6.3522,6.2203,5.9039,5.9174,5.8441,5.6629,5.6067,5.5599,5.5181,5.236,5.1286,5.1363,4.8872,4.795,4.795,4.795,4.795,4.795,4.795,4.795,4.795,0.0,0.0,0.0,0.0,0.0,0.0,0.0,4.0482,4.1712,4.327,4.3067,4.2482,4.1829,4.1009,4.0539,0.0,0.0,0.0,0.0,0.0,0.0,4.1032,4.2017,4.254,4.254,4.3864,4.488,4.5588,0.0,4.5501,4.5707,4.4608,4.334,4.1892,4.1598,4.0977,4.0184,4.05,4.069,4.088,4.1193,4.1324,4.1324,4.1324,4.1507,0.0,4.2709,4.4147,4.6219,4.9693,5.3694,5.8073,6.2703,6.6183,6.7933,6.5667,6.6754,6.8419,6.6347,6.6528,6.729,6.7215,6.6738,6.4836,5.9996,5.7121,5.4073,4.9073,4.6655,4.5828,4.7509,4.9191,5.1092,5.3516,5.5985,5.8082,5.948,6.0965,6.2254,6.3171,6.3717,6.411,6.4373,6.5006,6.553,6.5792,6.6033,6.6186,6.6186,6.6186,6.6186,6.6186,6.5284,6.4055,6.2265,6.1577,5.9592,5.6235,5.5989,5.47,5.2902,5.2251,5.1911,5.1789,5.0305,4.9922,4.9984,4.8644,4.8125,4.8125,4.8125,4.8125,4.8125,4.8125,4.8125,4.8125,0.0,0.0,0.0,0.0,0.0,0.0,0.0,4.1999,4.3447,4.5007,4.5541,4.5144,4.3562,4.1983,4.0847,0.0,0.0,0.0,0.0,0.0,0.0,0.0,4.1063,4.137,4.137,0.0,0.0,4.4941,4.4695,0.0,0.0,0.0,0.0,0.0,4.19,4.1041,4.0147,4.0473,4.0623,0.0,0.0,4.1324,4.1324,0.0,0.0,0.0,0.0,4.4356,4.6481,4.8479,5.1266,5.4812,6.0434,6.3996,6.5683,6.3304,6.5272,6.7472,6.4437,6.4848,6.5965,6.5643,6.4918,6.2468,5.6283,5.4848,5.2762,4.5948,4.4888,4.5631,4.7204,4.8536,5.0087,5.2249,5.4871,5.7055,5.8191,6.0397,6.2232,6.3171,6.3805,6.4307,6.47,6.5246,6.5749,6.6142,6.5735,6.552,6.552,6.552,6.552,6.5068,6.351,6.194,6.0558,5.8965,5.6534,5.3592,5.2442,5.1103,4.9519,4.8516,4.8252,4.8618,4.8205,4.8252,4.8618,4.8252,4.8125,4.8125,4.8125,4.8125,4.8125,4.8125,4.8125,4.8125,0.0,0.0,0.0,0.0,0.0,0.0,0.0,4.2695,4.4591,4.7277,4.6969,4.6084,4.5079,4.3625,4.2076,0.0,0.0,0.0,0.0,0.0,0.0,0.0,0.0,0.0,0.0,0.0,0.0,4.2879,4.4018,0.0,0.0,0.0,0.0,0.0,0.0,4.1254,4.0693,4.0428,0.0,0.0,0.0,0.0,0.0,0.0,0.0,0.0,0.0,4.3833,4.5375,4.9139,5.0604,5.1391,5.4396,5.8186,6.1779,6.3175,6.4508,6.5782,6.574,6.586,6.5273,6.2438,6.1879,6.0502,5.414,5.2499,5.0643,4.5587,4.4626,4.5238,4.7138,4.6898,4.7313,5.0131,4.9781,5.0851,5.5701,5.6968,5.8846,6.2822,6.411,6.4678,6.4722,6.5574,6.612,6.6164,6.4615,6.3728,6.3728,6.3728,6.3075,6.1541,6.0135,5.8577,5.6779,5.5628,5.3362,5.0455,5.0205,4.9519,4.8345,4.7791,4.7998,4.8602,4.795,4.803,4.8618,4.8252,4.8125,4.8125,4.8125,4.8125,4.8125,4.8125,4.8125,4.8173,0.0,0.0,0.0,0.0,0.0,0.0,4.2473,4.3706,4.5317,4.813,4.818,4.7586,4.6591,4.5204,4.3242,4.0724,0.0,0.0,0.0,0.0,0.0,0.0,0.0,0.0,0.0,0.0,4.2602,4.2602,4.3925,0.0,0.0,0.0,0.0,0.0,0.0,4.0681,4.0214,4.0441,0.0,0.0,0.0,0.0,0.0,0.0,0.0,0.0,0.0,0.0,4.548,4.6979,4.7756,4.8128,4.9191,5.1084,5.3117,5.4647,5.8303,6.1496,5.9591,6.0935,6.2386,6.1002,6.0176,5.8218,5.2857,5.1485,5.0,4.515,4.4386,4.4823,4.5609,4.5893,4.6374,4.7531,4.8689,5.072,5.4303,5.6465,5.8977,6.245,6.3717,6.3958,6.3084,6.4919,6.5735,6.4615,6.2877,6.152,6.0416,6.13,6.128,5.9691,5.8129,5.6308,5.4033,5.2476,5.0871,4.8815,4.8815,4.8596,4.8125,4.8205,4.8395,4.8649,4.8348,4.8395,4.8649,4.8522,4.83,4.8125,4.8348,4.83,4.8125,4.8125,4.8252,4.8475,0.0,0.0,0.0,0.0,0.0,4.0704,4.3295,4.4275,4.5634,4.8256,4.8415,4.7946,4.7167,4.5591,4.3697,4.1418,4.0755,0.0,0.0,0.0,0.0,0.0,0.0,0.0,0.0,0.0,4.2694,4.291,4.4233,4.4895,0.0,0.0,4.3353,4.2444,0.0,0.0,0.0,0.0,0.0,0.0,0.0,0.0,0.0,0.0,0.0,0.0,0.0,0.0,0.0,0.0,0.0,4.5679,4.5134,4.561,4.6618,4.9273,5.3752,5.743,5.5788,5.7481,5.9449,5.9522,5.8558,5.6312,5.2053,5.0633,4.8995,4.4735,4.4255,4.4582,4.4582,4.5369,4.6002,4.6002,4.7837,5.0305,5.3298,5.5744,5.8235,6.0987,6.2166,6.2226,6.0864,6.3096,6.4183,6.2857,6.11,5.9325,5.7737,5.843,5.8392,5.7455,5.542,5.361,5.1765,5.0188,4.9067,4.8125,4.8125,4.8173,4.83,4.8522,4.8697,4.8792,4.8792,4.8792,4.8792,4.8792,4.8618,4.83,4.8665,4.857,4.83,4.8395,4.857,4.8824,0.0,0.0,0.0,0.0,0.0,0.0,4.3358,4.4275,4.5476,4.7624,4.7277,4.676,4.6642,4.4683,4.3255,4.29,4.1449,0.0,0.0,0.0,0.0,0.0,0.0,0.0,0.0,0.0,4.291,4.3556,4.491,4.5422,4.5214,4.5214,4.46,4.3632,0.0,0.0,0.0,0.0,0.0,0.0,0.0,0.0,4.2065,0.0,0.0,0.0,0.0,0.0,0.0,0.0,0.0,0.0,0.0,4.2637,4.4202,4.9955,5.2429,5.4039,5.6764,5.7504,5.7512,5.7585,5.6465,5.4652,5.1747,4.9585,4.7378,4.4451,4.4255,4.4582,4.4582,4.5369,4.6002,4.6002,4.6439,4.8274,5.2621,5.4062,5.5592,5.8038,5.9174,5.9507,5.8599,5.9904,6.0879,6.0879,5.9325,5.7718,5.6364,5.458,5.3716,5.3716,5.137,5.0004,4.9988,4.8832,4.8125,4.8125,4.8125,4.83,4.8649,4.8649,4.884,4.9158,4.9158,4.9158,4.9158,4.9158,4.8967,4.8697,4.9031,4.8935,4.8697,4.9031,4.9158,4.8948,0.0,0.0,0.0,0.0,0.0,0.0,0.0,4.32,4.3895,4.5507,4.5507,4.5498,4.5782,4.4369,4.3255,4.2829,4.1519,0.0,0.0,0.0,0.0,0.0,0.0,0.0,0.0,0.0,4.3587,4.4264,4.5618,4.5879,4.5161,4.4545,4.3777,4.2814,4.1882,4.1764,0.0,0.0,0.0,0.0,0.0,4.2387,4.2582,0.0,0.0,0.0,0.0,0.0,0.0,0.0,0.0,0.0,0.0,0.0,0.0,4.4188,4.6676,4.9035,5.0344,5.1901,5.3069,5.2703,5.2512,5.1682,4.8755,4.7903,4.6876,4.3993,4.4036,4.4582,4.4582,4.5107,4.574,4.6395,4.6352,4.799,5.3014,5.318,5.4599,5.8882,5.8614,5.8562,5.9638,5.7891,5.7166,5.8535,5.6179,5.4746,5.4598,5.2297,5.1137,5.1137,5.0455,4.9519,4.8815,4.8361,4.8125,4.8125,4.8125,4.83,4.8649,4.8888,4.8935,4.884,4.9333,4.9237,4.884,4.9333,4.9333,4.9031,4.938,4.9285,4.9015,4.911,4.8575,4.7315,0.0,0.0,0.0,0.0,0.0,0.0,0.0,4.2695,4.3074,4.418,4.4117,4.4236,4.5142,4.3686,4.2692,4.294,4.1658,0.0,0.0,0.0,0.0,0.0,0.0,0.0,0.0,4.2663,4.3771,4.4972,4.6049,4.6173,4.5368,4.485,4.3881,4.2546,4.2043,4.2005,0.0,0.0,0.0,0.0,4.2609,4.2706,4.2873,0.0,0.0,0.0,0.0,0.0,0.0,0.0,0.0,0.0,0.0,0.0,0.0,0.0,4.3053,4.5172,4.6767,4.8427,4.9825,5.0218,5.0021,4.9191,4.7182,4.6417,4.5565,4.3578,4.3796,4.432,4.432,4.4866,4.574,4.7073,4.6548,4.7793,5.2948,5.2562,5.3231,5.7248,5.6799,5.6419,5.7538,5.5835,5.5288,5.6175,5.4346,5.2974,5.2745,5.107,4.9754,4.9285,4.9269,4.8815,4.8125,4.8125,4.8125,4.8125,4.8125,4.8395,4.884,4.8935,4.9015,4.9062,4.9507,4.946,0.0,4.965,4.9682,4.938,4.973,4.9682,4.938,4.9507,4.8446,4.6661,0.0,0.0,0.0,0.0,0.0,0.0,0.0,4.26,4.2853,4.3485,4.3011,4.3105,4.4338,4.2553,4.1789,4.2997,0.0,0.0,0.0,0.0,0.0,0.0,0.0,0.0,4.1648,4.2386,4.371,4.5649,4.6388,4.6441,4.5837,4.5837,4.4862,4.2955,4.2955,4.2928,0.0,0.0,0.0,0.0,4.2609,4.2706,0.0,0.0,0.0,0.0,0.0,0.0,0.0,0.0,0.0,0.0,0.0,0.0,0.0,0.0,0.0,0.0,0.0,4.6723,4.7553,4.9279,4.8405,4.6985,4.6483,4.5019,0.0,4.3163,4.3447,4.3774,4.384,4.4713,4.6002,4.7793,4.7051,4.7859,5.2468,5.2167,5.2045,5.3862,5.4077,5.3862,5.3368,5.4188,5.4704,5.4078,5.3281,5.2377,5.1235,5.0238,4.9285,4.8125,4.8125,4.8125,4.8125,4.8125,4.8125,4.8125,4.8125,4.8491,4.9158,4.884,4.9062,4.9682,4.973,4.973,4.973,5.0079,5.0048,4.9777,5.0079,5.0016,4.9533,4.985,4.8711,4.6475,0.0,0.0,0.0,0.0,0.0,0.0,0.0,0.0,0.0,0.0,4.1968,4.1968,4.2284,4.1673,4.1413,0.0,0.0,0.0,0.0,0.0,0.0,0.0,0.0,0.0,4.2355,4.3525,4.4849,4.6357,4.7558,4.7588,4.6505,4.6505,4.5486,4.3579,4.3579,4.3308,0.0,0.0,0.0,0.0,4.2803,4.2803,0.0,0.0,0.0,0.0,4.2631,4.1436,0.0,0.0,0.0,0.0,0.0,0.0,0.0,0.0,4.0782,4.135,4.2136,0.0,4.3621,4.3687,4.3665,4.349,0.0,4.2813,4.2617,4.2136,4.242,4.2988,4.3731,4.526,4.6548,4.7007,4.8034,4.9563,5.1813,5.3525,5.4361,5.3594,5.4458,5.4746,5.3692,5.4174,5.3837,5.2548,5.1765,5.075,4.9872,4.909,4.8377,4.8125,4.8125,4.8125,4.8125,4.8125,4.8125,4.8125,4.8125,4.8491,4.9158,4.9062,4.9285,4.9698,5.0,4.9952,4.973,5.0079,5.0175,5.0095,5.0175,4.9143,4.7831,4.7922,4.5712,4.2444,0.0,0.0,0.0,0.0,0.0,0.0,0.0,0.0,0.0,0.0,0.0,4.1588,4.1588,4.139,0.0,0.0,0.0,0.0,0.0,0.0,0.0,0.0,0.0,4.1186,4.2571,4.3587,4.4941,4.6603,4.721,4.707,4.6301,4.5815,4.4818,4.3362,4.3362,4.3199,0.0,0.0,0.0,4.29,4.29,0.0,0.0,0.0,0.0,0.0,4.2346,4.1081,0.0,4.1633,4.0421,3.835,0.0,0.0,0.0,0.0,4.0301,4.0629,4.0388,4.135,4.242,4.2376,4.2398,4.2398,4.2376,4.2223,4.2005,4.1743,4.207,4.2573,4.3097,4.4954,4.6898,4.8471,4.9114,4.989,5.1043,5.3053,5.4169,5.3555,5.45,5.4924,5.4117,5.4228,5.3655,5.1934,5.1071,5.0107,4.9162,4.8557,4.8125,4.8125,4.8125,4.8125,4.8125,4.8125,4.8125,4.8125,4.83,4.8665,4.9158,4.9158,4.9428,4.9952,4.9952,4.9952,4.9952,5.0127,4.9714,4.8741,4.8741,4.7704,4.5697,4.5697,4.3957,4.1191,0.0,0.0,0.0,0.0,0.0,0.0,0.0,0.0,0.0,0.0,0.0,0.0,0.0,0.0,0.0,0.0,0.0,0.0,0.0,0.0,0.0,0.0,4.057,4.1217,4.2725,4.3279,4.4603,4.6757,4.6592,4.6371,4.6214,4.5288,4.4248,4.3145,4.2982,4.29,0.0,0.0,4.29,4.29,4.29,0.0,0.0,0.0,0.0,0.0,0.0,0.0,0.0,4.1779,4.0739,3.9045,4.0694,0.0,0.0,0.0,0.0,0.0,3.9821,4.1022,4.242,4.2944,4.2638,4.2376,4.3032,4.2289,4.1481,4.1481,4.2092,4.2609,4.2818,4.5178,4.7922,5.0696,5.04,4.9887,5.049,5.2048,5.3023,5.3347,5.4351,5.4851,5.4151,5.4096,5.3119,5.1058,5.0466,4.971,4.8587,4.8083,4.7998,4.803,4.803,4.8077,4.8125,4.8125,4.8125,4.8125,4.8475,4.884,4.9158,4.9205,4.9603,5.0222,4.9905,4.9676,4.973,4.973,4.8479,4.6725,4.6725,4.5447,4.3691,4.3691,4.2444,4.0696,0.0,0.0,0.0,0.0,0.0,0.0,0.0,0.0,0.0,0.0,0.0,0.0,0.0,0.0,0.0,0.0,0.0,0.0,0.0,0.0,0.0,4.1401,4.0847,4.1432,4.3371,4.3525,4.4849,4.7465,4.7654,4.7788,4.7998,4.7574,4.6328,4.4393,4.3362,4.29,4.29,4.29,4.29,4.29,4.29,0.0,0.0,0.0,0.0,0.0,0.0,0.0,0.0,4.013,3.9551,3.835,3.9154,0.0,0.0,0.0,0.0,0.0,4.0476,4.1284,4.1918,4.2398,4.1874,4.1568,4.2879,4.1786,4.0498,4.0498,4.218,4.3824,4.4453,4.8661,5.1893,5.1387,5.1872,5.2085,5.1529,5.2943,5.3691,5.3405,5.4612,5.471,5.3031,5.2771,5.166,4.8947,4.8613,4.8209,4.7104,4.7029,4.7378,4.768,4.768,4.7823,4.8125,4.8125,4.8125,4.8125,4.8475,4.884,4.9158,4.9476,4.9825,5.0222,5.0175,4.9174,4.7704,4.7704,4.6475,4.4682,4.4682,4.3439,4.1685,4.1685,4.0429,3.8644,0.0,0.0,0.0,0.0,0.0,0.0,0.0,0.0,0.0,0.0,0.0,0.0,0.0,0.0,0.0,0.0,0.0,0.0,0.0,0.0,4.1432,4.2109,4.2171,4.2786,4.4079,4.4818,4.6088,4.7825,4.8148,4.8246,4.807,4.6835,4.5358,4.3687,4.3145,4.29,4.29,4.29,4.29,4.29,0.0,0.0,0.0,0.0,0.0,0.0,0.0,0.0,0.0,0.0,3.9607,3.8218,3.9318,0.0,0.0,0.0,0.0,0.0,3.934,4.017,4.1546,4.4102,4.4626,4.4823,4.6002,4.5362,4.3995,4.2544,4.3386,4.4588,4.4868,4.7933,5.0729,5.1738,5.2633,5.3114,5.2183,5.2833,5.3634,5.3457,5.3914,5.3938,5.2847,5.1957,5.055,4.837,4.8353,4.769,4.6584,4.6886,4.7156,4.7283,4.7505,4.768,4.7823,4.803,4.8125,4.8125,4.8475,4.884,4.9158,4.9523,4.9873,5.0206,4.8989,4.7952,4.7207,4.5947,4.4459,4.267,4.267,4.1419,3.9678,3.9678,3.8912,3.8156,0.0,0.0,0.0,0.0,0.0,0.0,0.0,0.0,0.0,0.0,0.0,0.0,0.0,0.0,0.0,0.0,0.0,0.0,0.0,4.1357,4.1894,4.2571,4.3371,4.4264,4.5249,4.6058,4.7213,4.8716,4.8632,4.834,4.7707,4.5833,4.4257,4.309,4.2955,4.29,4.29,4.29,4.29,4.29,0.0,0.0,0.0,0.0,0.0,0.0,0.0,0.0,0.0,0.0,0.0,0.0,0.0,0.0,0.0,3.8248,3.8707,3.9231,3.875,3.9755,4.1852,4.5631,4.6679,4.7203,4.8951,4.8471,4.6999,4.4784,4.5326,4.6066,4.5962,4.7807,4.9891,5.201,5.3266,5.3632,5.259,5.3035,5.3531,5.3842,5.3453,5.322,5.2781,5.1223,4.9694,4.8048,4.7851,4.7317,4.6457,4.6711,4.6854,4.6933,4.7204,4.7426,4.7601,4.7855,4.803,4.8125,4.8475,4.884,4.9158,4.9523,4.9612,4.9467,4.7952,4.671,4.5683,4.418,4.2417,4.0442,4.0442,3.9665,3.8156,3.8156,3.8156,3.8144,0.0,0.0,0.0,0.0,0.0,0.0,0.0,0.0,0.0,0.0,0.0,0.0,0.0,0.0,0.0,0.0,0.0,0.0,0.0,4.1426,4.1894,4.2571,4.3833,4.5403,4.7342,4.6478,4.7553,5.0649,4.9409,4.8243,4.7322,4.6048,4.4881,4.3687,4.3145,4.29,4.29,4.29,4.29,4.2776,4.2092,0.0,0.0,0.0,0.0,0.0,0.0,0.0,0.0,0.0,0.0,0.0,0.0,0.0,3.875,3.8248,3.9406,4.0738,4.0257,4.1524,4.3468,4.5544,4.5412,4.5771,4.9786,4.8525,4.6391,4.5584,4.7439,4.9143,4.8458,5.1322,5.3341,5.2747,5.3746,5.3965,5.2731,5.3531,5.4264,5.4283,5.3866,5.3185,5.2031,5.0215,4.8424,4.7259,4.6652,4.606,4.6076,4.6076,4.625,4.6616,4.6616,4.6965,4.7601,4.7633,4.7807,4.8125,4.8475,4.884,4.9158,4.9523,4.8878,4.7426,4.7193,4.5197,4.1672,4.1445,4.0187,3.84,3.84,3.8425,3.8156,3.8156,3.8156,3.79,0.0,0.0,0.0,0.0,0.0,0.0,0.0,0.0,0.0,0.0,0.0,0.0,0.0,0.0,0.0,0.0,0.0,0.0,0.0,4.1727,4.2509,4.3187,4.491,4.615,4.6819,4.7546,4.8433,4.9567,4.8813,4.7834,4.6754,4.5587,4.4393,4.3199,4.2982,4.29,4.29,4.29,4.29,4.2776,4.1993,4.1696,0.0,0.0,0.0,0.0,0.0,0.0,0.0,0.0,3.8274,3.7673,3.8602,3.8707,3.8335,3.816,3.8619,3.9165,3.8991,4.0528,4.2665,4.4972,4.6117,4.7272,4.9467,5.0566,5.056,4.7974,4.8561,4.9548,4.9301,5.088,5.22,5.2227,5.2705,5.298,5.2829,5.3751,5.4096,5.3202,5.2781,5.2066,5.0921,4.9062,4.7762,4.7076,4.6616,4.6346,4.6346,4.6171,4.6203,4.6568,4.6759,4.7013,4.7251,4.7903,4.7604,4.6491,4.7651,4.7777,4.7144,4.7466,4.6565,4.4925,4.3873,4.271,4.1178,3.992,3.8899,3.8156,3.8156,3.8156,3.8156,3.8156,3.7644,3.6861,0.0,0.0,0.0,0.0,0.0,0.0,0.0,0.0,0.0,0.0,0.0,0.0,0.0,0.0,0.0,0.0,0.0,0.0,4.0882,4.1974,4.2786,4.3248,4.5187,4.6103,4.5747,4.7407,4.8304,4.8537,4.8157,4.7269,4.5885,4.4881,4.3959,4.3172,4.2982,4.3009,4.3145,4.2955,4.29,4.2776,4.167,4.1272,0.0,0.0,0.0,0.0,0.0,0.0,0.0,0.0,3.8113,3.7462,3.8608,3.8573,3.8117,3.8117,3.8859,3.958,3.8969,4.0614,4.2853,4.4294,4.6099,4.7663,4.8525,5.0763,5.2175,4.9756,4.9781,5.0063,5.0078,5.0656,5.1295,5.1593,5.2006,5.2534,5.2885,5.3384,5.3299,5.251,5.171,5.0804,4.9971,4.8493,4.7505,4.7251,4.6838,4.6616,4.6711,4.6393,4.6346,4.6711,4.6933,4.7156,4.741,4.8125,4.7601,4.5877,4.6868,4.6689,4.5055,4.5304,4.4581,4.2887,4.1845,4.0924,4.0175,3.8656,3.8156,3.8156,3.8156,3.8156,3.8144,3.762,3.6861,3.6067,0.0,0.0,0.0,0.0,0.0,0.0,0.0,0.0,0.0,0.0,4.1588,0.0,0.0,0.0,0.0,0.0,0.0,0.0,4.1117,4.2045,4.2602,4.2602,4.451,4.5263,4.4646,4.5859,4.7005,4.8021,4.7553,4.6428,4.4691,4.4067,4.3769,4.3742,4.3145,4.3226,4.3715,4.3145,4.29,4.2776,4.1045,4.0414,4.0211,0.0,0.0,0.0,0.0,0.0,0.0,0.0,3.777,3.692,3.8022,3.821,3.8117,3.8117,4.052,4.2748,4.0825,4.2479,4.4398,4.3331,4.4864,4.6769,4.6906,4.8593,5.0224,5.0726,5.1182,5.1362,5.1322,5.1496,5.1381,5.0981,5.1935,5.2761,5.2572,5.2124,5.2085,5.2475,5.0801,4.9575,4.9938,4.8493,4.7601,4.7601,4.6965,4.6711,4.7061,4.6759,4.6711,4.7061,4.7061,4.741,4.8125,4.8125,4.7507,4.6221,4.6221,4.5392,4.3718,4.3718,4.265,4.1178,4.1178,3.9907,3.8156,3.8156,3.8156,3.8156,3.8156,3.8144,3.79,3.6604,3.6078,3.5552,0.0,0.0,0.0,0.0,0.0,0.0,0.0,0.0,0.0,4.1588,4.1588,0.0,0.0,0.0,0.0,0.0,0.0,0.0,4.1117,4.1286,4.1727,4.2571,4.3411,4.3715,4.3342,4.3722,4.4995,4.695,4.6419,4.5641,4.4691,4.4067,4.3552,4.3172,4.3389,4.3389,4.3145,4.2955,4.29,4.2831,4.1461,4.0773,4.0262,0.0,0.0,0.0,0.0,0.0,0.0,0.0,0.0,0.0,3.814,3.8675,3.9187,3.9537,4.1066,4.2595,4.2376,4.4117,4.5569,4.4683,4.6107,4.7887,4.8056,4.9236,5.0437,5.0566,5.1208,5.1695,5.158,5.1725,5.2075,5.1905,5.2459,5.2647,5.1856,5.2094,5.1695,5.025,4.9905,4.9639,4.8832,4.8265,4.7855,4.7601,4.741,4.7331,4.7426,4.7108,4.7076,4.7426,4.7426,4.6947,4.5948,4.6419,4.5143,4.2364,4.2555,4.2264,4.1181,4.1394,4.0549,3.8907,3.9068,3.8656,3.8156,3.8156,3.8156,3.8156,3.8156,3.7644,3.6581,3.6347,3.48,3.2977,0.0,0.0,0.0,0.0,0.0,0.0,4.1588,4.1588,4.1588,4.1588,4.1588,4.1588,0.0,0.0,0.0,4.1588,4.139,0.0,4.1117,4.1379,4.1801,4.2362,4.3205,4.3425,4.3026,4.2923,4.3497,4.4691,4.48,4.4556,4.3986,4.4094,4.3959,4.3633,4.423,4.4176,4.3606,4.3335,4.303,4.2663,4.1645,4.0848,4.0181,0.0,0.0,0.0,0.0,0.0,0.0,0.0,0.0,0.0,3.7851,3.875,3.9602,3.9908,4.1532,4.3306,4.3606,4.4943,4.6308,4.6133,4.7021,4.8082,4.8824,4.999,5.0953,5.113,5.1591,5.213,5.2118,5.2232,5.2474,5.2793,5.2759,5.2666,5.1649,5.1568,5.0827,4.9326,4.9062,4.8888,4.8093,4.8125,4.803,4.7823,4.768,4.7648,4.7807,4.7458,4.7426,4.7807,4.7104,4.6285,4.5429,4.5078,4.353,4.0748,4.093,4.0374,3.9414,3.9591,3.8919,3.7927,3.8084,3.8156,3.8156,3.8156,3.7888,3.7363,3.7363,3.6604,3.5316,3.4519,3.3236,3.1958,0.0,0.0,4.1588,0.0,0.0,4.1588,4.1588,4.1588,4.1588,4.1588,4.1588,4.1588,0.0,0.0,0.0,4.1588,4.1456,4.1256,4.1117,4.1961,4.2371,4.2115,4.3418,4.3831,4.3286,4.2998,4.2548,4.2005,4.3145,4.3389,4.2846,4.4122,4.4664,4.4637,4.5234,4.518,4.4583,4.3959,4.3191,4.2387,4.157,4.0714,3.9873,3.9116,0.0,0.0,0.0,0.0,0.0,0.0,0.0,0.0,3.7462,3.8357,3.9493,3.9537,4.186,4.4398,4.4411,4.5597,4.683,4.7545,4.7608,4.7868,4.9447,5.0687,5.158,5.208,5.2361,5.265,5.3069,5.2724,5.2687,5.3054,5.3146,5.2653,5.1907,5.0673,4.9836,4.936,4.8332,4.7776,4.8077,4.8125,4.8125,4.8125,4.7823,4.7776,4.8125,4.7589,4.7541,4.7873,4.5948,4.5145,4.5245,4.3551,4.1929,4.0484,4.051,3.9667,3.8156,3.8156,3.8156,3.8156,3.8156,3.8156,3.8144,3.8132,3.7118,3.6078,3.6067,3.5047,3.3744,3.2468,3.1958,3.1467,0.0,0.0,4.1588,4.1588,0.0,0.0,4.1588,4.1588,4.1588,4.1588,4.1588,4.1588,4.1588,4.1588,0.0,4.1588,4.1588,4.139,4.1117,4.0685,4.0928,4.2085,4.2996,4.3357,4.304,4.2453,4.2141,4.2005,4.2711,4.2765,4.2222,4.3904,4.4447,4.3986,4.461,4.4556,4.3932,4.3335,4.2574,4.1808,4.1389,4.0487,3.9352,3.897,3.8479,0.0,0.0,0.0,0.0,0.0,0.0,0.0,3.7462,3.8117,3.9056,3.9449,4.2021,4.4632,4.4886,4.6527,4.8173,4.83,4.8899,4.9661,5.0771,5.164,5.2193,5.1836,5.2382,5.3045,5.2874,5.3028,5.3017,5.3091,5.2488,5.1854,5.0569,4.9972,4.9261,4.8035,4.8073,4.803,4.8125,4.8125,4.8125,4.8125,4.8046,4.803,4.8125,4.6614,4.565,4.5725,4.4026,4.2472,4.1087,4.0863,3.9898,3.8493,3.8727,3.8607,3.8156,3.8156,3.8156,3.8156,3.8156,3.8156,3.8144,3.7107,3.6335,3.6067,3.4767,3.3485,3.2198,3.1948,3.1265,3.0625,0.0,0.0,0.0,0.0,0.0,0.0,0.0,0.0,4.1999,4.162,4.1588,4.1588,4.1588,4.1588,0.0,0.0,4.1588,4.1456,4.1221,4.1372,4.1936,4.2976,4.2499,4.2285,4.2439,4.1598,4.1137,4.1137,4.1435,4.1734,4.2032,4.385,4.4366,4.3823,4.4719,4.4637,4.3742,4.3049,4.2292,4.1386,4.0847,3.996,3.8941,3.8803,3.8479,3.8046,3.8623,0.0,0.0,0.0,0.0,0.0,0.0,0.0,3.9231,3.9471,4.1546,4.4103,4.4816,4.6226,4.7644,4.8233,4.9343,5.0285,5.089,5.1807,5.2509,5.2417,5.2829,5.3069,5.3054,5.2953,5.2891,5.2472,5.2155,5.1327,4.9701,4.9539,4.9045,4.8073,4.7998,4.8125,4.8125,4.8125,4.8125,4.8125,4.8125,4.7653,4.6675,4.571,4.4757,4.3772,4.1837,4.0481,3.9666,3.8839,3.8151,3.7565,3.7722,3.7927,3.8156,3.8156,3.8156,3.8156,3.8156,3.7888,3.7118,3.6335,3.5294,3.4013,3.3226,3.2269,3.1063,3.1063,3.0663,3.0344,0.0,0.0,0.0,0.0,0.0,0.0,0.0,0.0,0.0,4.1683,4.1588,4.1588,4.1588,4.1588,4.1588,0.0,0.0,0.0,4.1323,4.2358,4.3077,4.3284,4.1834,4.13,4.1679,4.0594,4.0024,4.0024,4.0024,4.0648,4.1896,4.3606,4.4176,4.3823,4.4827,4.4719,4.3769,4.2865,4.1876,4.1003,4.0195,3.9398,3.8671,3.8671,3.8383,3.8046,3.8623,3.8312,3.7724,3.8344,0.0,0.0,0.0,0.0,3.9165,3.9165,4.0843,4.277,4.3818,4.5102,4.646,4.795,4.9276,5.023,5.0633,5.1605,5.254,5.2925,5.3072,5.3109,5.3109,5.2891,5.2454,5.1577,5.1234,5.0742,4.911,4.9014,4.8894,4.8093,4.8125,4.8125,4.8125,4.8125,4.8125,4.8125,4.7873,4.6928,4.5234,4.4489,4.3561,4.1864,3.993,3.897,3.897,3.7568,3.6853,3.7299,3.7335,3.7613,3.7828,3.7828,3.7852,3.7888,3.7888,3.7107,3.5821,3.5563,3.4002,3.1938,3.1708,3.1063,3.0174,3.0221,3.0372,3.0571,0.0,0.0,0.0,0.0,0.0,0.0,0.0,0.0,0.0,0.0,4.1588,4.1588,4.1588,4.1588,4.1588,4.1588,4.1588,4.1522,4.1323,0.0,0.0,4.0451,4.0905,4.0892,4.0431,3.9753,3.9427,3.9427,3.9427,4.0051,4.1272,4.2548,4.3362,4.3769,4.3932,4.3932,4.3742,4.2412,4.1276,4.0415,3.9619,3.881,3.8094,3.8094,3.8046,3.8046,3.8623,3.8076,3.7265,3.8229,3.7781,0.0,0.0,0.0,3.7658,3.7658,3.9104,4.0614,4.0796,4.3096,4.6177,4.8244,4.9478,5.023,5.0633,5.1385,5.2137,5.2522,5.287,5.3109,5.3109,5.2235,5.1577,5.1375,4.9899,4.8696,4.8865,4.8305,4.7946,4.8077,4.8125,4.8125,4.8125,4.8125,4.8125,4.8125,4.6438,4.5472,4.5234,4.2091,4.0199,3.9916,3.802,3.7054,3.7054,3.7039,3.6949,3.7046,3.7275,3.7024,3.6025,3.6025,3.614,3.6335,3.6335,3.5552,3.425,3.2977,3.2198,3.1698,3.0859,3.0419,3.0193,3.0372,3.0571,3.0769,0.0,0.0,0.0,0.0,0.0,0.0,0.0,0.0,0.0,0.0,0.0,4.1588,4.1588,4.1588,4.1588,4.1588,4.1588,4.1614,4.1585,4.0962,4.0683,4.0831,4.0249,3.9885,3.9699,3.9102,3.8803,3.8803,3.8803,3.978,4.1625,4.2141,4.2711,4.328,4.328,4.328,4.3155,4.1676,4.0563,3.9904,3.8877,3.8849,3.9248,3.8334,3.8743,3.9657,3.8695,3.7769,3.7104,3.754,3.7286,3.6741,3.6937,0.0,0.0,0.0,3.7986,3.9237,4.1498,4.3854,4.6076,4.8118,4.9102,4.9606,5.0248,5.0835,5.144,5.2064,5.2072,5.1983,5.2199,5.1797,5.0917,4.9556,4.8763,4.8258,4.7933,4.7826,4.7728,4.8077,4.8125,4.8125,4.8125,4.8125,4.7653,4.6438,4.571,4.428,4.2105,4.0401,3.897,3.8008,3.7029,3.6563,3.6563,3.6684,3.6557,3.5967,3.6226,3.5645,3.447,3.447,3.4681,3.5036,3.5036,3.4013,3.2728,3.2351,3.1596,3.0839,3.0524,3.042,3.0524,3.0618,3.0788,3.0706,0.0,0.0,0.0,0.0,0.0,0.0,0.0,0.0,0.0,0.0,0.0,4.1588,4.1588,0.0,0.0,0.0,4.1456,4.1341,4.1115,4.0407,4.0176,4.0621,3.962,3.8882,3.8613,3.8342,3.8179,3.8179,3.8342,3.9644,4.2005,4.2168,4.2629,4.3335,4.3172,4.3036,4.2776,4.0989,3.9979,3.9597,3.8932,3.932,4.0331,3.9801,4.0482,4.1468,3.934,3.8043,3.7314,3.6949,3.6518,3.6347,3.6479,3.65,0.0,0.0,0.0,3.8065,4.1623,4.3579,4.5068,4.7404,4.8305,4.9014,4.9845,5.0224,5.049,5.1199,5.0724,5.0214,5.0267,5.0406,4.9795,4.8032,4.7798,4.7641,4.7131,4.7156,4.7505,4.795,4.7998,4.803,4.8125,4.7653,4.6675,4.5249,4.425,4.2573,3.9687,3.8983,3.7995,3.6563,3.6563,3.6563,3.6563,3.6305,3.5427,3.437,3.455,3.3919,3.2721,3.2774,3.2763,3.2893,3.3152,3.2634,3.1358,3.1646,3.1239,3.0193,3.0467,3.0665,3.0788,3.0845,3.0968,3.0847,0.0,0.0,0.0,0.0,0.0,0.0,0.0,0.0,0.0,0.0,0.0,4.1588,4.1588,4.1588,4.1588,4.1588,4.1122,4.0401,3.9294,3.9282,3.8977,3.8126,3.87,0.0,3.6768,3.7284,3.7582,3.7582,3.8152,3.9644,4.2005,4.2575,4.347,4.4583,4.3986,4.3416,4.2749,4.0671,3.9745,3.9699,4.0074,4.0331,4.0667,4.3096,4.3588,4.2903,4.0929,3.9382,3.8022,3.6588,0.0,3.5364,3.5845,3.5998,3.5998,0.0,0.0,0.0,3.9062,4.0636,4.2546,4.5588,4.7341,4.8554,4.9791,4.9584,4.9123,4.9531,4.8785,4.7971,4.7622,4.7783,4.8016,4.7809,4.6928,4.6187,4.6536,4.6616,4.6886,4.7553,4.7633,4.7776,4.8077,4.6423,4.5249,4.5234,4.1864,3.9687,3.9457,3.7776,3.6808,3.6563,3.6563,3.6563,3.6563,3.5333,3.4099,3.2613,3.2635,3.2255,3.0977,3.1169,3.0644,2.9847,3.1119,3.0871,2.9626,3.0266,3.0174,3.0221,3.0618,3.0788,3.0817,3.1015,3.1119,3.0847,0.0,0.0,0.0,0.0,0.0,0.0,0.0,0.0,0.0,0.0,0.0,0.0,0.0,4.1588,4.1456,4.1122,4.0547,3.992,3.9162,3.89,3.8514,3.7957,3.82,3.8032,3.7202,3.7419,3.7528,3.7528,3.7745,3.9074,4.1462,4.2032,4.2955,4.4094,4.3877,4.3336,4.2598,4.0893,3.9626,3.9093,4.1492,4.3044,4.4055,4.5455,4.6211,4.6542,0.0,0.0,0.0,0.0,0.0,0.0,0.0,3.602,3.4971,3.4666,3.5364,3.6643,3.8551,3.9846,4.1213,4.3977,4.5659,4.6775,4.7539,4.8089,4.8435,4.8429,4.7652,4.6756,4.6835,4.7231,4.7338,4.6639,4.6269,4.6171,4.6536,4.6568,4.6838,4.7505,4.6401,4.5804,4.6155,4.4519,4.2813,4.1623,4.0172,3.897,3.7776,3.7054,3.6563,3.6563,3.6563,3.6305,3.5322,3.4817,3.3583,3.135,3.135,3.0654,2.9491,2.955,2.9452,2.9172,2.9817,3.0019,2.9796,3.0051,3.025,3.0391,3.0543,3.0769,3.0706,2.9295,2.8795,2.8354,0.0,0.0,0.0,0.0,0.0,0.0,0.0,0.0,0.0,4.1588,0.0,0.0,0.0,0.0,4.1574,4.0578,3.999,3.9421,3.8797,3.8575,3.8149,3.7648,3.8059,3.8007,3.7229,3.7609,3.7718,3.7528,3.7718,3.8857,4.0838,4.1625,4.2629,4.3769,4.3579,4.3175,4.2625,4.0893,3.9626,3.9168,4.2329,4.389,4.4619,4.7091,4.7932,4.7889,0.0,0.0,0.0,0.0,0.0,0.0,0.0,0.0,3.4185,3.3704,3.4469,3.5758,3.7046,3.8252,3.9794,4.2292,4.3616,4.4638,4.6461,4.6762,4.6871,4.7275,4.6232,4.5493,4.5981,4.6274,4.6361,4.5964,4.6123,4.6298,4.6536,4.6568,4.6609,4.6573,4.5356,4.449,4.4206,4.2573,4.0899,3.9713,3.897,3.8008,3.6563,3.6563,3.6317,3.5814,3.5814,3.5052,3.3346,3.3346,3.2096,2.9855,2.9855,2.9356,2.8624,2.8766,2.8917,2.9068,2.9342,2.9569,2.9796,3.007,3.025,3.0391,2.974,2.9627,2.953,2.7274,2.6509,2.6068,0.0,0.0,0.0,0.0,0.0,0.0,0.0,0.0,4.1652,4.1652,0.0,0.0,0.0,0.0,0.0,4.0112,3.9439,3.8856,3.8231,3.8202,3.7825,3.7056,3.8106,3.8089,3.6715,3.7799,3.8125,3.7555,3.8125,3.902,4.0187,4.1381,4.2575,4.366,4.309,4.2846,4.2695,4.0546,3.9745,3.9854,4.2616,4.2832,4.216,4.8096,4.8724,4.6534,4.8209,4.7658,0.0,0.0,0.0,0.0,0.0,0.0,0.0,3.3158,3.3704,3.4491,0.0,0.0,0.0,4.0584,4.1338,4.244,4.6516,4.5519,4.4357,4.5801,4.4906,4.4042,4.4804,4.4979,4.5186,4.5901,4.6298,4.6568,4.6568,4.6568,4.6102,4.4871,4.4427,4.3563,4.2234,4.0374,3.9444,3.9444,3.7738,3.6563,3.6563,3.6551,3.5814,3.4582,3.4571,3.3346,3.0603,3.0603,2.9855,2.8624,2.8624,2.8624,2.8643,2.904,2.9238,2.9267,2.9673,2.9749,2.9616,2.9994,3.0165,2.9938,2.8184,2.7402,2.7006,2.5008,2.4254,2.3974,0.0,0.0,0.0,0.0,0.0,4.3137,4.3137,4.3137,4.3137,0.0,0.0,0.0,0.0,0.0,0.0,4.218,4.0753,3.9547,3.8957,3.8189,3.7701,3.7471,3.7997,3.809,3.7648,3.8188,3.8342,3.8179,3.8342,3.8803,3.9563,4.0323,4.111,4.1842,4.1679,4.1315,4.0718,4.0011,3.9397,3.9404,4.3378,4.6035,4.7964,5.1741,5.3504,0.0,0.0,5.3609,0.0,0.0,4.8382,4.3184,0.0,0.0,0.0,0.0,3.27,3.3464,3.3464,0.0,0.0,0.0,0.0,0.0,4.1254,4.1399,4.1637,4.314,4.295,4.2863,4.4369,4.4614,4.4757,4.5202,4.5774,4.6171,4.6171,4.6171,4.5663,4.4225,4.2789,4.1226,3.976,3.7885,3.672,3.672,3.6407,3.6261,3.6261,3.5486,3.4571,3.3088,3.3088,3.2333,3.0603,3.0603,2.9855,2.8624,2.8624,2.8624,2.8624,2.8898,2.9097,2.9267,2.9541,2.8912,2.7679,2.9386,2.9252,2.7775,2.721,2.6247,2.4823,2.2444,2.1658,2.1394,0.0,0.0,4.4591,4.4211,4.4148,4.4243,4.4559,4.4338,4.4148,0.0,0.0,0.0,0.0,0.0,0.0,4.3092,4.1252,3.9828,3.9247,3.8351,3.7787,3.7763,3.8137,3.8367,3.8194,3.8564,3.8667,3.8423,3.8423,3.8586,3.8939,3.9536,3.9997,4.0377,4.0345,3.9867,3.9112,3.8579,3.8782,3.9738,4.3171,0.0,0.0,5.1555,5.3224,0.0,0.0,0.0,5.3474,5.4731,5.0645,0.0,0.0,0.0,0.0,0.0,0.0,3.3071,3.3071,3.3704,3.4658,3.5765,0.0,0.0,3.9798,4.0226,4.0876,4.3033,4.2775,4.2473,4.3332,4.312,4.3041,4.3947,4.4455,4.5011,4.5901,4.6171,4.5467,4.2963,4.1715,3.9903,3.7644,3.6474,3.5778,3.5778,3.544,3.5027,3.4519,3.3938,3.2825,3.1711,3.1711,3.0999,2.9845,2.9875,2.9375,2.8624,2.8624,2.8671,2.8766,2.8974,2.9191,2.939,2.8551,2.7662,2.6691,2.6954,2.6487,2.5521,2.4423,2.3443,2.2208,2.013,1.9345,1.9087,0.0,0.0,4.4875,4.4938,4.5001,4.5317,4.6044,4.5602,4.5191,0.0,4.5855,4.6476,4.7202,0.0,0.0,0.0,4.1588,4.0118,3.945,3.8725,3.817,3.7957,3.8524,3.8727,3.8483,3.8993,3.9047,3.8505,3.8505,3.8505,3.8532,3.9047,3.9264,3.906,3.899,3.846,3.7585,3.7064,3.8167,4.0583,4.2574,4.3563,0.0,0.0,5.1121,5.0472,5.5881,5.6203,5.4323,5.5956,5.1532,0.0,0.0,0.0,0.0,0.0,3.2637,3.3333,3.3136,0.0,0.0,3.5402,3.5039,0.0,3.9938,4.0177,4.0276,4.3324,4.2679,4.1588,4.1819,4.0777,4.0276,4.1818,4.2358,4.3311,4.5408,4.5948,4.4902,4.1482,4.0792,3.9192,3.6124,3.5682,3.567,3.5454,3.4253,3.3059,3.1881,3.166,3.1269,2.9993,2.9993,2.9618,2.8596,2.8596,2.8596,2.8624,2.8624,2.8747,2.8946,2.9144,2.9371,2.9588,2.7409,2.6683,2.6166,2.4051,2.3259,2.3009,2.129,2.0196,1.9835,1.811,1.7342,1.7342,4.4527,4.5096,4.576,4.6297,4.6866,4.7498,4.8193,4.8162,4.8256,4.8825,4.9015,4.9347,4.9999,4.8591,0.0,0.0,0.0,4.1947,4.0815,3.9654,3.8813,3.8382,3.8686,3.8811,3.8886,3.9169,3.9237,3.9129,3.9129,3.9129,3.9129,3.9237,3.8782,3.7794,3.8198,3.7376,3.5837,3.6848,3.8527,4.0594,4.3425,4.6766,5.0657,5.4409,5.6692,5.8247,5.9392,5.9501,5.8366,0.0,4.925,4.4701,0.0,0.0,0.0,0.0,0.0,0.0,0.0,0.0,0.0,0.0,0.0,0.0,3.4352,3.4886,3.5647,3.7095,3.6884,3.671,3.7691,3.7177,3.6606,3.6956,3.9132,4.1436,4.3232,4.3549,4.2419,3.9011,3.8556,3.77,3.5476,3.5126,3.4643,3.3685,3.269,3.1457,3.0403,3.0423,2.9722,2.8538,2.8538,2.8408,2.8369,2.8369,2.8473,2.8624,2.8624,2.8747,2.8946,2.9144,2.9371,2.9588,2.7409,2.564,2.4043,2.193,2.0884,2.0878,2.0652,1.9322,1.7735,1.7589,1.7299,1.7244,4.5254,4.557,4.6234,4.7593,4.813,4.8857,5.0247,5.0153,5.0058,5.0405,5.0398,5.0414,5.0421,4.9205,0.0,0.0,0.0,0.0,4.1657,4.0169,3.9247,3.913,3.8949,3.9003,3.918,3.9217,3.9292,3.9292,3.9292,3.9156,3.8857,3.8801,3.8568,3.823,3.7407,3.6784,3.6227,3.6922,3.8301,4.031,4.3575,0.0,5.1278,5.507,5.7361,5.8781,5.9982,5.9417,5.7214,5.1935,4.7829,0.0,0.0,4.0883,3.9114,0.0,3.567,3.5244,0.0,0.0,0.0,3.2806,0.0,0.0,0.0,3.4391,3.4851,3.6604,3.5906,3.5139,3.5248,3.4465,3.3774,3.4023,3.6066,3.7798,3.8147,4.0825,4.1806,3.9321,3.8345,3.6953,3.5131,3.45,3.3299,3.1419,3.0823,2.9981,2.8879,2.8657,2.8444,2.7849,2.7849,2.7953,2.8152,2.8171,2.8275,2.8473,2.8568,2.8794,2.9097,2.9324,2.8996,2.8131,2.6116,2.378,2.1665,1.9563,1.8766,1.8766,1.8766,1.8245,1.719,1.7261,1.7234,1.7217,4.5823,4.5823,4.636,4.8162,4.8699,4.9489,5.1322,5.1259,5.1037,5.097,5.1318,5.1426,5.108,5.0125,0.0,0.0,0.0,0.0,0.0,4.1053,4.0152,4.0096,3.9421,3.9267,3.9807,3.9481,3.9292,3.9292,3.9183,3.8884,3.8423,3.8265,3.8318,3.8405,3.7265,3.684,3.7012,3.7426,3.8798,4.108,4.4503,4.7069,4.9585,5.4325,5.6116,5.6465,5.879,5.7583,5.4445,5.047,0.0,4.475,4.4366,4.2382,0.0,0.0,0.0,0.0,0.0,0.0,0.0,0.0,0.0,3.2313,0.0,0.0,0.0,3.607,3.5237,3.3737,3.2535,3.1313,3.0508,3.1006,3.2745,3.3762,3.2984,3.744,4.0179,3.8523,3.7631,3.6402,3.4463,3.2885,3.1234,2.9507,2.89,2.8386,2.7377,2.7377,2.7452,2.7623,2.7623,2.7726,2.7953,2.7953,2.8076,2.8322,2.852,2.8842,2.9248,2.8949,2.8095,2.6683,2.4043,2.1937,2.0347,1.7979,1.719,1.719,1.719,1.719,1.719,1.719,1.7201,1.7234,4.5823,4.5823,4.6076,4.6898,4.8067,4.9173,5.0026,5.0627,5.0951,5.0963,5.2498,5.3924,5.4684,5.2836,0.0,0.0,0.0,0.0,4.4265,0.0,4.244,4.1515,3.9913,3.9843,4.1652,4.0133,3.9292,3.9292,3.8776,3.8477,3.8423,3.839,3.744,3.5916,3.8417,3.8461,3.6983,3.9147,4.2176,4.5644,4.816,4.8388,0.0,5.38,5.5067,5.3931,5.6272,5.5236,5.2393,0.0,4.7945,4.6206,0.0,4.2897,4.3291,3.8391,0.0,0.0,0.0,0.0,0.0,0.0,3.2559,0.0,0.0,0.0,3.1912,3.0325,0.0,2.8636,2.7539,0.0,0.0,2.6327,2.8662,3.0473,3.0648,3.2358,3.3129,3.2354,3.4333,3.4599,3.1814,2.9732,2.8892,2.9238,2.762,2.6825,2.733,2.7377,2.7377,2.7405,2.7405,2.7528,2.7726,2.7726,2.7925,2.8322,2.852,2.8842,2.9238,2.7389,2.6783,2.642,2.2466,2.0619,2.0347,1.7979,1.719,1.719,1.719,1.719,1.719,1.719,1.7261,1.7359,4.5823,4.5823,4.6171,4.7245,4.7909,4.8825,5.0311,5.1796,5.2618,5.2213,5.2883,5.3512,5.3756,0.0,0.0,0.0,0.0,0.0,0.0,0.0,0.0,4.5889,4.1534,4.0395,4.2982,4.0241,3.8966,3.9292,3.8369,3.7908,3.7908,3.7334,3.6867,3.6578,3.9141,4.0036,3.9814,4.2343,4.3373,4.3705,4.6146,4.6107,0.0,5.3189,5.5224,5.4026,5.439,5.3919,5.2608,0.0,4.8064,0.0,0.0,0.0,0.0,0.0,0.0,0.0,0.0,0.0,0.0,0.0,0.0,0.0,3.1203,0.0,3.0714,0.0,0.0,0.0,0.0,0.0,0.0,0.0,2.6565,2.7836,2.7359,2.9105,3.0816,3.1793,3.1869,3.1284,2.9446,2.8346,2.7523,2.7102,2.5748,2.5458,2.6432,2.7056,2.7377,2.7377,2.7377,2.7424,2.75,2.75,2.7726,2.8152,2.835,2.7909,2.7258,2.6544,2.5151,2.2856,2.1116,1.957,1.8506,1.7446,1.719,1.7185,1.6384,1.6389,1.719,1.719,1.7217,1.7272,4.5823,4.5823,4.6139,4.715,4.7656,4.8604,5.0658,5.2428,5.3224,5.2537,5.2734,5.3174,5.3963,5.1908,0.0,0.0,0.0,5.3832,0.0,0.0,4.8791,5.0308,4.3902,0.0,0.0,4.1233,3.9429,3.9292,3.8288,3.7601,3.7429,3.6661,3.6307,3.6589,3.8911,4.0672,4.21,4.4604,4.5499,4.5391,4.6701,4.6391,4.5911,5.2196,5.409,5.332,5.2812,5.2474,5.1706,5.0457,4.7729,0.0,4.8042,0.0,0.0,0.0,0.0,0.0,3.495,0.0,0.0,0.0,0.0,0.0,0.0,0.0,0.0,0.0,0.0,0.0,0.0,0.0,0.0,0.0,0.0,2.558,2.479,2.6451,2.8426,3.0181,2.8824,2.7683,2.7273,2.6105,2.5272,2.4814,2.3965,2.4154,2.5657,2.6507,2.7056,2.7282,2.7348,2.7405,2.7481,2.7481,2.7679,2.8095,2.7798,2.7074,2.5871,2.4902,2.2979,2.0147,1.9722,1.847,1.6656,1.6656,1.6384,1.5845,1.4771,1.5053,1.6163,1.6163,1.6178,1.596,4.5823,4.5823,4.5823,4.5855,4.6992,4.8604,5.0658,5.1606,5.18,5.1058,5.2123,0.0,0.0,0.0,0.0,0.0,0.0,5.7085,5.7011,0.0,5.1842,0.0,0.0,0.0,0.0,4.3834,4.1179,3.9292,3.8695,3.8021,3.7316,3.6727,3.5755,3.4485,3.7372,4.0114,4.2571,4.5024,4.917,5.4237,5.269,5.1507,5.0661,0.0,5.0936,5.087,5.1521,0.0,0.0,4.8034,4.6878,0.0,0.0,0.0,0.0,0.0,0.0,0.0,0.0,0.0,0.0,3.3635,0.0,0.0,0.0,0.0,3.0518,0.0,0.0,0.0,0.0,0.0,0.0,0.0,0.0,0.0,0.0,2.3676,2.4159,2.5153,2.4117,2.3925,2.5203,2.2288,2.0962,2.2661,2.2028,2.2718,2.5383,2.5751,2.6252,2.7056,2.7282,2.7481,2.7698,2.7698,2.7897,2.8322,2.6502,2.5677,2.5863,2.1925,2.0279,2.0147,1.8055,1.628,1.5043,1.5043,1.4241,1.2899,1.2899,1.2952,1.3025,1.3025,1.3086,1.3446,4.6455,4.6455,4.6329,4.5886,4.6202,4.7372,4.99,5.1602,5.3186,0.0,0.0,0.0,0.0,0.0,5.9506,0.0,0.0,6.2067,6.2438,5.8178,0.0,0.0,0.0,4.6533,0.0,0.0,4.1002,3.9888,3.8505,3.7584,3.7253,3.6302,3.5084,3.3958,3.8,4.1343,4.4101,4.7051,4.9243,5.074,4.9456,4.8426,4.8096,0.0,5.0934,4.9625,5.0673,5.055,0.0,4.9846,4.8159,4.6516,4.7004,4.4672,4.1856,4.2285,4.1515,4.0357,0.0,0.0,3.9132,3.56,0.0,0.0,0.0,0.0,0.0,0.0,0.0,0.0,0.0,0.0,0.0,0.0,0.0,0.0,0.0,2.2751,2.2423,2.2031,2.2644,2.3011,2.2472,2.1243,2.0574,2.113,2.1272,2.2274,2.4561,2.5402,2.6281,2.7254,2.7481,2.7623,2.7698,2.7821,2.8048,2.8322,2.6388,2.4754,2.3659,2.102,1.9049,1.7801,1.6314,1.5366,1.4929,1.3867,1.3413,1.2988,1.191,1.1684,1.1749,1.2779,1.3095,1.2903,4.7182,4.6992,4.6645,4.6234,4.6582,4.8004,5.1096,5.3113,5.4835,0.0,5.7173,0.0,6.0739,0.0,6.1623,0.0,6.5063,6.4581,6.5124,6.0763,0.0,6.0309,5.2495,0.0,0.0,0.0,4.2809,4.1267,3.9096,3.7748,3.6884,3.5475,3.415,3.3221,3.6521,4.014,4.3774,4.6526,4.8499,4.9807,4.838,4.73,0.0,0.0,4.955,4.8204,0.0,4.99,4.9514,4.9835,4.8236,4.6457,4.7442,4.5107,4.2362,4.3337,4.2437,4.1018,4.0512,4.095,0.0,3.7644,3.6962,0.0,3.2918,0.0,0.0,0.0,0.0,0.0,0.0,0.0,0.0,0.0,0.0,0.0,0.0,2.1955,2.1264,2.0082,2.0775,2.1035,1.9998,1.8997,1.8866,1.9921,2.0006,2.1178,2.4003,2.4863,2.5884,2.7226,2.7481,2.7651,2.7802,2.7925,2.7659,2.7412,2.4898,2.2687,2.0766,1.8315,1.6334,1.509,1.4383,1.3686,1.3251,1.2523,1.1805,1.1377,1.0345,1.0136,1.0193,1.1236,1.1541,1.1624,4.7877,4.734,4.6929,4.6992,4.8162,5.0389,5.4047,0.0,5.6492,0.0,5.8494,6.0018,6.0028,6.0144,6.2014,6.6589,6.5477,0.0,6.5139,6.0959,0.0,0.0,5.4231,5.1278,5.226,0.0,0.0,0.0,4.0464,3.8133,3.6263,3.4483,3.3201,3.2488,3.3351,3.6741,4.176,4.3531,4.7199,5.1607,4.9589,4.8117,4.7177,4.7498,4.704,4.6464,4.8685,4.8469,4.7424,4.8202,4.7198,4.5596,4.5629,4.4774,4.3915,4.3931,4.3931,4.3645,4.231,4.1944,4.1564,3.9804,3.8937,0.0,0.0,0.0,3.5797,0.0,0.0,0.0,0.0,0.0,0.0,0.0,0.0,0.0,0.0,0.0,2.0615,1.9319,1.8551,1.8001,1.7819,1.5734,1.5763,1.8947,1.8324,1.9571,2.3672,2.4069,2.5033,2.6952,2.7197,2.75,2.7897,2.7915,2.69,2.5257,2.1989,1.9477,1.7199,1.3898,1.2413,1.2486,1.2486,1.1758,1.0544,1.0683,0.995,0.863,0.8747,0.8831,0.8888,0.8888,0.8924,0.8973,4.7403,4.7751,4.8667,4.971,5.0907,5.209,0.0,0.0,0.0,0.0,5.9585,6.1319,6.3537,6.5091,6.6305,6.7539,6.7241,0.0,0.0,0.0,0.0,6.0482,5.5913,5.3199,5.2821,4.8868,0.0,4.3497,3.9928,3.7484,3.5881,3.4346,3.3201,3.2488,3.3351,3.6741,4.1808,4.3042,4.612,4.9894,4.88,4.7704,4.6663,0.0,4.6856,4.5531,4.841,4.8817,4.7773,4.8165,4.6854,4.492,4.5464,4.4612,4.3597,4.3851,4.3931,4.3851,4.3502,4.3332,4.2933,4.1118,4.0312,3.9318,0.0,0.0,0.0,0.0,0.0,0.0,0.0,0.0,0.0,0.0,0.0,0.0,0.0,0.0,0.0,1.6868,0.0,1.7085,1.6269,1.635,1.6745,1.7605,1.8286,1.9873,2.2661,2.285,2.388,2.6082,2.5183,2.4881,2.4969,2.5253,2.4001,2.0962,2.0665,1.8969,1.5924,1.3377,1.2372,1.2392,1.1363,1.0674,1.0534,0.9522,0.882,0.8684,0.8763,0.8853,0.8951,0.8951,0.8957,0.8973,4.8794,4.9773,5.0974,5.1764,5.3315,0.0,5.5516,5.6882,0.0,6.0131,6.1623,0.0,6.3903,6.6345,6.7892,6.7584,6.6912,0.0,0.0,0.0,0.0,5.8308,5.5832,5.4175,5.376,5.0732,0.0,4.4606,0.0,3.7919,3.5145,3.3467,3.2521,3.2082,3.3024,3.5605,3.9427,4.2202,4.4893,4.6992,4.7431,4.7269,0.0,4.6882,4.6416,4.5688,4.7093,4.7049,4.6217,4.6613,4.5449,4.4256,4.4612,4.4232,4.3676,4.3883,4.3931,4.3931,4.3931,4.3931,4.3692,4.2707,4.2115,4.1489,3.9633,3.8901,3.8445,0.0,3.6419,0.0,0.0,0.0,0.0,0.0,0.0,0.0,0.0,0.0,0.0,0.0,1.606,0.0,0.0,0.0,1.701,1.7095,1.7842,1.9495,2.2255,2.1468,2.2048,2.4822,2.4033,2.3223,2.232,2.329,2.1742,1.7982,1.756,1.5908,1.3116,1.1325,1.0583,1.0611,0.9837,0.9381,0.9492,0.8756,0.8572,0.867,0.8755,0.8831,0.8894,0.8894,0.8924,0.8973,5.1132,5.227,5.3123,5.3218,5.5068,0.0,0.0,6.0266,0.0,6.1753,0.0,6.4609,6.3062,6.5884,6.7738,6.7303,0.0,6.3642,6.1553,5.9233,5.7245,5.5426,5.4973,5.4652,5.4652,5.3176,0.0,0.0,0.0,3.8551,3.4014,3.2272,3.152,3.1564,3.2481,3.4227,3.6738,4.1626,4.392,4.4547,4.6211,4.6925,4.6933,4.5969,4.5877,4.6075,4.5271,4.4514,4.4061,4.4391,4.3899,4.3406,4.3756,4.3867,4.3867,4.3931,4.3931,4.3931,4.3931,4.3931,4.3931,4.3931,4.3931,4.3613,4.2389,4.2119,4.2119,4.2119,3.9494,3.757,0.0,0.0,0.0,0.0,0.0,0.0,0.0,0.0,0.0,0.0,0.0,0.0,0.0,0.0,1.6698,1.6702,1.688,1.8207,2.1345,1.9549,1.9698,2.2822,2.2444,2.1301,1.9521,2.0855,1.9501,1.5336,1.4072,1.2079,1.0048,0.8763,0.8286,0.8341,0.8341,0.8384,0.8455,0.8559,0.8616,0.8635,0.8747,0.8796,0.8804,0.8809,0.8603,0.869,5.2712,5.2934,5.3281,5.3818,5.5871,5.8128,6.0325,6.0745,6.1249,6.2288,6.402,6.507,6.4771,6.6315,6.743,6.7303,6.5292,0.0,0.0,0.0,0.0,5.5956,5.5202,5.4652,5.4652,5.2697,4.9333,0.0,4.1655,3.7564,3.2745,3.1534,3.1018,3.104,3.1629,3.4444,3.9117,4.2361,4.4927,4.6555,4.7567,4.7589,4.6664,4.6466,4.5448,4.4076,4.3873,4.3902,4.4028,4.4094,4.3526,4.3041,4.339,4.3502,4.3565,4.3851,4.3931,4.3931,4.3931,4.3931,4.3931,4.3931,4.3931,4.3867,4.3629,4.3565,4.3565,4.3565,4.1999,4.0138,3.9345,0.0,0.0,0.0,0.0,0.0,0.0,0.0,0.0,0.0,0.0,0.0,0.0,0.0,1.544,1.4472,1.4353,1.4931,1.6301,1.6089,1.6853,1.887,1.738,1.6143,1.5747,1.5722,1.3803,1.0401,1.2258,1.1574,0.8769,0.8508,0.8286,0.8341,0.8341,0.8406,0.851,0.8532,0.8594,0.8692,0.8763,0.8818,0.8875,0.8924,0.7834,0.6444,5.4166,5.4451,5.4757,5.4976,5.699,5.9203,0.0,6.2131,6.2996,6.3767,6.4517,6.491,6.491,6.6227,6.6498,6.5318,6.3483,6.1499,5.9667,5.7504,5.5991,5.5335,5.5005,0.0,5.4652,5.3549,5.0202,4.4211,4.2392,3.8331,3.1979,3.1236,3.0887,3.1018,3.3125,3.5707,3.8526,4.2715,4.4712,4.5298,4.6785,4.6876,4.5875,4.5271,4.4464,4.35,4.3084,4.317,4.3462,4.3462,4.3286,4.3216,4.3565,4.3676,4.3724,4.3883,4.3931,4.3931,4.3931,4.3931,4.3931,4.3931,4.3931,4.3931,4.3931,4.3931,4.3715,4.2836,4.1955,4.0157,3.6607,3.1221,0.0,0.0,0.0,0.0,0.0,0.0,0.0,0.0,0.0,0.0,0.0,0.0,1.4629,1.4431,1.397,1.4583,1.6584,1.4518,1.5002,1.8806,1.6131,1.4903,1.5465,1.4124,1.2157,0.9647,1.0473,0.984,0.83,0.8327,0.8376,0.8433,0.8433,0.8504,0.8616,0.8649,0.8679,0.8706,0.8769,0.7982,0.7177,0.72,0.5821,0.416,5.6608,5.6994,5.7368,5.7455,5.8778,6.0474,6.1987,6.3657,6.4897,6.5572,6.5328,6.5028,6.5028,6.5983,6.5687,6.3508,6.1689,5.9691,5.7481,5.5753,5.4805,5.4805,5.4914,5.4958,5.4958,5.4958,5.1769,0.0,0.0,3.9777,3.2984,3.1979,3.1793,3.2534,3.5707,3.7733,3.8833,4.3093,4.4554,4.4389,4.6003,4.5927,4.4785,4.399,4.3428,4.3321,4.2805,4.2707,4.2993,4.2993,4.3232,4.3565,4.3756,4.3867,4.3931,4.3931,4.3931,4.3931,4.3931,4.3931,4.3931,4.3931,4.3715,4.3284,4.3284,4.3052,4.2403,4.107,4.0402,3.8483,3.3346,2.9738,0.0,0.0,0.0,0.0,0.0,0.0,0.0,0.0,0.0,0.0,0.0,0.0,1.3265,1.4228,1.3436,1.4205,1.6925,1.3295,1.3265,1.8246,1.4928,1.3377,1.4262,1.2511,1.0816,0.9668,0.8782,0.8341,0.8341,0.8406,0.8469,0.8523,0.8537,0.8608,0.872,0.8769,0.8487,0.7906,0.7965,0.6603,0.4678,0.4687,0.331,0.1657,6.1395,6.1322,6.1176,6.2393,6.2006,6.2071,6.3468,6.4137,6.5205,6.6819,6.6725,6.6441,6.6441,6.6262,6.5371,6.3508,6.1334,5.933,5.7481,5.6087,5.5308,5.5308,5.5744,5.5985,5.5985,5.5985,5.391,0.0,0.0,4.1634,3.744,3.4775,3.4911,3.7384,3.8829,4.0861,0.0,4.4097,4.515,4.6519,4.6569,4.568,4.4168,4.3962,4.3539,4.2996,4.2818,4.3057,4.3359,4.3359,4.3597,4.3835,4.3549,4.3676,4.3931,4.3931,4.3931,4.3931,4.3931,4.3931,4.3931,4.3931,4.262,4.152,4.152,4.0431,3.9089,3.8884,3.7563,3.5171,3.113,2.9157,2.6916,0.0,0.0,0.0,0.0,0.0,0.0,0.0,0.0,0.0,0.0,1.2042,1.0285,1.1959,1.1016,1.1382,1.3873,1.0936,1.0832,1.4152,1.0243,0.8365,0.8782,0.8356,0.8195,0.8244,0.8232,0.8341,0.8341,0.8406,0.8469,0.8523,0.8581,0.867,0.8782,0.879,0.7688,0.5768,0.5804,0.4435,0.2496,0.2512,0.1119,-0.084,6.3973,6.3607,6.3083,6.2964,6.2988,6.3306,6.4198,6.4867,6.5834,6.6897,6.6581,6.6212,6.6212,6.4868,6.3346,6.1499,5.9499,5.7653,5.5816,5.5445,5.5395,5.5395,5.5854,5.6116,5.6116,5.6116,5.4215,0.0,0.0,0.0,3.9799,3.7178,3.7207,3.9491,4.1499,4.2863,4.3865,4.5147,4.5718,4.5691,4.5327,4.429,4.3028,4.3221,4.3174,4.2914,4.312,4.3295,4.3438,4.3661,4.3819,4.3915,4.3772,4.3819,4.3931,4.3931,4.3931,4.3931,4.3931,4.3931,4.3715,4.262,4.1738,4.1085,3.998,3.9104,3.8431,3.7329,3.5113,3.2785,3.1275,2.8869,2.669,2.4971,0.0,0.0,0.0,0.0,0.0,0.0,0.0,0.0,0.0,0.0,1.0717,1.2353,0.9808,0.9098,1.1115,0.9307,0.9748,1.2777,0.974,0.9176,1.1514,0.8717,0.7882,0.8845,0.848,0.8398,0.8398,0.8496,0.8572,0.863,0.8692,0.8747,0.8796,0.8867,0.749,0.5532,0.5567,0.3349,0.0279,0.028,-0.1121,-0.3085,6.643,6.5725,6.4862,6.4843,6.4664,6.4709,6.5028,6.5679,6.645,6.6687,6.6024,6.5496,6.5313,6.395,6.2027,5.9354,5.7995,5.649,5.4829,5.5242,5.5592,5.5592,5.6203,0.0,5.6531,5.6531,5.5176,5.2446,4.8449,0.0,4.3408,4.072,4.0468,4.2441,4.4318,4.4894,4.46,4.602,4.5944,4.465,4.4118,4.3523,4.2707,4.2946,4.3104,4.3232,4.347,4.3565,4.3597,4.3851,4.3931,4.3931,4.3931,4.3931,4.3931,4.3931,4.3931,4.3931,4.3931,4.35,4.2836,4.152,4.0416,3.9309,3.8225,3.755,3.6693,3.5113,3.314,3.1364,3.0687,2.8533,2.6761,2.5599,0.0,0.0,0.0,0.0,0.0,0.0,0.0,0.0,1.8764,1.3315,1.0542,1.2621,0.9137,0.7887,1.0129,0.8313,0.8705,1.1807,0.9052,0.8725,1.1681,0.886,0.7789,0.8885,0.8517,0.8439,0.8461,0.8567,0.8657,0.8728,0.8769,0.8535,0.7743,0.8096,0.6149,0.362,0.3637,0.1402,-0.1963,-0.1963,-0.3085,-0.4488,6.9021,6.7862,6.7168,6.918,6.7936,6.6472,6.6002,6.6503,6.674,6.6286,6.5236,6.4153,6.3601,6.355,6.1949,5.7699,5.7309,5.649,5.4829,5.557,5.6116,0.0,0.0,5.7514,5.7514,5.7514,5.7492,5.7426,0.0,0.0,4.9383,4.5875,4.5156,4.6972,4.7469,4.7264,4.6623,4.6658,4.5697,4.4012,4.4012,4.3816,4.339,4.3406,4.3613,4.3931,4.3931,4.3931,4.3931,4.3931,4.3931,4.3931,4.3931,4.3931,4.3931,4.3931,4.3931,4.3931,4.3931,4.262,4.1303,4.1303,3.865,3.6015,3.6015,3.4693,3.3152,3.1804,3.159,3.0902,2.8409,2.7944,2.6833,2.386,0.0,0.0,0.0,0.0,0.0,0.0,1.524,1.5584,1.8159,1.2011,0.8878,1.1846,0.9068,0.8371,1.1188,0.0,0.0,1.0638,0.7313,0.0,0.6635,0.6886,0.7455,0.8335,0.8398,0.8469,0.8523,0.8586,0.8679,0.879,0.879,0.7472,0.5606,0.5606,0.3082,-0.1121,-0.1121,-0.2523,-0.4488,-0.4488,-0.4488,-0.4491,6.9536,6.8825,6.7981,6.7756,6.7131,6.6794,6.6635,6.679,6.664,6.5658,6.5168,6.3962,6.1732,6.0766,5.9632,0.0,5.6997,5.6198,0.0,5.605,5.6574,5.6574,5.7186,5.7514,5.7514,5.7863,5.8038,5.8038,0.0,0.0,4.7834,4.7072,4.7434,4.9014,4.7702,4.6986,4.6676,4.507,4.4277,4.4045,4.3445,4.3414,4.3438,4.3676,4.3835,4.3931,4.3931,4.3931,4.3931,4.3931,4.3931,4.3931,4.3931,4.3931,4.3931,4.3931,4.3052,4.2171,4.2171,4.0853,3.9323,3.7977,3.6901,3.5793,3.4482,3.3152,3.2017,3.159,3.0224,2.8843,2.7954,2.7271,2.6154,2.44,2.4835,0.0,0.0,0.0,0.0,0.0,0.0,1.7695,0.0,1.405,0.0,1.2318,0.8477,0.6327,0.7172,0.6796,0.0,0.0,0.7387,0.0,0.7488,0.7488,0.7777,0.8341,0.8447,0.8523,0.8586,0.8643,0.7901,0.6593,0.6624,0.528,0.3362,0.3362,0.1681,-0.112,-0.1115,-0.2506,-0.4456,-0.4456,-0.4456,-0.4459,6.8777,6.8089,6.7476,6.6655,6.653,6.6661,6.645,6.697,6.6805,6.505,6.4552,6.3366,6.0701,5.9114,0.0,5.794,5.7171,5.6509,5.6203,5.6924,5.7273,5.7077,5.771,5.7994,5.782,5.8278,0.0,5.854,5.4171,5.0945,4.862,4.8215,4.8282,4.8666,4.7365,4.6276,4.549,4.4227,4.3674,4.3621,4.314,4.3295,4.3629,4.3851,4.3931,4.3931,4.3931,4.3931,4.3931,4.3931,4.3931,4.3931,4.3931,4.3931,4.3931,4.3931,4.262,4.1303,4.1303,3.9542,3.7343,3.6236,3.557,3.468,3.3152,3.2254,3.1364,3.0439,2.908,2.7707,2.7271,2.6596,2.5931,2.5279,2.5477,2.4926,2.2894,0.0,0.0,0.0,0.0,0.0,0.0,1.4346,1.2135,0.0,0.8619,0.597,0.6096,0.6224,0.6458,0.6818,0.7196,0.7523,0.779,0.7741,0.7938,0.8376,0.8504,0.805,0.7294,0.7324,0.6283,0.4135,0.4154,0.3062,0.084,0.084,-0.028,-0.2234,-0.2224,-0.3048,-0.4424,-0.4424,-0.4424,-0.4432,6.6966,6.6212,6.6028,6.6028,6.6212,6.6103,6.5528,6.6887,6.709,6.4505,6.3619,6.2517,6.0432,5.8647,5.7601,5.7623,0.0,0.0,5.7579,5.8016,5.8082,5.7601,5.8409,5.8693,5.83,5.8737,5.8999,5.8682,5.5674,5.3094,5.1141,4.951,4.8089,4.6711,4.6493,4.5271,4.3483,4.383,4.3572,4.2914,4.3247,4.3597,4.3931,4.3931,4.3931,4.3931,4.3931,4.3931,4.3931,4.3931,4.3931,4.3931,4.3931,4.3715,4.3715,4.3715,4.2403,4.107,4.107,3.8445,3.5806,3.5793,3.447,3.2928,3.1792,3.1364,3.0665,2.8409,2.7934,2.7479,2.6348,2.6129,2.6129,2.6101,2.578,2.4762,2.2413,2.3476,0.0,0.0,0.0,0.0,1.6631,1.3269,1.2002,0.0,0.9437,0.6795,0.7133,0.6591,0.6428,0.7063,0.709,0.7278,0.7679,0.7741,0.8,0.8189,0.8297,0.7294,0.5167,0.5167,0.3834,0.1941,0.1943,0.0836,-0.1402,-0.1402,-0.2513,-0.4441,-0.4439,-0.4421,-0.4397,-0.4397,-0.4397,-0.4403,6.6472,6.5871,6.5555,6.5555,6.5894,6.6233,6.6103,6.7174,6.6721,6.3252,6.2968,6.2124,5.9137,5.8479,5.8256,5.8584,5.83,5.8104,5.8104,5.8213,5.8235,5.8104,5.7951,5.7994,5.8278,5.8737,5.8149,5.6465,5.5302,5.3306,5.0216,4.8578,4.7445,4.7119,4.5207,4.4076,4.3467,4.2749,4.2533,4.2882,4.2977,4.3375,4.3931,4.3931,4.3931,4.3931,4.3931,4.3931,4.3931,4.3931,4.3931,4.3931,4.3931,4.3052,4.1955,4.1955,4.0635,3.9104,3.7563,3.5558,3.38,3.2904,3.1556,3.0676,3.0235,2.9544,2.8626,2.7954,2.7261,2.6348,2.6129,2.6129,2.6082,2.5931,2.5676,2.4477,2.1356,2.1635,2.1046,0.0,1.8135,1.8304,1.6344,1.4549,1.2557,0.0,0.0,0.6783,0.5088,0.6481,0.7537,0.788,0.7978,0.8068,0.8175,0.8278,0.7639,0.5937,0.6227,0.5167,0.2739,0.3013,0.1651,-0.0277,-0.0279,-0.168,-0.3646,-0.3646,-0.391,-0.4439,-0.4417,-0.4392,-0.4365,-0.4365,-0.4365,-0.4372,6.5845,6.5555,6.5371,6.5371,6.5867,6.6181,6.592,6.6158,6.531,6.2393,6.1628,6.0563,5.8237,5.7929,5.8125,5.8606,5.8628,5.8693,5.8912,5.8715,5.8606,5.8606,5.854,5.854,5.8606,5.8471,5.7269,5.4556,5.3691,5.2075,4.9277,4.7624,4.642,4.5635,4.4243,4.3263,4.2668,4.223,4.2405,4.2898,4.3057,4.3454,4.3931,4.3931,4.3931,4.3931,4.3931,4.3931,4.3931,4.3931,4.3931,4.3715,4.3052,4.1955,4.107,3.9309,3.8225,3.7329,3.6236,3.4693,3.3152,3.1804,3.0687,2.976,2.908,2.8409,2.7707,2.7261,2.6586,2.6129,2.6129,2.6129,2.6054,2.5855,2.4411,2.2726,2.0612,2.0038,1.9001,1.6816,1.7385,1.7066,1.4991,1.3322,1.1559,0.9509,0.7724,0.0,0.6122,0.6606,0.682,0.6961,0.7951,0.8357,0.8384,0.7414,0.6425,0.541,0.4327,0.2714,0.0547,0.0547,-0.0549,-0.2764,-0.2498,-0.3342,-0.4466,-0.4452,-0.4439,-0.4421,-0.439,-0.4361,-0.4334,-0.4334,-0.4334,-0.4341,6.5501,6.5449,6.5371,6.5371,6.5815,6.5972,6.5475,6.4751,6.3533,6.169,6.0276,5.9046,5.7546,5.7557,5.782,5.8256,5.8693,5.9152,5.9567,5.913,5.8868,5.8868,5.9261,5.9327,5.8977,5.8097,5.6352,5.3313,5.18,5.017,4.8224,4.6527,4.5119,4.3995,4.3428,4.2652,4.1865,4.2167,4.2501,4.2834,4.3136,4.347,4.3788,4.3835,4.3851,4.3867,4.3915,4.3899,4.3867,4.3915,4.3899,4.3437,4.1722,4.1085,4.0198,3.6887,3.5793,3.5335,3.5583,3.4234,3.2479,3.1364,3.0224,2.8853,2.7944,2.7727,2.7271,2.6348,2.6129,2.6129,2.6129,2.6101,2.5921,2.5041,2.2535,2.0221,1.9454,1.8332,1.7049,1.509,1.5401,1.526,1.3238,1.1236,0.987,0.963,0.7197,0.6236,0.7727,0.66,0.5792,0.5555,0.7375,0.8128,0.793,0.5855,0.482,0.4309,0.2694,0.0541,-0.1634,-0.1633,-0.2729,-0.4401,-0.4401,-0.441,-0.4428,-0.4407,-0.4392,-0.4383,-0.4361,-0.4337,-0.4309,-0.4309,-0.4578,-0.4849,6.605,6.5737,6.5371,6.5371,6.5475,6.5501,6.5397,6.4444,6.2987,6.1135,6.0066,5.8909,5.7086,5.7667,5.8191,5.8278,5.8693,5.8999,5.9065,5.865,5.8387,5.8387,5.8453,5.865,5.8955,5.7445,5.5689,5.3683,5.0847,4.8639,4.6974,4.522,4.4251,4.3979,4.2609,4.2038,4.1849,4.1897,4.2135,4.2469,4.2532,4.2755,4.3073,4.3375,4.3486,4.3533,4.3835,4.374,4.3533,4.3835,4.374,4.332,4.1863,4.0198,3.8664,3.6679,3.4234,3.2479,3.3576,3.2017,2.9987,2.8864,2.7489,2.6596,2.6348,2.6348,2.6348,2.6129,2.6129,2.6129,2.6129,2.5978,2.4883,2.1821,2.0803,1.8953,1.457,1.6086,1.6634,1.3694,1.4956,1.4902,1.2133,1.0783,0.9397,0.8465,0.7978,0.7133,0.5963,0.7209,0.7286,0.5849,0.7432,0.7678,0.5898,0.3779,0.1626,0.0,-0.0271,-0.1635,-0.3844,-0.382,-0.4099,-0.4401,-0.4401,-0.439,-0.4369,-0.439,-0.4369,-0.4327,-0.4347,-0.4337,-0.4309,-0.4309,-0.5917,-0.7792,6.6652,6.6495,6.6338,6.6312,6.6312,6.586,6.4555,6.3294,6.1838,5.9672,5.8402,5.7556,5.6955,5.7448,5.7994,5.8256,5.8693,5.8977,5.8977,5.854,5.8387,5.865,5.865,5.8212,5.7143,5.6348,5.4293,5.1237,4.8989,4.7149,4.5927,4.3943,4.3186,4.317,4.2198,4.1849,4.1849,4.1849,4.2056,4.2389,4.2389,4.258,4.2898,4.3057,4.312,4.3136,4.3311,4.339,4.3209,4.2511,4.2358,4.1757,3.9252,3.8004,3.6666,3.4234,3.2691,3.1578,3.1578,3.0224,2.8626,2.7954,2.7043,2.6129,2.6129,2.6129,2.6129,2.6129,2.6129,2.6148,2.6281,2.6129,2.4845,2.1297,1.9898,1.7812,1.3391,1.4292,1.4531,1.23,1.2999,1.2857,1.0775,0.9594,0.8645,0.7938,0.8022,0.7756,0.6856,0.7843,0.7959,0.7125,0.6821,0.6415,0.5379,0.2159,0.0,-0.1081,-0.2162,-0.3253,-0.4352,-0.4337,-0.4337,-0.4352,-0.4352,-0.4345,-0.433,-0.4345,-0.4334,-0.4309,-0.4323,-0.5396,-0.6721,-0.6425,-0.8284,-1.0666,6.7279,6.72,6.7122,6.7096,6.7096,6.6425,6.4133,6.2566,6.0757,5.8356,5.7022,5.6247,5.6596,5.7164,5.7732,5.8235,5.8693,5.8977,5.8977,5.8628,5.8606,5.8955,5.9065,5.8126,5.5749,5.5144,5.2884,4.8771,4.6851,4.5423,4.4662,4.3029,4.231,4.2374,4.2008,4.1849,4.1849,4.1849,4.2008,4.2262,4.2262,4.2405,4.2644,4.2739,4.2818,4.2882,4.2977,4.3184,4.3209,4.1545,4.1034,4.0532,3.7081,3.5806,3.5113,3.2467,3.1127,3.045,2.9523,2.8626,2.7934,2.7489,2.6805,2.6129,2.6129,2.6129,2.6129,2.6129,2.6177,2.6013,2.5719,2.5572,2.4136,2.0402,1.8248,1.6168,1.3423,1.2481,1.2105,1.1876,1.151,1.0775,1.0098,0.863,0.7902,0.7916,0.8014,0.8085,0.8098,0.821,0.8059,0.7641,0.5607,0.4298,0.4023,0.0,-0.188,-0.1874,-0.3489,-0.4296,-0.4289,-0.4289,-0.4289,-0.4289,-0.4289,-0.4289,-0.4289,-0.4296,-0.4568,-0.5371,-0.5379,-0.6991,-0.9657,-0.9608,-1.1184,-1.3819,6.7802,6.7462,6.7096,6.7096,6.7096,6.6391,6.4496,6.2811,6.0757,5.8356,5.7022,5.6116,5.6159,5.6989,5.7732,5.8235,5.8693,5.8977,5.8977,5.8934,5.8934,5.8977,5.9392,5.8642,5.6271,5.3808,5.0956,4.8088,4.4887,4.33,4.3603,4.2358,4.2072,4.2374,4.2008,4.1849,4.1849,4.1849,4.1865,4.1881,4.1881,4.1897,4.1961,4.2294,4.2612,4.293,4.3247,4.339,4.3241,4.1818,4.1079,4.0237,3.7014,3.5138,3.4011,3.2254,2.9976,2.8162,2.7954,2.7944,2.7727,2.6586,2.6129,2.6129,2.6129,2.6129,2.6129,2.6129,2.6281,2.5719,2.4096,2.3718,2.1977,1.6544,1.4665,1.3475,1.2905,1.0861,1.041,1.3392,1.1543,1.0098,0.9859,0.863,0.7916,0.7973,0.8041,0.8104,0.8161,0.8273,0.7321,0.5533,0.3473,0.1609,-0.0533,-0.2953,-0.4013,-0.3961,-0.4253,-0.4253,-0.4225,-0.4225,-0.4225,-0.4225,-0.4225,-0.4225,-0.4229,-0.4257,-0.586,-0.8257,-0.8305,-0.9934,-1.2603,-1.2603,-1.4463,-1.6848,6.8481,6.8324,6.8168,6.8168,6.7145,6.5622,6.3546,6.1884,5.987,5.7134,5.6588,5.6531,5.6531,5.6858,5.7273,5.7776,5.7972,5.8082,5.8082,5.7988,5.8422,5.9392,5.9485,5.8197,5.4862,5.344,5.0786,4.6448,4.4906,4.3898,4.339,4.2564,4.2262,4.2374,4.2008,4.1849,4.1849,4.1849,4.1849,4.1849,4.1849,4.1849,4.1865,4.1992,4.2135,4.2246,4.2389,4.2707,4.2666,4.0002,3.8679,3.7826,3.4432,3.2443,3.1094,2.976,2.8162,2.6805,2.6805,2.6805,2.6567,2.6139,2.6129,2.6129,2.6129,2.6224,2.6328,2.6328,2.557,2.4528,2.4051,2.2724,2.0171,1.5231,1.4848,1.3912,1.0937,1.0625,1.1017,1.1299,1.0593,0.9614,0.863,0.8143,0.7924,0.7978,0.8006,0.8049,0.8104,0.6936,0.4923,0.1559,0.0527,-0.0265,-0.1058,-0.3184,-0.4242,-0.4218,-0.4229,-0.4229,-0.4218,-0.4218,-0.4218,-0.4218,-0.4218,-0.5256,-0.6808,-0.6887,-0.8469,-1.1027,-1.1145,-1.276,-1.5341,-1.5341,-1.7203,-1.9578,6.8847,6.8847,6.8847,6.8847,6.7256,6.5198,6.307,6.139,5.9363,5.6604,5.6596,5.6793,5.6793,5.6793,5.6989,5.7492,5.7383,5.7361,5.7514,5.743,5.7932,5.9074,5.8549,5.6732,5.3255,5.2025,4.9347,4.5004,4.4646,4.4304,4.3565,4.2755,4.2437,4.2517,4.2056,4.1849,4.1849,4.1849,4.1913,4.2008,4.1881,4.1913,4.2008,4.1881,4.1913,4.2024,4.1499,4.1697,4.1772,3.8208,3.6553,3.5545,3.2455,3.045,2.8853,2.7727,2.6805,2.6129,2.6129,2.6177,2.6224,2.6224,2.6224,2.6252,2.6299,2.6432,2.6555,2.6555,2.5545,2.444,2.3146,2.1603,1.8749,1.4317,1.3889,1.311,1.0349,1.0172,1.019,0.9781,0.9544,0.8824,0.7867,0.7867,0.7894,0.7951,0.7973,0.7769,0.7335,0.4601,0.2055,-0.0771,-0.1558,-0.2087,-0.2087,-0.3407,-0.4202,-0.4191,-0.4191,-0.4191,-0.4191,-0.4191,-0.4714,-0.5498,-0.5498,-0.7046,-0.9635,-0.9733,-1.1292,-1.3831,-1.3962,-1.5544,-1.8107,-1.8107,-1.9427,-2.1001,6.8847,6.8847,6.8847,6.8847,6.7256,6.5322,6.3378,6.1624,5.9499,5.7042,5.6793,5.6793,5.6793,5.6793,5.6989,5.747,5.7077,5.6989,5.7492,5.7409,5.7719,5.8059,5.6506,5.4274,5.1369,4.9311,4.6839,4.3931,4.3581,4.3597,4.3915,4.2882,4.2564,4.285,4.2151,4.1849,4.1849,4.1849,4.2056,4.2358,4.1992,4.2056,4.2342,4.1976,4.2072,4.2213,4.0861,4.054,4.0193,3.7014,3.5126,3.3775,3.2017,2.9771,2.7727,2.6358,2.6129,2.6129,2.6129,2.6281,2.6451,2.6451,2.6451,2.6498,2.6706,2.6753,2.6753,2.6753,2.6923,2.5753,2.161,1.9889,1.7904,1.3719,1.092,0.9794,1.1278,0.9245,0.8123,0.9625,0.8433,0.7733,0.7796,0.7804,0.7831,0.7888,0.7951,0.7035,0.5351,0.1274,-0.102,-0.102,-0.3064,-0.4086,-0.4086,-0.4142,-0.4159,-0.4131,-0.4131,-0.4131,-0.4131,-0.4131,-0.5673,-0.8237,-0.8237,-0.9814,-1.2474,-1.2474,-1.4086,-1.6793,-1.6793,-1.8368,-2.1001,-2.1001,-2.1001,-2.1001,6.8847,6.8847,6.8319,6.7086,6.5322,6.3378,6.1445,5.9658,5.8189,5.7317,5.7295,5.7295,5.7295,5.7011,5.6858,5.7011,5.6208,5.5441,5.5038,5.5298,5.5472,5.5487,5.6355,5.5065,5.0959,5.0243,4.7895,4.3931,4.3835,4.3835,4.3915,4.3104,4.2787,4.285,4.2151,4.1849,4.1849,4.1849,4.2056,4.2358,4.1992,4.2056,4.2342,4.1976,4.2072,4.2405,4.1875,4.0756,3.9243,3.6721,3.3946,3.1024,2.8378,2.7034,2.6384,2.6082,2.6129,2.6129,2.6129,2.6177,2.6252,2.6403,2.6451,2.6498,2.6706,2.6753,2.68,2.6952,2.4146,2.1451,1.9925,1.6514,1.2891,1.0625,0.9722,0.9092,0.8706,0.8062,0.789,0.8181,0.7955,0.772,0.7741,0.7777,0.7831,0.7888,0.6706,0.4487,0.0997,-0.025,-0.1758,-0.3014,-0.3791,-0.4054,-0.4054,-0.4093,-0.4117,-0.4131,-0.4131,-0.4121,-0.4099,-0.5886,-0.7392,-0.8112,-0.9879,-1.2458,-1.5093,-1.5183,-1.6778,-1.9401,-1.9497,-1.9992,-2.0682,-2.0804,-2.0845,-2.0858,6.8847,6.8151,6.7256,6.6208,6.3905,6.1803,6.0567,5.8787,5.7514,5.7514,5.7514,5.7349,5.7163,5.6902,5.6729,5.6522,5.5721,5.4825,5.3919,5.4338,5.4466,5.4006,5.5675,5.4461,5.0346,4.9393,4.7112,4.3724,4.3724,4.3804,4.3915,4.3216,4.2882,4.285,4.2151,4.1849,4.1849,4.1849,4.2135,4.2548,4.2199,4.2262,4.2564,4.2342,4.1801,4.1147,4.0123,3.8454,3.6275,3.4044,3.1368,2.8925,2.6504,2.5874,2.5978,2.6101,2.6129,2.6129,2.6129,2.6205,2.6281,2.6422,2.6451,2.6498,2.6706,2.6275,2.5608,2.5253,2.211,1.8872,1.7412,1.4243,1.111,0.9355,0.8734,0.8349,0.7461,0.7537,0.7608,0.7643,0.7643,0.7649,0.7679,0.7733,0.7553,0.6875,0.4203,0.1484,-0.0737,-0.1736,-0.2741,-0.3978,-0.4005,-0.4023,-0.4023,-0.4041,-0.4065,-0.4097,-0.4082,-0.4075,-0.4068,-0.6853,-0.8598,-0.9816,-1.2362,-1.5153,-1.7714,-1.7898,-1.8975,-2.0471,-2.0627,-2.0627,-2.056,-2.0648,-2.0682,-2.0702,6.8847,6.7425,6.6208,6.5839,6.2848,6.0567,6.0204,5.8603,5.7514,5.7514,5.7514,5.7349,5.6976,5.6789,5.6602,5.6038,5.5591,5.4774,5.3982,5.4359,5.4236,5.3261,5.4251,5.3111,4.9276,4.7348,4.5315,4.3406,4.3406,4.3581,4.3931,4.3247,4.293,4.2898,4.2231,4.1945,4.1945,4.1945,4.2326,4.2898,4.2564,4.2628,4.2914,4.285,4.141,3.9286,3.7034,3.4919,3.2625,2.9822,2.8057,2.7121,2.6024,2.5931,2.6101,2.6129,2.6129,2.6129,2.6129,2.6281,2.6422,2.6422,2.6182,2.6015,2.6238,2.5085,2.3406,2.1969,1.9946,1.7651,1.4606,1.2639,1.1162,0.9219,0.7965,0.7357,0.7363,0.7461,0.7537,0.7532,0.7532,0.7551,0.76,0.7423,0.6758,0.4868,0.1226,-0.0983,-0.1219,-0.2966,-0.3974,-0.3949,-0.3978,-0.3992,-0.3992,-0.3992,-0.4009,-0.4041,-0.4012,-0.4012,-0.4538,-0.7052,-0.9799,-1.2549,-1.5409,-1.7923,-2.0098,-2.0363,-2.0417,-2.0329,-2.0451,-2.0505,-2.0526,-2.0526,-2.0526,-2.0539,6.8847,6.8487,6.7256,6.4255,6.3201,6.1624,5.8603,5.77,5.7514,5.7514,5.7514,5.7536,5.7349,5.6976,5.6789,5.6602,5.5426,5.4548,5.3883,5.3987,5.3799,5.3716,5.2731,5.1133,4.8432,4.8671,4.6941,4.3406,4.3406,4.3581,4.3931,4.3502,4.3295,4.3279,4.285,4.266,4.266,4.266,4.2898,4.3263,4.2914,4.2977,4.3232,4.2707,4.2147,4.1161,3.8648,3.5712,3.2604,2.7715,2.5961,2.5595,2.5534,2.5732,2.5931,2.6082,2.6129,2.6129,2.6129,2.6148,2.5966,2.5507,2.411,2.2553,2.3113,2.2611,2.1564,1.8952,1.6034,1.3561,1.2877,1.0273,0.8177,0.77,0.7536,0.7371,0.742,0.7488,0.7518,0.7474,0.7469,0.7455,0.742,0.6099,0.4521,0.2655,0.0484,-0.17,-0.3171,-0.3673,-0.3932,-0.3949,-0.3956,-0.396,-0.396,-0.396,-0.3988,-0.4041,-0.4034,-0.5021,-0.7246,-0.9733,-1.2418,-1.5062,-1.78,-1.9349,-1.9929,-1.9997,-2.0064,-2.0153,-2.0187,-2.0275,-2.0383,-2.0383,-2.0451,-2.0539,6.7569,6.6492,6.4827,6.2268,6.1085,5.984,5.7885,5.7514,5.7514,5.7514,5.7349,5.7163,5.6767,5.6414,5.6038,5.5661,5.5073,5.4361,5.4172,5.4172,5.4068,5.3861,5.2308,5.0259,4.7901,4.7508,4.5789,4.2914,4.2914,4.3104,4.3422,4.3073,4.2914,4.2914,4.2548,4.2389,4.2389,4.2389,4.2596,4.2914,4.2723,4.2755,4.2898,4.2707,4.1023,3.8547,3.6785,3.316,2.8858,2.5948,2.5184,2.5354,2.5477,2.5732,2.6007,2.6101,2.6129,2.6101,2.6007,2.576,2.5495,2.4949,2.2846,2.085,2.1341,1.9697,1.753,1.5381,1.2742,1.0594,1.0041,0.8388,0.7232,0.7259,0.7314,0.7371,0.7398,0.7455,0.7474,0.7412,0.7406,0.6949,0.6273,0.445,0.2602,0.0718,-0.1202,-0.2894,-0.3862,-0.3876,-0.3891,-0.3904,-0.3907,-0.3907,-0.3907,-0.3907,-0.4412,-0.5676,-0.5721,-0.6473,-0.7929,-1.1878,-1.4316,-1.5728,-1.8491,-1.9766,-1.9786,-1.9922,-1.9976,-1.9997,-2.0064,-2.0153,-2.0227,-2.0227,-2.0315,-2.0451,6.6771,6.4654,6.2497,6.1195,5.9315,5.7885,5.7514,5.7514,5.7514,5.7514,5.7163,5.6789,5.6226,5.5661,5.5114,5.4544,5.4544,5.4544,5.4544,5.4606,5.4441,5.3985,5.2407,5.0259,4.7681,4.583,4.421,4.2389,4.2389,4.2564,4.2882,4.2596,4.2469,4.2453,4.2151,4.2024,4.2024,4.2024,4.2199,4.2469,4.2469,4.2469,4.2501,4.2707,3.9868,3.5823,3.4302,2.9947,2.4882,2.4882,2.5137,2.5458,2.5458,2.5704,2.6025,2.6025,2.6025,2.577,2.5592,2.5093,2.4614,2.3967,2.143,1.941,1.9071,1.6145,1.315,1.1444,1.0011,0.8391,0.748,0.721,0.7196,0.7259,0.7308,0.7343,0.7357,0.7412,0.742,0.7349,0.7112,0.6234,0.4923,0.2582,0.0707,-0.0713,-0.2872,-0.3835,-0.3817,-0.3838,-0.3855,-0.3859,-0.3859,-0.3859,-0.3859,-0.4342,-0.5539,-0.7698,-0.8775,-0.9078,-0.9332,-1.3739,-1.5944,-1.6477,-1.8793,-1.9766,-1.9678,-1.9922,-1.9942,-1.9854,-1.9997,-2.0085,-2.0098,-2.0153,-2.0261,-2.0404,6.9215,6.7171,6.4877,6.3177,6.1265,5.9498,5.77,5.7514,5.7514,5.7514,5.7514,5.7163,5.6789,5.585,5.5114,5.4544,5.4544,5.4544,5.4544,5.4896,5.4896,5.4461,5.2867,5.07,4.8102,4.597,4.421,4.2389,4.2389,4.2564,4.2882,4.2834,4.2818,4.2818,4.2771,4.2739,4.2739,4.2739,4.2771,4.2818,4.2818,4.2818,4.2787,4.1891,4.09,3.9314,3.4372,2.9393,2.4882,2.4882,2.5062,2.526,2.526,2.5402,2.5581,2.5581,2.5133,2.4909,2.4667,2.4415,2.3285,2.0755,1.8034,1.5514,1.2951,1.2318,1.1444,0.8422,0.7721,0.7471,0.7196,0.7183,0.7196,0.7259,0.7273,0.7294,0.7349,0.7412,0.7406,0.7294,0.5911,0.4805,0.465,0.1397,-0.0701,-0.0943,-0.2597,-0.3793,-0.3817,-0.382,-0.3835,-0.3859,-0.3859,-0.3859,-0.3859,-0.6022,-0.7217,-0.7698,-1.2039,-1.4265,-1.4597,-1.5081,-1.6854,-1.9177,-1.9678,-1.9678,-1.9664,-1.9698,-1.9712,-1.9698,-1.9854,-1.9976,-2.0139,-2.0383,-2.0485,-2.1047,6.7013,6.5346,6.3554,6.0544,5.9315,5.8418,5.77,5.7514,5.7426,5.7142,5.6803,5.6494,5.6029,5.5325,5.4735,5.4544,5.4544,5.4648,5.4875,5.5082,5.5207,5.5289,5.2012,4.9704,4.8524,4.5121,4.2921,4.2088,4.2088,4.2167,4.231,4.231,4.231,4.231,4.231,4.231,4.231,4.231,4.231,4.231,4.231,4.231,4.2278,4.1499,3.9435,3.6176,3.0619,2.7183,2.5232,2.5232,2.5307,2.5383,2.5383,2.543,2.5506,2.5059,2.4845,2.4576,2.4021,2.355,2.2864,2.1406,1.7793,1.4423,1.3252,1.1041,0.882,0.7443,0.7215,0.721,0.7183,0.7175,0.7196,0.7259,0.7294,0.7327,0.7349,0.7412,0.7412,0.7327,0.6634,0.5284,0.3251,0.1628,-0.0233,-0.2354,-0.33,-0.3779,-0.3793,-0.3775,-0.3771,-0.3786,-0.4943,-0.5879,-0.5901,-0.8254,-1.0154,-1.1861,-1.3979,-1.526,-1.5445,-1.6882,-1.8128,-1.94,-1.94,-1.94,-1.94,-1.94,-1.94,-1.9413,-1.9569,-2.0679,-2.1809,-2.0582,-2.2181,-2.5271]},{"header":{"parameterUnit":"m.s-1","parameterCategory":1,"la1":30.6,"la2":28.766,"lo1":-90.7593,"lo2":-88.6598,"dx":0.0162,"dy":0.0183,"nx":116,"ny":114,"refTime":"2022-12-18T06:00:00:Z","depth":0,"parameterNumber":3,"parameterNumberName":"V-component_of_WINDS"},"data":[0.0,0.0,0.0,0.0,0.0,0.0,0.0,0.0,0.0,0.0,0.0,0.0,0.0,0.0,0.0,0.0,0.0,0.0,0.0,0.0,0.0,0.0,0.0,0.0,0.0,0.0,0.0,0.0,0.0,0.0,0.0,0.0,0.0,0.0,0.0,0.0,0.0,0.0,0.0,0.0,0.0,0.0,0.0,0.0,0.0,0.0,0.0,0.0,0.0,0.0,0.0,0.0,0.0,0.0,0.0,0.0,0.0,0.0,0.0,0.0,0.0,0.0,0.0,0.0,0.0,0.0,0.0,0.0,0.0,0.0,0.0,0.0,0.0,0.0,0.0,0.0,0.0,0.0,0.0,0.0,0.0,0.0,0.0,0.0,0.0,0.0,0.0,0.0,0.0,0.0,0.0,0.0,0.0,0.0,0.0,0.0,0.0,0.0,0.0,0.0,0.0,0.0,0.0,0.0,0.0,0.0,0.0,0.0,0.0,0.0,0.0,0.0,0.0,0.0,0.0,0.0,0.0,0.0,0.0,0.0,0.0,0.0,0.0,0.0,0.0,0.0,0.0,0.0,0.0,0.0,0.0,0.0,0.0,0.0,0.0,0.0,0.0,0.0,0.0,0.0,0.0,0.0,0.0,0.0,0.0,0.0,0.0,0.0,0.0,0.0,0.0,0.0,0.0,0.0,0.0,0.0,0.0,0.0,0.0,0.0,0.0,0.0,0.0,0.0,0.0,0.0,0.0,0.0,0.0,0.0,0.0,0.0,0.0,0.0,0.0,0.0,0.0,0.0,0.0,0.0,0.0,0.0,0.0,0.0,0.0,0.0,0.0,0.0,0.0,0.0,0.0,0.0,0.0,0.0,0.0,0.0,0.0,0.0,0.0,0.0,0.0,0.0,0.0,0.0,0.0,0.0,0.0,0.0,0.0,0.0,0.0,0.0,0.0,0.0,0.0,0.0,0.0,0.0,0.0,0.0,0.0,0.0,0.0,0.0,0.0,0.0,0.0,0.0,0.0,0.0,0.0,0.0,0.0,0.0,0.0,0.0,0.0,0.0,0.0,0.0,0.0,0.0,0.0,0.0,0.0,0.0,0.0,0.0,0.0,0.0,0.0,0.0,0.0,0.0,0.0,0.0,0.0,0.0,0.0,0.0,0.0,0.0,0.0,0.0,0.0,0.0,0.0,0.0,0.0,0.0,0.0,0.0,0.0,0.0,0.0,0.0,0.0,0.0,0.0,0.0,0.0,0.0,0.0,0.0,0.0,0.0,0.0,0.0,0.0,0.0,0.0,0.0,0.0,0.0,0.0,0.0,0.0,0.0,0.0,0.0,0.0,0.0,0.0,0.0,0.0,0.0,0.0,0.0,0.0,0.0,0.0,0.0,0.0,0.0,0.0,0.0,0.0,0.0,0.0,0.0,0.0,0.0,0.0,0.0,0.0,0.0,0.0,0.0,0.0,0.0,0.0,0.0,0.0,0.0,0.0,0.0,0.0,0.0,0.0,0.0,0.0,0.0,0.0,0.0,0.0,0.0,0.0,0.0,0.0,0.0,0.0,0.0,0.0,0.0,0.0,0.0,0.0,0.0,0.0,0.0,0.0,0.0,0.0,0.0,0.0,0.0,0.0,0.0,0.0,0.0,0.0,0.0,0.0,0.0,0.0,0.0,0.0,0.0,0.0,0.0,0.0,0.0,0.0,0.0,0.0,0.0,0.0,0.0,0.0,0.0,0.0,0.0,0.0,0.0,0.0,0.0,0.0,0.0,0.0,0.0,0.0,0.0,0.0,0.0,0.0,0.0,0.0,0.0,0.0,0.0,0.0,0.0,0.0,0.0,0.0,0.0,0.0,0.0,0.0,0.0,0.0,0.0,0.0,0.0,0.0,0.0,0.0,0.0,0.0,0.0,0.0,0.0,0.0,0.0,0.0,0.0,0.0,0.0,0.0,0.0,0.0,0.0,0.0,0.0,0.0,0.0,0.0,0.0,0.0,0.0,0.0,0.0,0.0,0.0,0.0,0.0,0.0,0.0,0.0,0.0,0.0,0.0,0.0,0.0,0.0,0.0,0.0,0.0,0.0,0.0,0.0,0.0,0.0,0.0,0.0,0.0,0.0,0.0,0.0,0.0,0.0,0.0,0.0,0.0,0.0,0.0,0.0,0.0,0.0,0.0,0.0,0.0,0.0,0.0,0.0,0.0,0.0,0.0,0.0,0.0,0.0,0.0,0.0,0.0,0.0,0.0,0.0,0.0,0.0,0.0,0.0,0.0,0.0,0.0,0.0,0.0,0.0,0.0,0.0,0.0,0.0,0.0,0.0,0.0,0.0,0.0,0.0,0.0,0.0,0.0,0.0,0.0,0.0,0.0,0.0,0.0,0.0,0.0,0.0,0.0,0.0,0.0,0.0,0.0,0.0,0.0,0.0,0.0,0.0,0.0,0.0,0.0,0.0,0.0,0.0,0.0,0.0,0.0,0.0,0.0,0.0,0.0,0.0,0.0,0.0,0.0,0.0,0.0,0.0,0.0,0.0,0.0,0.0,0.0,0.0,0.0,0.0,0.0,0.0,0.0,0.0,0.0,0.0,0.0,0.0,0.0,0.0,0.0,0.0,0.0,0.0,0.0,0.0,0.0,0.0,0.0,0.0,0.0,0.0,0.0,0.0,0.0,0.0,0.0,0.0,0.0,0.0,0.0,0.0,0.0,0.0,0.0,0.0,0.0,0.0,0.0,0.0,0.0,0.0,0.0,0.0,0.0,0.0,0.0,0.0,0.0,0.0,0.0,0.0,0.0,0.0,0.0,0.0,0.0,0.0,0.0,0.0,0.0,0.0,0.0,0.0,0.0,0.0,0.0,0.0,0.0,0.0,0.0,0.0,0.0,0.0,0.0,0.0,0.0,0.0,0.0,0.0,0.0,0.0,0.0,0.0,0.0,0.0,0.0,0.0,0.0,0.0,0.0,0.0,0.0,0.0,0.0,0.0,0.0,0.0,0.0,0.0,0.0,0.0,0.0,0.0,0.0,0.0,0.0,0.0,0.0,0.0,0.0,0.0,0.0,0.0,0.0,0.0,0.0,0.0,0.0,0.0,0.0,0.0,0.0,0.0,0.0,0.0,0.0,0.0,0.0,0.0,0.0,0.0,0.0,0.0,0.0,0.0,0.0,0.0,0.0,0.0,0.0,0.0,0.0,0.0,0.0,0.0,0.0,0.0,0.0,0.0,0.0,0.0,0.0,0.0,0.0,0.0,0.0,0.0,0.0,0.0,0.0,0.0,0.0,0.0,0.0,0.0,0.0,0.0,0.0,0.0,0.0,0.0,0.0,0.0,0.0,0.0,0.0,0.0,0.0,0.0,0.0,0.0,0.0,0.0,0.0,0.0,0.0,0.0,0.0,0.0,0.0,0.0,0.0,0.0,0.0,0.0,0.0,0.0,0.0,0.0,0.0,0.0,0.0,0.0,0.0,0.0,0.0,0.0,0.0,0.0,0.0,0.0,0.0,0.0,0.0,0.0,0.0,0.0,0.0,0.0,0.0,0.0,0.0,0.0,0.0,0.0,0.0,0.0,0.0,0.0,0.0,0.0,0.0,0.0,0.0,0.0,0.0,0.0,0.0,0.0,0.0,0.0,0.0,0.0,0.0,0.0,0.0,0.0,0.0,0.0,0.0,0.0,0.0,0.0,0.0,0.0,0.0,0.0,0.0,0.0,0.0,0.0,0.0,0.0,0.0,0.0,0.0,0.0,0.0,0.0,0.0,0.0,0.0,0.0,0.0,0.0,0.0,0.0,0.0,0.0,0.0,0.0,0.0,0.0,0.0,0.0,0.0,0.0,0.0,0.0,0.0,0.0,0.0,0.0,0.0,0.0,0.0,0.0,0.0,0.0,0.0,0.0,0.0,0.0,0.0,0.0,0.0,0.0,0.0,0.0,0.0,0.0,0.0,0.0,0.0,0.0,0.0,0.0,0.0,0.0,0.0,0.0,0.0,0.0,0.0,0.0,0.0,0.0,0.0,0.0,0.0,0.0,0.0,0.0,0.0,0.0,0.0,0.0,0.0,0.0,0.0,0.0,0.0,0.0,0.0,0.0,0.0,0.0,0.0,0.0,0.0,0.0,0.0,0.0,0.0,0.0,0.0,0.0,0.0,0.0,0.0,0.0,0.0,0.0,0.0,0.0,0.0,0.0,0.0,0.0,0.0,0.0,0.0,0.0,0.0,0.0,0.0,0.0,0.0,0.0,0.0,0.0,0.0,0.0,0.0,0.0,0.0,0.0,0.0,0.0,0.0,0.0,0.0,0.0,0.0,0.0,0.0,0.0,0.0,0.0,0.0,0.0,0.0,0.0,0.0,0.0,0.0,0.0,0.0,0.0,0.0,0.0,0.0,0.0,0.0,0.0,0.0,0.0,0.0,0.0,0.0,0.0,0.0,0.0,0.0,0.0,0.0,0.0,0.0,0.0,0.0,0.0,0.0,0.0,0.0,0.0,0.0,0.0,0.0,0.0,0.0,0.0,0.0,0.0,0.0,0.0,0.0,0.0,0.0,0.0,0.0,0.0,0.0,0.0,0.0,0.0,0.0,0.0,0.0,0.0,0.0,0.0,0.0,0.0,0.0,0.0,0.0,0.0,0.0,0.0,0.0,0.0,0.0,0.0,0.0,0.0,0.0,0.0,0.0,0.0,0.0,0.0,0.0,0.0,0.0,0.0,0.0,0.0,0.0,0.0,0.0,0.0,0.0,0.0,0.0,0.0,0.0,0.0,0.0,0.0,0.0,0.0,0.0,0.0,0.0,0.0,0.0,0.0,0.0,0.0,0.0,0.0,0.0,0.0,0.0,0.0,0.0,0.0,0.0,0.0,0.0,0.0,0.0,0.0,0.0,0.0,0.0,0.0,0.0,0.0,0.0,0.0,0.0,0.0,0.0,0.0,0.0,0.0,0.0,0.0,0.0,0.0,0.0,0.0,0.0,0.0,0.0,0.0,0.0,0.0,0.0,0.0,0.0,0.0,0.0,0.0,0.0,0.0,0.0,0.0,0.0,0.0,0.0,0.0,0.0,0.0,0.0,0.0,0.0,0.0,0.0,0.0,0.0,0.0,0.0,0.0,0.0,0.0,0.0,0.0,0.0,0.0,0.0,0.0,0.0,0.0,0.0,0.0,0.0,0.0,0.0,0.0,0.0,0.0,0.0,0.0,0.0,0.0,0.0,0.0,0.0,0.0,0.0,0.0,0.0,0.0,0.0,0.0,0.0,0.0,0.0,0.0,0.0,0.0,0.0,0.0,0.0,0.0,0.0,0.0,0.0,0.0,0.0,0.0,0.0,0.0,0.0,0.0,0.0,0.0,0.0,0.0,0.0,0.0,0.0,0.0,0.0,0.0,0.0,0.0,0.0,0.0,0.0,0.0,0.0,0.0,0.0,0.0,0.0,0.0,0.0,0.0,0.0,0.0,0.0,0.0,0.0,0.0,0.0,0.0,0.0,0.0,0.0,0.0,0.0,0.0,0.0,0.0,0.0,0.0,0.0,0.0,0.0,0.0,0.0,0.0,0.0,0.0,0.0,0.0,0.0,0.0,0.0,0.0,0.0,0.0,0.0,0.0,0.0,0.0,0.0,0.0,0.0,0.0,0.0,0.0,0.0,0.0,0.0,0.0,0.0,0.0,0.0,0.0,0.0,0.0,0.0,0.0,0.0,0.0,0.0,0.0,0.0,0.0,0.0,0.0,0.0,0.0,0.0,0.0,0.0,0.0,0.0,0.0,0.0,0.0,0.0,0.0,0.0,0.0,0.0,0.0,0.0,0.0,0.0,0.0,0.0,0.0,0.0,0.0,0.0,0.0,0.0,0.0,0.0,0.0,0.0,0.0,0.0,0.0,0.0,0.0,0.0,0.0,0.0,0.0,0.0,0.0,0.0,0.0,0.0,0.0,0.0,0.0,0.0,0.0,0.0,0.0,0.0,0.0,0.0,0.0,0.0,0.0,0.0,0.0,0.0,0.0,0.0,0.0,0.0,0.0,0.0,0.0,0.0,0.0,0.0,0.0,0.0,0.0,0.0,0.0,0.0,0.0,0.0,0.0,0.0,0.0,0.0,0.0,0.0,0.0,0.0,4.227,3.8477,0.0,0.0,0.0,0.0,0.0,0.0,0.0,0.0,0.0,0.0,0.0,0.0,0.0,0.0,0.0,0.0,0.0,0.0,0.0,0.0,0.0,0.0,0.0,1.7745,1.8129,1.7955,1.836,0.0,0.0,0.0,0.0,0.0,0.0,0.0,0.0,0.0,1.9769,2.0779,2.1491,2.3534,2.6703,2.5096,2.3833,2.2891,0.0,0.0,0.0,0.0,0.0,0.0,0.0,0.0,0.0,0.0,0.0,0.0,0.0,0.0,0.0,0.0,0.0,0.0,0.0,0.0,0.0,0.0,0.0,0.0,0.0,0.0,0.0,0.0,0.0,0.0,0.0,0.0,0.0,0.0,0.0,0.0,0.0,0.0,0.0,0.0,0.0,0.0,0.0,0.0,0.0,0.0,0.0,0.0,0.0,0.0,0.0,0.0,0.0,0.0,0.0,0.0,0.0,0.0,0.0,0.0,0.0,0.0,0.0,0.0,0.0,0.0,0.0,0.0,0.0,0.0,4.534,4.3062,0.0,0.0,0.0,0.0,0.0,0.0,0.0,0.0,0.0,0.0,0.0,0.0,0.0,0.0,0.0,0.0,0.0,0.0,0.0,0.0,0.0,1.8357,1.8386,1.9148,1.9666,1.9694,1.9932,2.0044,1.9953,1.9861,0.0,0.0,0.0,0.0,2.009,2.0159,2.1032,2.2708,2.5027,2.7713,3.0698,3.1272,3.0422,2.8333,2.5761,0.0,0.0,0.0,0.0,0.0,0.0,0.0,0.0,0.0,0.0,0.0,0.0,0.0,0.0,0.0,0.0,0.0,0.0,0.0,0.0,0.0,0.0,0.0,0.0,0.0,0.0,0.0,0.0,0.0,0.0,0.0,0.0,0.0,0.0,0.0,0.0,0.0,0.0,0.0,0.0,0.0,0.0,0.0,0.0,0.0,0.0,0.0,0.0,0.0,0.0,0.0,0.0,0.0,0.0,0.0,0.0,0.0,0.0,0.0,0.0,0.0,0.0,0.0,4.9743,5.0073,5.0073,5.0073,5.0713,5.1717,4.9366,4.8929,4.9801,4.6622,0.0,0.0,0.0,0.0,0.0,0.0,0.0,0.0,0.0,0.0,0.0,0.0,0.0,0.0,0.0,0.0,0.0,0.0,0.0,1.9812,1.9982,2.0921,2.1593,2.1823,2.1684,2.1445,2.1009,2.0549,2.032,2.032,2.0733,2.1169,2.1629,2.2065,2.3465,2.5853,3.1341,3.4486,3.5405,3.6346,3.6599,3.6094,3.141,2.8792,2.7851,0.0,0.0,0.0,0.0,0.0,0.0,0.0,0.0,0.0,0.0,0.0,0.0,0.0,0.0,0.0,0.0,0.0,0.0,0.0,0.0,0.0,0.0,0.0,0.0,0.0,0.0,0.0,0.0,0.0,0.0,0.0,0.0,0.0,0.0,0.0,0.0,0.0,0.0,0.0,0.0,0.0,4.1893,4.4953,0.0,0.0,0.0,0.0,0.0,0.0,0.0,0.0,0.0,0.0,0.0,0.0,0.0,4.7847,4.9047,5.1568,5.3163,5.3846,5.6493,5.7744,5.7744,5.7744,5.8313,5.9299,5.8431,0.0,5.0879,5.1341,0.0,0.0,0.0,0.0,0.0,0.0,0.0,0.0,0.0,0.0,0.0,0.0,0.0,0.0,0.0,0.0,0.0,0.0,0.0,0.0,0.0,2.2839,2.3589,2.3996,2.4031,2.3652,2.2776,2.2732,2.2373,2.1743,2.1904,2.2249,2.2708,2.4407,2.7461,3.1984,3.552,3.793,3.9262,3.9423,3.9652,3.9813,3.7288,3.4349,3.1203,3.0193,0.0,0.0,0.0,0.0,0.0,0.0,0.0,0.0,0.0,0.0,0.0,0.0,0.0,0.0,0.0,0.0,0.0,0.0,0.0,0.0,0.0,0.0,0.0,0.0,0.0,0.0,0.0,0.0,0.0,0.0,0.0,0.0,0.0,0.0,0.0,0.0,0.0,0.0,0.0,4.1294,4.3849,4.5629,4.4911,4.3779,0.0,0.0,0.0,0.0,0.0,0.0,0.0,0.0,0.0,5.218,5.2602,5.3612,5.5283,5.7005,5.8155,5.8802,6.0146,6.0975,6.1312,6.1898,6.2377,6.2851,6.3256,6.1906,5.9331,5.7406,5.5694,5.4019,0.0,0.0,0.0,0.0,5.3376,5.3775,0.0,0.0,0.0,0.0,0.0,0.0,0.0,0.0,0.0,0.0,0.0,0.0,2.3958,2.4941,2.563,2.6203,2.6361,2.5941,2.489,2.474,2.4277,2.328,2.3144,2.3374,2.4016,2.7415,3.1754,3.7035,3.8849,4.0502,4.1948,4.1696,4.1788,4.2109,4.1627,3.8964,3.4762,3.3729,3.1915,2.955,0.0,0.0,0.0,0.0,0.0,0.0,0.0,0.0,0.0,0.0,0.0,0.0,0.0,0.0,0.0,0.0,0.0,0.0,0.0,0.0,0.0,0.0,0.0,0.0,0.0,0.0,0.0,0.0,0.0,0.0,0.0,0.0,0.0,0.0,0.0,0.0,0.0,4.4111,4.6209,4.7054,4.7319,4.6922,0.0,0.0,0.0,0.0,0.0,0.0,5.1815,5.2883,5.4597,5.7097,5.7772,5.898,6.0835,6.1481,6.2015,6.2464,6.2633,6.3075,6.3763,6.4655,6.5274,6.5786,6.6546,6.7046,6.6966,6.2924,6.1087,6.0636,5.9499,5.862,5.8193,5.9255,5.9593,5.9839,0.0,0.0,0.0,0.0,0.0,0.0,0.0,0.0,0.0,0.0,0.0,2.4863,2.5872,2.7045,2.8005,2.8432,2.8451,2.8119,2.7372,2.5936,2.5039,2.4791,2.4361,2.459,2.5578,3.1387,3.5979,3.9147,4.165,4.2913,4.3028,4.3464,4.3671,4.3671,4.3188,4.1489,3.8941,3.7907,3.63,3.4165,3.0698,0.0,0.0,0.0,0.0,0.0,0.0,0.0,0.0,0.0,0.0,0.0,0.0,0.0,0.0,0.0,0.0,0.0,0.0,0.0,0.0,0.0,0.0,0.0,0.0,0.0,0.0,0.0,0.0,0.0,0.0,0.0,0.0,0.0,0.0,0.0,0.0,0.0,0.0,5.1316,5.2559,0.0,0.0,0.0,0.0,5.2293,5.2461,5.3866,5.6845,5.7631,5.9121,6.1593,6.2296,6.2661,6.2773,6.3364,6.3673,6.3701,6.4319,6.517,6.624,6.624,6.7389,6.9171,6.9171,6.9791,7.0433,6.7148,6.5044,6.3891,6.3284,6.2414,6.1668,6.3807,6.4549,6.4918,0.0,0.0,0.0,0.0,0.0,2.1106,2.1106,2.2094,2.3006,2.3461,2.4916,2.6344,2.7398,2.8411,2.929,2.9852,3.0219,3.0122,2.9283,2.8289,2.7923,2.8353,2.7234,2.8632,3.2902,3.6392,3.9515,4.2201,4.3096,4.3739,4.4061,4.3877,4.3992,4.429,4.3785,4.3051,4.2109,4.0778,3.8872,3.6576,3.4992,3.2471,0.0,0.0,0.0,0.0,0.0,0.0,0.0,0.0,0.0,0.0,0.0,0.0,0.0,0.0,0.0,0.0,0.0,0.0,0.0,0.0,0.0,0.0,0.0,0.0,0.0,0.0,0.0,0.0,0.0,0.0,0.0,0.0,0.0,0.0,0.0,0.0,0.0,5.2795,5.4129,0.0,5.399,5.5228,5.6073,5.6311,5.8502,6.0497,6.2043,6.2717,6.3645,6.4909,6.5555,6.5696,6.5302,6.6286,6.7014,6.725,6.7907,6.8745,6.9969,7.0607,7.1267,7.2077,7.2748,7.316,7.3506,7.2231,7.0459,6.8515,6.8298,6.7958,6.7709,6.8464,6.9395,7.0272,0.0,0.0,0.0,0.0,2.1085,2.1642,2.18,2.2891,2.3963,2.4668,2.6109,2.7568,2.8669,2.9721,3.049,3.0925,3.1596,3.1686,3.1133,3.0358,3.0015,3.0209,2.9894,3.2443,3.8183,3.979,4.1811,4.4336,4.4336,4.452,4.4864,4.4497,4.452,4.4841,4.4497,4.4245,4.4015,4.3134,4.1637,3.9698,3.8344,3.601,3.3115,0.0,0.0,0.0,0.0,0.0,0.0,0.0,0.0,0.0,0.0,0.0,0.0,0.0,0.0,0.0,0.0,0.0,0.0,0.0,0.0,0.0,0.0,0.0,0.0,0.0,0.0,0.0,0.0,0.0,0.0,0.0,0.0,0.0,0.0,5.0803,5.3164,5.4129,5.6325,5.7482,5.6798,5.8815,6.0245,6.0469,6.2745,6.4403,6.505,6.5668,6.6258,6.6876,6.8117,6.84,6.7749,6.9194,6.9958,7.0018,7.0424,7.1317,7.2403,7.307,7.3628,7.402,7.4953,7.5366,7.5366,7.5619,7.4656,7.2977,7.2765,7.2765,7.2977,7.2977,7.353,7.4419,0.0,0.0,0.0,2.1374,2.1752,2.2134,2.2639,2.358,2.4664,2.5937,2.7179,2.8441,2.964,3.0803,3.1598,3.2019,3.279,3.3124,3.2889,3.1856,3.1042,3.0354,3.2443,3.5887,4.08,4.1466,4.3088,4.5575,4.5575,4.5598,4.5598,4.5598,4.5598,4.5598,4.5552,4.514,4.4704,4.5036,4.4602,4.3625,4.064,3.9175,3.8254,0.0,0.0,0.0,0.0,0.0,0.0,0.0,0.0,0.0,0.0,0.0,0.0,0.0,0.0,0.0,0.0,0.0,0.0,0.0,0.0,0.0,0.0,0.0,0.0,0.0,0.0,0.0,0.0,0.0,0.0,0.0,0.0,0.0,5.1899,5.4597,5.6311,5.5805,5.9486,6.1846,6.1284,6.283,6.415,6.4797,6.4853,6.5134,6.589,6.6342,6.7101,6.7721,7.0049,7.096,7.0296,7.2021,7.2571,7.1951,7.1951,7.2492,7.3526,7.3526,7.4081,7.5173,7.5775,7.6026,7.6151,7.6738,7.7105,7.6983,7.6337,7.646,7.7041,7.7041,7.7073,7.7105,0.0,0.0,0.0,2.2252,2.2708,2.319,2.3695,2.4636,2.5701,2.6907,2.8131,2.9479,3.0953,3.1851,3.2551,3.3248,3.378,3.4209,3.4316,3.3095,3.2812,3.4039,3.8594,4.1953,4.3345,4.5232,4.6744,4.7842,4.8216,4.8403,4.8403,4.8403,4.8403,4.838,4.7609,4.7398,4.7562,4.6552,4.6066,4.609,4.3868,4.207,4.0503,0.0,0.0,0.0,0.0,0.0,0.0,0.0,0.0,0.0,0.0,0.0,0.0,0.0,0.0,0.0,0.0,0.0,0.0,0.0,0.0,0.0,0.0,0.0,0.0,0.0,0.0,0.0,0.0,0.0,0.0,0.0,5.4765,5.617,5.5889,5.735,5.9064,6.0694,6.2324,6.3588,6.4347,6.5274,6.6089,6.6707,6.7185,6.8145,6.9591,6.9763,7.056,7.2012,7.3111,7.3369,7.2724,7.4092,7.4653,7.4376,7.4886,7.5429,7.6038,7.653,7.6918,7.7206,7.7936,7.8187,7.8187,7.8312,7.8684,7.908,7.733,7.6829,7.7041,7.7041,7.7633,7.8627,0.0,0.0,0.0,2.2846,2.342,2.3925,2.443,2.5371,2.6483,2.7736,2.8777,2.9957,3.1834,3.258,3.3521,3.518,3.5022,3.5122,3.5848,3.5086,3.5972,3.8989,4.238,4.4666,4.5552,4.7228,4.8216,4.878,4.9297,4.9532,4.9532,4.9532,4.9415,4.9203,4.8803,4.8686,4.8709,4.7931,4.7856,4.8021,4.6617,4.4748,4.2756,4.2063,4.0901,3.9561,3.8598,3.8203,3.8013,3.6653,0.0,0.0,0.0,0.0,0.0,0.0,0.0,0.0,0.0,0.0,0.0,0.0,0.0,0.0,0.0,0.0,0.0,0.0,0.0,0.0,0.0,0.0,0.0,0.0,5.8766,6.0666,6.0835,6.1256,6.2071,6.3532,6.4684,6.5527,6.6005,6.6876,6.7664,6.8542,6.8939,6.9963,7.1697,7.1726,7.2298,7.3643,7.4713,7.5021,7.4367,7.6043,7.6759,7.6396,7.7059,7.7586,7.7894,7.8247,7.8375,7.8501,7.913,7.9379,7.9503,8.0069,8.0598,8.0714,0.0,0.0,0.0,0.0,7.9188,7.9966,2.2387,2.2571,2.2914,2.3442,2.3948,2.443,2.4935,2.583,2.6967,2.8411,2.9039,3.0148,3.2541,3.32,3.459,3.7246,3.6543,3.6354,3.7205,3.8043,4.0223,4.3961,4.4583,4.562,4.7459,4.8119,4.8709,4.9251,4.977,5.0029,5.0029,5.0029,4.9793,4.9369,4.9699,4.9605,4.9157,4.925,4.9295,4.92,4.8791,4.7218,4.4967,4.4016,4.3333,4.2639,4.1653,4.1293,4.1124,3.9882,0.0,0.0,0.0,0.0,0.0,0.0,0.0,0.0,0.0,0.0,0.0,0.0,0.0,0.0,0.0,0.0,0.0,0.0,0.0,0.0,0.0,0.0,0.0,0.0,6.2005,6.4628,6.5836,6.5721,6.5327,6.4993,6.6539,6.7438,6.7101,6.8201,6.928,7.0441,7.0581,7.1232,7.2867,7.3034,0.0,0.0,0.0,7.6334,7.5698,7.7934,7.8776,7.8245,7.888,7.9163,7.9258,7.9384,7.9352,7.9384,8.0192,8.047,8.0534,8.1916,8.2418,8.2167,8.0906,8.0738,8.1284,8.1284,8.1284,8.1284,2.3233,2.3235,2.3465,2.3971,2.4453,2.4958,2.5486,2.6083,2.7186,2.8962,2.9242,3.0384,3.32,3.4967,3.672,3.8517,3.8759,3.8887,3.9051,4.2117,4.4104,4.4229,4.7194,4.8882,4.887,5.0651,5.1777,5.2305,5.2808,5.3072,5.3072,5.3072,5.2851,5.2732,5.2137,5.1777,5.1585,5.029,4.9475,4.9043,4.8516,4.8252,4.8156,4.7694,4.7614,4.7617,4.6729,4.6383,4.6144,4.4666,4.3593,4.271,4.2016,4.1329,0.0,0.0,0.0,0.0,0.0,0.0,0.0,0.0,0.0,0.0,0.0,0.0,0.0,0.0,0.0,0.0,0.0,0.0,0.0,6.2511,6.5021,6.7073,6.7831,6.9081,6.905,6.6538,6.7466,6.8852,7.0049,7.0478,7.122,7.2841,7.3011,7.3487,7.4706,7.5322,7.6049,7.7185,7.8085,7.8469,7.8343,7.8754,7.929,7.9732,7.9859,0.0,8.0744,8.1379,8.163,8.1662,8.2831,8.3337,8.3493,8.4361,8.4328,8.3713,8.2911,8.2652,8.2774,8.2774,8.2774,8.2774,2.3879,2.381,2.3971,2.4476,2.4981,2.5486,2.6014,2.6519,2.7491,2.9295,2.9555,3.0642,3.3301,3.4318,3.557,3.757,3.8868,3.9871,4.0877,4.4088,4.6287,4.7074,4.9163,5.0266,5.0388,5.1321,5.2403,5.3437,5.3966,5.4351,5.4616,5.4616,5.4471,5.4183,5.3678,5.3293,5.298,5.1922,5.1153,5.0624,5.0095,4.9902,4.9806,4.8851,4.8707,4.9036,4.8636,4.8403,4.8308,4.7495,4.6873,4.6347,4.6078,4.5846,4.5582,0.0,0.0,0.0,0.0,0.0,0.0,0.0,0.0,0.0,0.0,0.0,0.0,0.0,0.0,5.6929,5.872,0.0,6.3897,6.569,6.8143,6.9854,6.9854,7.139,7.1511,6.8738,6.999,7.1448,7.2332,7.2362,7.3327,7.5472,7.5172,7.5668,7.7023,7.7543,7.7929,7.8501,7.888,7.9163,7.9543,8.0268,8.0934,8.1602,8.2365,8.2843,8.3195,8.3607,8.3732,8.3732,8.4463,8.4749,8.4814,8.5559,8.5818,8.5786,8.543,8.4458,8.3195,8.3195,8.3195,8.3195,2.42,2.4269,2.4453,2.4843,2.5348,2.5876,2.6381,2.6909,2.7707,2.9319,2.9559,3.0572,3.2875,3.3244,3.4274,3.6667,3.8943,4.0974,4.2472,4.5095,4.7542,4.9638,5.0455,5.1008,5.1345,5.173,5.2499,5.3678,5.4207,5.4664,5.5097,5.5193,5.4952,5.4471,5.4664,5.4399,5.3798,5.3485,5.3004,5.2379,5.185,5.1321,5.0696,4.9301,4.9012,4.9397,4.9397,4.9318,4.9237,4.9414,4.9567,4.9621,4.9414,5.0156,5.0435,4.804,4.7913,0.0,0.0,0.0,0.0,0.0,0.0,0.0,0.0,5.5664,5.6395,5.8362,5.9261,6.0343,6.2078,6.4792,6.7242,6.8939,7.1239,7.2687,7.2296,7.3819,7.4223,7.2116,7.3378,7.4387,7.4683,7.4654,7.5489,7.7529,7.7169,7.7512,7.888,7.9257,7.954,7.9667,7.9919,8.0332,8.1157,8.2267,8.3192,8.3866,8.4822,8.5365,8.5494,8.5365,8.5268,8.53,8.5591,8.5851,8.6174,8.679,8.7437,8.802,8.7891,8.6433,8.4393,8.4102,8.4005,8.4005,2.42,2.4545,2.4843,2.4912,2.5348,2.5876,2.6381,2.6909,2.7482,2.8358,2.8869,2.9727,3.1634,3.3219,3.517,3.7631,4.1038,4.3265,4.3409,4.6367,4.8435,4.9133,5.06,5.1201,5.0792,5.262,5.3413,5.3149,5.3654,5.3942,5.4015,5.4471,5.4399,5.3942,5.488,5.476,5.3846,5.4255,5.387,5.2932,5.2403,5.1874,5.1345,5.0672,5.0479,5.0527,5.0527,5.0255,5.0033,5.044,5.1135,5.1716,5.0856,5.158,5.2436,5.0442,4.9652,4.9309,4.8499,4.9274,5.0606,5.1887,5.2851,5.485,0.0,6.1116,6.165,6.6202,6.7607,6.8281,6.904,6.9967,7.1108,7.2973,7.4023,7.504,7.5951,7.7684,7.8739,7.8432,7.7274,7.674,7.7785,7.7856,7.8195,7.8754,7.8786,7.8723,7.9005,8.0264,8.1151,8.179,8.3024,8.3918,8.4661,8.4883,8.5304,8.6015,8.5559,8.5624,8.6272,8.5591,8.5268,8.5365,8.6628,8.7923,8.9121,8.9186,8.9639,9.019,8.9575,8.9154,8.87,8.7405,8.6952,8.6952,2.4613,2.5027,2.5463,2.5761,2.6014,2.6313,2.6841,2.7093,2.7486,2.8432,2.8701,2.9413,3.0822,3.1984,3.3445,3.5493,3.9104,4.1653,4.2567,4.6752,4.9157,4.9084,5.0624,5.1537,5.161,5.2187,5.2812,5.351,5.3413,5.3534,5.3822,5.4351,5.4327,5.3846,5.4279,5.4063,5.3365,5.3293,5.2836,5.2139,5.1898,5.1513,5.1032,5.1129,5.1153,5.1175,5.0905,5.0443,0.0,5.0629,5.1463,5.2155,5.2029,5.2869,5.3771,5.2673,5.1932,5.1764,5.3498,5.378,5.4516,5.8551,5.9583,6.0526,6.4235,6.4937,6.5724,6.8899,6.9742,7.022,7.1203,7.2481,7.3685,7.4924,7.6269,7.7343,7.8308,7.9728,8.0709,8.1244,8.1454,8.1588,8.1227,8.0067,8.014,8.1857,8.1347,8.1185,8.1944,8.2514,8.3084,8.3374,8.3913,8.4361,8.4652,8.5494,8.6304,8.7016,8.7923,8.8538,8.8862,8.8959,8.8992,8.9057,8.9639,9.0222,9.0805,9.0805,9.0967,9.1194,9.0902,9.0805,9.0643,8.9218,8.8668,8.8668,2.5142,2.5555,2.6037,2.6404,2.6588,2.6795,2.7185,2.7231,2.7483,2.828,2.8487,2.9011,3.0178,3.0832,3.1902,3.3693,3.6964,3.9801,4.1846,4.6102,4.8724,4.906,5.0335,5.1297,5.1826,5.1754,5.2187,5.3173,5.3101,5.3245,5.363,5.4303,5.4327,5.3822,5.3966,5.375,5.3245,5.286,5.2475,5.2115,5.1994,5.161,5.1153,5.1393,5.1317,5.0937,5.0986,5.0519,4.9923,5.0305,5.1064,5.1854,5.1794,5.2906,5.3964,5.359,5.305,5.3423,5.673,5.7412,5.8285,6.33,6.4792,6.5274,6.696,6.7719,6.8562,7.0445,7.095,7.1494,7.2971,7.45,7.5917,7.7144,7.8678,7.9999,8.0832,8.1819,8.2654,8.3182,8.4505,8.502,8.4181,8.2589,8.2238,8.409,8.3095,8.296,8.4167,8.4199,8.4555,8.5365,8.5397,8.5656,8.6272,8.734,8.8117,8.8603,8.9963,9.0611,9.0611,9.0741,9.0708,9.0514,9.0708,9.0902,9.1129,9.1291,9.1485,9.168,9.1906,9.2208,9.2612,9.1763,9.1109,9.0652,2.5693,2.6106,2.645,2.6473,2.6887,2.7208,2.7231,2.7231,2.7313,2.7476,2.8022,2.8701,2.964,3.0419,3.1553,3.3164,3.5737,3.8599,4.1774,4.4058,4.6415,4.8964,4.9614,5.0191,5.0744,5.173,5.2018,5.1562,5.2572,5.3077,5.3101,5.4135,5.4327,5.3846,5.4351,5.4303,5.3798,5.3774,5.3774,5.3702,5.3221,5.2716,5.2187,5.1682,5.0661,4.9766,5.0745,5.0461,4.962,4.9284,4.9936,5.0622,4.9649,5.0867,5.259,5.2484,5.2742,5.369,5.6537,5.8589,6.0603,6.3423,6.5778,6.7719,6.9011,6.9321,6.9854,7.1737,7.2608,7.3586,7.542,7.6358,7.765,8.0664,8.1922,8.2786,8.3929,8.473,8.5142,8.5268,8.53,8.5591,8.6177,8.5656,8.4911,8.4296,8.3584,8.3486,8.4167,8.4199,8.5494,8.8279,8.8376,8.938,9.1421,9.1485,9.1518,9.155,9.0902,9.0611,9.0546,8.9218,8.8215,8.7599,8.8312,8.8992,8.9704,9.0352,9.1032,9.1744,9.2489,9.3728,9.5222,9.5727,9.4743,9.3231,2.6221,2.6634,2.6978,2.6978,2.7116,2.7231,2.7231,2.7231,2.7313,2.7429,2.8222,0.0,0.0,0.0,0.0,0.0,3.5352,3.7589,3.9753,4.3505,4.6054,4.6944,4.9205,5.0503,5.0696,5.1056,5.1321,5.1489,5.1489,5.1489,5.1513,5.2572,5.2788,5.2307,5.2836,5.2764,5.2259,5.1898,5.1754,5.1778,5.1946,5.1576,5.1173,5.2601,5.169,4.9949,0.0,5.0113,4.8292,4.8703,4.9356,5.0124,5.0542,5.1071,5.1843,5.3067,5.4968,5.7512,6.1029,6.3243,6.5261,6.8087,6.9686,7.0726,7.1147,7.1259,7.154,7.258,7.3585,7.4394,7.5005,7.77,8.0278,8.1275,8.344,8.5492,8.6823,8.7276,8.7405,8.7405,8.8247,8.8733,8.8538,8.6563,8.5559,8.6272,8.5235,8.53,8.6952,8.7049,8.7502,8.8474,8.9413,8.9801,8.9575,9.0481,9.0741,9.0287,9.0514,9.0838,9.1291,9.0838,9.0481,9.0255,9.0514,9.1133,9.2082,9.3269,9.4282,9.5203,9.6264,9.6956,9.757,9.8446,9.8326,9.7678,2.6726,2.7001,2.7231,2.7231,2.7231,0.0,0.0,0.0,0.0,0.0,0.0,0.0,0.0,0.0,0.0,0.0,0.0,3.6122,3.8118,4.1461,4.3794,4.4756,4.6944,4.8219,4.8435,4.857,4.8932,4.9493,4.9873,5.0186,5.0431,5.1682,5.2091,5.1778,5.1922,5.1802,5.1465,5.0936,5.1095,5.1583,5.1223,5.1071,5.1075,5.1921,5.0923,0.0,4.9831,4.8714,4.7075,4.7689,4.8437,4.9381,5.0888,5.2051,5.3231,5.5504,5.7571,6.0157,6.4737,6.7065,6.8712,7.1418,7.249,7.2952,7.2801,7.2817,7.3433,7.4611,7.5236,7.589,7.7318,7.9834,8.1954,8.2786,8.5332,8.7434,8.8441,8.8733,8.8895,8.8895,8.9899,9.032,8.9639,8.8117,8.747,8.815,8.734,8.7437,8.883,8.8895,8.9251,9.0028,9.0676,9.0805,9.0417,9.1291,9.1647,9.1485,9.1906,9.223,9.2457,9.2457,9.2165,9.1916,9.2383,9.304,9.3827,9.5134,9.6114,9.6798,9.7763,9.8544,9.9193,10.0075,10.0809,10.1139,2.7231,2.7231,2.7231,0.0,0.0,0.0,0.0,0.0,0.0,0.0,0.0,0.0,0.0,0.0,0.0,0.0,0.0,0.0,3.6819,3.8118,3.9898,4.2447,4.3168,4.377,4.4299,4.457,4.5078,4.5838,4.7617,4.8874,4.9752,5.132,5.2043,5.2163,5.1656,5.1438,5.139,5.0857,5.1541,5.2953,5.1114,5.097,5.1679,4.997,4.8346,4.7114,4.7197,4.6615,4.604,4.6679,4.7491,4.8557,5.0832,5.3798,5.6823,5.9565,6.0502,6.1964,6.752,6.9679,7.0879,7.317,7.4089,7.4269,7.3965,7.4306,7.5192,7.7349,7.7121,7.767,8.1289,8.2207,8.3087,8.4887,8.7146,8.8668,8.87,8.9316,8.9737,8.9737,9.0352,9.0481,8.9801,9.0384,9.0546,8.9866,8.9704,8.9672,8.9801,8.9801,9.0741,9.2781,9.2263,9.2554,9.3849,9.3882,9.4206,9.4821,9.4821,9.4465,9.3817,9.3817,9.3345,9.2414,9.3683,9.4407,9.4937,9.6197,9.6816,9.6919,9.7686,9.88,10.0337,10.0964,10.2175,10.3422,0.0,0.0,0.0,0.0,0.0,0.0,0.0,0.0,0.0,0.0,0.0,0.0,0.0,0.0,0.0,0.0,0.0,0.0,3.4222,3.6747,3.8695,3.9777,4.2182,4.3577,4.3746,4.413,4.4491,4.4756,4.5416,4.6336,4.7184,4.8283,4.9166,4.9871,4.9742,4.9666,4.964,4.9199,4.9186,4.9551,4.9525,4.9346,4.9091,4.9963,4.8875,4.6976,4.7921,4.7549,4.6679,4.7317,5.0312,5.4201,5.6962,5.9504,6.1882,6.4124,6.6124,6.8169,7.085,7.2735,7.4107,7.521,7.5678,7.5821,7.6122,7.5225,7.4344,7.4925,7.4391,7.403,7.4563,7.9225,8.3028,8.2935,8.747,9.1064,9.1615,9.1874,9.1971,9.1971,9.2586,9.2716,9.2036,9.3072,9.3493,9.2781,9.1259,9.1032,9.2651,9.2748,9.2975,9.3526,9.4432,9.4789,9.4627,9.4627,9.4432,9.4076,9.4076,9.4117,9.4229,9.4229,9.4306,9.4383,9.5627,9.6624,9.7664,9.9883,10.129,10.2072,10.3196,10.3871,10.4186,10.4399,10.4785,10.5129,0.0,0.0,0.0,0.0,0.0,0.0,0.0,0.0,0.0,0.0,0.0,0.0,0.0,0.0,0.0,0.0,0.0,0.0,0.0,3.4823,3.617,3.6699,3.8864,4.0042,4.0066,4.0708,4.1432,4.2279,4.249,4.3423,4.4784,4.6024,4.6968,4.756,4.8407,4.8746,4.872,4.8405,4.8709,0.0,0.0,4.8653,4.8731,4.8957,4.7897,4.6505,4.723,4.7927,4.8856,5.0977,5.4057,5.7426,6.06,6.3129,6.5458,6.8212,6.9897,7.1249,7.3141,7.4752,7.5851,7.6329,7.6627,7.6579,7.6225,7.5422,7.4639,7.4061,7.3596,7.3797,7.5131,7.9733,8.346,8.4312,8.8794,9.2327,9.2748,9.3072,9.3234,9.3234,9.359,9.3785,9.372,9.4432,9.4983,9.5177,9.3817,9.3331,9.4238,9.4594,9.4756,9.4756,9.5566,9.5792,9.5371,9.5371,9.5586,9.5872,9.6218,9.6693,9.7359,9.7556,9.778,9.7898,9.9173,10.0173,10.1027,10.304,10.4118,10.4827,10.5458,10.57,10.57,10.57,10.57,10.57,0.0,0.0,0.0,0.0,0.0,0.0,0.0,0.0,0.0,2.9839,3.0367,3.0834,0.0,0.0,0.0,0.0,0.0,0.0,0.0,0.0,3.338,3.3813,3.4847,3.54,3.54,3.6202,3.7436,3.908,3.9455,4.0425,4.2268,4.3821,4.4802,4.517,4.6769,4.7595,4.79,4.79,4.8706,5.0095,4.8402,4.8296,4.9001,0.0,4.6359,4.5895,4.6069,4.8043,5.1236,5.544,5.7797,5.9622,6.3233,6.5945,6.845,7.1881,7.2692,7.2778,7.478,7.5859,7.6637,7.7181,7.7507,7.7441,7.5697,7.5587,7.5202,7.3754,7.317,7.4139,7.8171,8.0604,8.3033,8.6077,8.9348,9.1712,9.2295,9.2878,9.3396,9.3785,9.3914,9.4206,9.4821,9.5048,9.5663,9.6894,9.6537,9.5987,9.5339,9.5922,9.6246,9.6246,9.6246,9.6355,9.6366,9.6463,9.7283,9.898,9.9619,10.0409,10.1504,10.1926,10.1953,10.1922,10.3057,10.3771,10.4279,10.5534,10.6021,10.6021,10.6021,10.6021,10.6021,10.6021,10.6021,10.6021,0.0,0.0,0.0,0.0,0.0,0.0,0.0,0.0,0.0,0.0,3.0767,3.0811,0.0,0.0,0.0,0.0,0.0,0.0,0.0,0.0,0.0,3.2755,3.3765,3.4318,3.4318,3.5256,3.593,3.6314,3.7054,3.7956,3.9196,3.9677,4.0972,4.2766,4.316,4.4059,4.5474,4.5474,4.6003,4.6771,4.6454,4.6345,4.6505,4.6185,4.5982,0.0,4.7085,4.8478,5.0685,5.5843,5.9915,6.3622,6.7688,7.0822,7.3284,7.4538,7.524,7.5766,7.6138,7.6462,7.7024,7.9456,8.0051,7.9926,7.8929,7.7147,7.4685,7.1509,6.9518,6.9317,7.2272,7.4646,7.7398,8.1479,8.3681,8.6077,8.9639,9.0255,9.1194,9.3526,9.4335,9.4756,9.4886,9.5954,9.6732,9.6958,9.7476,9.7671,9.7574,9.7671,9.7736,9.7736,9.7736,9.784,9.8165,9.8756,9.9546,10.0731,10.1467,10.2251,10.3221,10.2727,10.2936,10.3781,10.4446,10.5152,10.5896,10.724,10.7698,10.7698,10.7698,10.7698,10.7698,10.7698,10.7698,10.7698,0.0,0.0,0.0,0.0,0.0,0.0,0.0,2.9412,3.0445,3.2018,3.216,3.2158,3.2241,3.1896,3.1673,0.0,0.0,0.0,0.0,0.0,0.0,3.2058,3.2827,3.3236,3.3236,3.427,3.5064,3.5617,0.0,3.6356,3.7344,3.7931,3.9024,4.0631,4.1598,4.2806,4.4239,4.4586,4.4993,4.5401,4.575,4.5895,4.5895,4.5895,4.6098,0.0,4.7433,4.903,5.1106,5.423,5.8086,6.2549,6.8428,7.1596,7.3489,7.4223,7.5451,7.6322,7.5654,7.6532,7.8094,7.9749,8.096,8.1146,7.8189,7.6495,7.4084,6.9116,6.7567,6.7942,7.0436,7.2929,7.5747,7.9341,8.3001,8.611,8.8182,9.0384,9.2295,9.3655,9.4465,9.5048,9.5436,9.6375,9.7153,9.7541,9.7897,9.8124,9.8124,9.8124,9.8124,9.8124,9.8633,9.9109,9.9645,10.0485,10.1674,10.3035,10.3658,10.452,10.5529,10.5374,10.5846,10.6775,10.6662,10.7057,10.7804,10.7987,10.8091,10.8091,10.8091,10.8091,10.8091,10.8091,10.8091,10.8091,0.0,0.0,0.0,0.0,0.0,0.0,0.0,3.0514,3.1711,3.3151,3.3545,3.3557,3.3126,3.2361,3.1913,0.0,0.0,0.0,0.0,0.0,0.0,0.0,3.2082,3.2322,3.2322,0.0,0.0,3.5112,3.4919,0.0,0.0,0.0,0.0,0.0,4.0286,4.1764,4.3053,4.3976,4.4527,0.0,0.0,4.5895,4.5895,0.0,0.0,0.0,0.0,4.9262,5.1396,5.2905,5.5702,5.9817,6.6533,6.984,7.1367,7.2503,7.4102,7.5596,7.5446,7.6942,7.8963,8.0343,8.1979,8.215,7.7113,7.5839,7.397,6.7483,6.655,6.7651,6.9982,7.1958,7.4257,7.7463,8.1349,8.4588,8.6272,8.9542,9.2263,9.3655,9.4594,9.5339,9.5922,9.6732,9.7476,9.8059,9.838,9.8523,9.8523,9.8523,9.8523,9.8775,9.9691,10.0583,10.1285,10.213,10.3584,10.518,10.5759,10.6542,10.7416,10.7702,10.8376,10.9197,10.8269,10.8376,10.9197,10.8376,10.8091,10.8091,10.8091,10.8091,10.8091,10.8091,10.8091,10.8091,0.0,0.0,0.0,0.0,0.0,0.0,0.0,3.1019,3.2397,3.4349,3.4439,3.4256,3.397,3.3173,3.2432,0.0,0.0,0.0,0.0,0.0,0.0,0.0,0.0,0.0,0.0,0.0,0.0,3.3501,3.439,0.0,0.0,0.0,0.0,0.0,0.0,3.9492,4.123,4.2789,0.0,0.0,0.0,0.0,0.0,0.0,0.0,0.0,0.0,4.8682,5.0394,5.3625,5.4984,5.633,6.2027,6.5192,6.742,7.0163,7.1959,7.3702,7.7313,7.8489,7.9535,8.2858,8.4393,8.3657,7.8775,7.7105,7.473,6.7586,6.6161,6.7068,6.9885,6.9529,7.0144,7.4322,7.3804,7.539,8.258,8.4458,8.7243,9.3137,9.5048,9.589,9.5954,9.7217,9.8027,9.8092,9.9025,9.9552,9.9552,9.9552,9.9967,10.0919,10.1581,10.2488,10.3495,10.4073,10.5297,10.698,10.7054,10.7416,10.795,10.7341,10.7805,10.9161,10.7698,10.7877,10.9197,10.8376,10.8091,10.8091,10.8091,10.8091,10.8091,10.8091,10.8091,10.8198,0.0,0.0,0.0,0.0,0.0,0.0,3.0859,3.1754,3.2925,3.4969,3.5166,3.5051,3.4949,3.4064,3.3031,3.1817,0.0,0.0,0.0,0.0,0.0,0.0,0.0,0.0,0.0,0.0,3.3284,3.3284,3.4318,0.0,0.0,0.0,0.0,0.0,0.0,3.9803,4.1643,4.2616,0.0,0.0,0.0,0.0,0.0,0.0,0.0,0.0,0.0,0.0,5.0511,5.1947,5.3506,5.5365,5.7595,6.0343,6.3584,6.7484,7.1359,7.46,7.5932,7.8698,8.1672,8.3196,8.4755,8.4314,7.7996,7.633,7.4127,6.6938,6.5805,6.6452,6.7618,6.8039,6.8752,7.0468,7.2184,7.5196,8.0507,8.3713,8.7437,9.2586,9.4465,9.4821,9.3526,9.6246,9.838,9.9025,10.0138,10.0886,10.1551,10.102,10.0986,10.1843,10.2743,10.3707,10.4911,10.5829,10.6653,10.7738,10.7738,10.788,10.8091,10.8269,10.8697,10.9268,10.859,10.8697,10.9268,10.8983,10.8483,10.8091,10.859,10.8483,10.8091,10.8091,10.8376,10.8876,0.0,0.0,0.0,0.0,0.0,2.9573,3.1456,3.2167,3.3155,3.506,3.5175,3.5155,3.5222,3.4199,3.3078,3.207,3.1841,0.0,0.0,0.0,0.0,0.0,0.0,0.0,0.0,0.0,3.3356,3.3525,3.4559,3.5234,0.0,0.0,3.7355,3.8385,0.0,0.0,0.0,0.0,0.0,0.0,0.0,0.0,0.0,0.0,0.0,0.0,0.0,0.0,0.0,0.0,0.0,5.468,5.5736,5.7856,6.1029,6.5388,6.9735,7.3506,7.5393,7.8754,8.2201,8.3447,8.4411,8.3486,7.7172,7.5067,7.2638,6.6323,6.561,6.6096,6.6096,6.7262,6.8201,6.8201,7.0921,7.4581,7.9017,8.2644,8.6336,9.0417,9.2165,9.269,9.1955,9.6238,9.9306,10.0105,10.1187,10.2237,10.3097,10.2751,10.2683,10.3121,10.4229,10.5215,10.6135,10.7019,10.7667,10.8091,10.8091,10.8198,10.8483,10.8983,10.9375,10.959,10.959,10.959,10.959,10.959,10.9197,10.8483,10.9304,10.909,10.8483,10.8697,10.909,10.9661,0.0,0.0,0.0,0.0,0.0,0.0,3.1502,3.2167,3.304,3.4601,3.4349,3.4129,3.4356,3.3064,3.23,3.277,3.2094,0.0,0.0,0.0,0.0,0.0,0.0,0.0,0.0,0.0,3.3525,3.403,3.5088,3.6455,3.7939,3.7939,3.86,3.9633,0.0,0.0,0.0,0.0,0.0,0.0,0.0,0.0,4.511,0.0,0.0,0.0,0.0,0.0,0.0,0.0,0.0,0.0,0.0,5.8685,6.0009,6.4227,6.6506,6.9166,7.6712,7.8785,7.9889,8.418,8.3713,8.1025,7.6718,7.3512,7.0241,6.5902,6.561,6.6096,6.6096,6.7262,6.8201,6.8201,6.8849,7.1569,7.8014,8.0151,8.2418,8.6045,8.7729,8.948,9.1982,9.7754,10.132,10.132,10.2237,10.3063,10.381,10.4847,10.5424,10.5424,10.65,10.7234,10.7199,10.7773,10.8091,10.8091,10.8091,10.8483,10.9268,10.9268,10.9697,11.041,11.041,11.041,11.041,11.041,10.9982,10.9375,11.0125,10.9911,10.9375,11.0125,11.041,11.0589,0.0,0.0,0.0,0.0,0.0,0.0,0.0,3.1387,3.1892,3.3063,3.3063,3.3208,3.3877,3.2831,3.23,3.2864,3.2003,0.0,0.0,0.0,0.0,0.0,0.0,0.0,0.0,0.0,3.4054,3.4583,3.5641,3.6822,3.8063,3.8723,3.959,4.0629,4.17,4.2314,0.0,0.0,0.0,0.0,0.0,4.4862,4.4676,0.0,0.0,0.0,0.0,0.0,0.0,0.0,0.0,0.0,0.0,0.0,0.0,6.2236,6.574,6.9382,7.2234,7.4815,7.6856,7.7769,7.7852,7.6621,7.2282,7.1019,6.9496,6.5222,6.5287,6.6096,6.6096,6.6873,6.7813,6.8784,6.8719,7.1148,7.8596,8.1113,8.4478,9.1105,9.2898,9.4635,9.7321,9.8279,9.9515,10.1386,10.2932,10.4055,10.4882,10.6048,10.6612,10.6612,10.698,10.7416,10.7738,10.7985,10.8091,10.8091,10.8091,10.8483,10.9268,10.9804,10.9911,10.9697,11.0803,11.0589,10.9697,11.0803,11.0803,11.0125,11.091,11.0696,11.0089,11.0303,11.1052,11.2146,0.0,0.0,0.0,0.0,0.0,0.0,0.0,3.1019,3.1295,3.2099,3.2053,3.2287,3.3099,3.2178,3.1879,3.2653,3.1822,0.0,0.0,0.0,0.0,0.0,0.0,0.0,0.0,3.3332,3.4198,3.5136,3.5978,3.739,3.9265,3.9855,4.092,4.2361,4.297,4.3497,0.0,0.0,0.0,0.0,4.4705,4.4612,4.4397,0.0,0.0,0.0,0.0,0.0,0.0,0.0,0.0,0.0,0.0,0.0,0.0,0.0,6.3829,6.6971,6.9335,7.1796,7.3868,7.4451,7.416,7.2929,6.995,6.8816,6.7553,6.4606,6.493,6.5708,6.5708,6.6517,6.7813,6.9788,6.9011,7.0857,7.8499,7.979,8.2757,9.0295,9.4064,9.6743,9.817,9.9193,10.0258,10.1865,10.3294,10.453,10.5215,10.6471,10.7308,10.7524,10.7488,10.7738,10.8091,10.8091,10.8091,10.8091,10.8091,10.8697,10.9697,10.9911,11.0089,11.0196,11.1195,11.1088,0.0,11.1517,11.1588,11.091,11.1695,11.1588,11.091,11.1195,11.2087,11.3349,0.0,0.0,0.0,0.0,0.0,0.0,0.0,3.095,3.1134,3.1593,3.1249,3.1318,3.2213,3.1344,3.1064,3.2254,0.0,0.0,0.0,0.0,0.0,0.0,0.0,0.0,3.2539,3.3116,3.415,3.5665,3.6242,3.8113,4.1272,4.1272,4.2387,4.4481,4.4481,4.4453,0.0,0.0,0.0,0.0,4.4705,4.4612,0.0,0.0,0.0,0.0,0.0,0.0,0.0,0.0,0.0,0.0,0.0,0.0,0.0,0.0,0.0,0.0,0.0,6.927,7.05,7.3059,7.1763,6.9658,6.8914,6.6744,0.0,6.3991,6.4412,6.4898,6.4995,6.629,6.8201,7.0857,6.9756,7.0954,7.7787,7.7707,7.9382,8.578,9.2727,9.6671,9.5784,10.0324,10.2884,10.2243,10.3452,10.4481,10.5046,10.6521,10.7524,10.8091,10.8091,10.8091,10.8091,10.8091,10.8091,10.8091,10.8091,10.8911,11.041,10.9697,11.0196,11.1588,11.1695,11.1695,11.1695,11.248,11.2409,11.1802,11.248,11.2337,11.191,11.2625,11.3377,11.4312,0.0,0.0,0.0,0.0,0.0,0.0,0.0,0.0,0.0,0.0,3.0491,3.0491,3.0721,3.0696,3.0784,0.0,0.0,0.0,0.0,0.0,0.0,0.0,0.0,0.0,3.3092,3.4006,3.504,3.6218,3.7156,3.9055,4.1873,4.1873,4.2977,4.5127,4.5127,4.4846,0.0,0.0,0.0,0.0,4.4518,4.4518,0.0,0.0,0.0,0.0,4.7346,4.9164,0.0,0.0,0.0,0.0,0.0,0.0,0.0,0.0,6.0461,6.1303,6.2469,0.0,6.4671,6.4768,6.4736,6.4477,0.0,6.3473,6.3182,6.2469,6.289,6.3732,6.4833,6.71,6.9011,6.9691,7.1213,7.348,7.6815,8.4423,9.0471,9.2827,9.8753,10.1887,9.9926,10.1352,10.2326,10.2028,10.3259,10.4631,10.5743,10.7098,10.8021,10.8091,10.8091,10.8091,10.8091,10.8091,10.8091,10.8091,10.8091,10.8911,11.041,11.0196,11.0696,11.1624,11.2302,11.2195,11.1695,11.248,11.2694,11.2516,11.2694,11.302,11.337,11.3586,11.4577,11.5827,0.0,0.0,0.0,0.0,0.0,0.0,0.0,0.0,0.0,0.0,0.0,3.0216,3.0216,3.0487,0.0,0.0,0.0,0.0,0.0,0.0,0.0,0.0,0.0,3.2178,3.326,3.4054,3.5112,3.6411,3.7721,3.9496,4.169,4.2166,4.328,4.4902,4.4902,4.4734,0.0,0.0,0.0,4.4425,4.4425,0.0,0.0,0.0,0.0,0.0,4.7654,4.9614,0.0,5.3528,5.5128,5.6589,0.0,0.0,0.0,0.0,5.9749,6.0235,5.9878,6.1303,6.289,6.2825,6.2858,6.2858,6.2825,6.2599,6.2275,6.1886,6.2372,6.3117,6.3894,6.6647,6.9529,7.1861,7.4203,7.6823,8.0122,8.8295,9.4298,9.5142,10.0377,10.3298,10.178,10.1987,10.1981,10.1378,10.2994,10.4464,10.5429,10.7169,10.8091,10.8091,10.8091,10.8091,10.8091,10.8091,10.8091,10.8091,10.8483,10.9304,11.041,11.041,11.1017,11.2195,11.2195,11.2195,11.2195,11.2587,11.2983,11.3449,11.3449,11.3762,11.4541,11.4541,11.5262,11.632,0.0,0.0,0.0,0.0,0.0,0.0,0.0,0.0,0.0,0.0,0.0,0.0,0.0,0.0,0.0,0.0,0.0,0.0,0.0,0.0,0.0,0.0,3.1697,3.2202,3.338,3.3813,3.4847,3.6531,3.8237,3.9956,4.1611,4.2789,4.3863,4.4678,4.4509,4.4425,0.0,0.0,4.4425,4.4425,4.4425,0.0,0.0,0.0,0.0,0.0,0.0,0.0,0.0,5.3958,5.5815,5.7345,5.7052,0.0,0.0,0.0,0.0,0.0,5.9036,6.0818,6.289,6.3667,6.3214,6.2825,6.3797,6.2696,6.1498,6.1498,6.2404,6.3469,6.4081,6.7296,7.1382,7.5871,7.7982,8.0617,8.4866,9.0606,9.4679,9.5259,10.0103,10.316,10.2381,10.2278,10.2041,10.1297,10.29,10.422,10.4792,10.674,10.7805,10.7877,10.7877,10.7984,10.8091,10.8091,10.8091,10.8091,10.8876,10.9697,11.041,11.0517,11.1409,11.2801,11.2087,11.2232,11.3019,11.3019,11.3519,11.421,11.421,11.464,11.5321,11.5321,11.5827,11.6536,0.0,0.0,0.0,0.0,0.0,0.0,0.0,0.0,0.0,0.0,0.0,0.0,0.0,0.0,0.0,0.0,0.0,0.0,0.0,0.0,0.0,3.2346,3.1913,3.237,3.3885,3.4006,3.504,3.7084,3.9283,4.1542,4.3599,4.5146,4.5926,4.597,4.4902,4.4425,4.4425,4.4425,4.4425,4.4425,4.4425,0.0,0.0,0.0,0.0,0.0,0.0,0.0,0.0,5.3496,5.494,5.6589,5.6178,0.0,0.0,0.0,0.0,0.0,6.0008,6.1206,6.2145,6.2858,6.2081,6.1627,6.357,6.1951,6.004,6.004,6.2534,6.5899,6.9777,7.422,7.8031,8.0274,8.1817,8.3759,8.6612,9.2165,9.5872,9.5361,10.0583,10.3986,10.2966,10.3012,10.3049,10.3199,10.3659,10.3977,10.4567,10.5628,10.6414,10.7092,10.7092,10.7413,10.8091,10.8091,10.8091,10.8091,10.8876,10.9697,11.041,11.1124,11.1909,11.2801,11.2694,11.3092,11.3762,11.3762,11.4312,11.4899,11.4899,11.5416,11.6103,11.6103,11.6587,11.7191,0.0,0.0,0.0,0.0,0.0,0.0,0.0,0.0,0.0,0.0,0.0,0.0,0.0,0.0,0.0,0.0,0.0,0.0,0.0,0.0,3.237,3.2899,3.2947,3.3428,3.4438,3.5016,3.6497,3.9074,4.1304,4.3441,4.5418,4.6024,4.5956,4.524,4.4678,4.4425,4.4425,4.4425,4.4425,4.4425,0.0,0.0,0.0,0.0,0.0,0.0,0.0,0.0,0.0,0.0,5.4514,5.6395,5.5634,0.0,0.0,0.0,0.0,0.0,5.8324,5.9555,6.1595,6.5384,6.6161,6.6452,6.8201,6.8535,6.7424,6.3372,6.5861,6.932,7.1456,7.4878,7.9628,8.6533,8.8909,9.0621,9.318,9.6303,9.8269,9.8455,10.1933,10.4168,10.3718,10.3643,10.3642,10.373,10.3694,10.4044,10.4629,10.5307,10.5914,10.6199,10.6699,10.7092,10.7413,10.7877,10.8091,10.8091,10.8876,10.9697,11.041,11.1231,11.2016,11.2765,11.3342,11.3658,11.3969,11.4441,11.5069,11.5661,11.5661,11.6156,11.6886,11.6886,11.7144,11.7433,0.0,0.0,0.0,0.0,0.0,0.0,0.0,0.0,0.0,0.0,0.0,0.0,0.0,0.0,0.0,0.0,0.0,0.0,0.0,3.2022,3.2731,3.326,3.3885,3.4583,3.5352,3.6472,3.8403,4.1241,4.3596,4.5474,4.7087,4.664,4.583,4.4621,4.4481,4.4425,4.4425,4.4425,4.4425,4.4425,0.0,0.0,0.0,0.0,0.0,0.0,0.0,0.0,0.0,0.0,0.0,0.0,0.0,0.0,0.0,5.6705,5.7385,5.8162,5.745,5.8939,6.2048,6.7651,6.9205,7.0312,7.3607,7.4996,7.413,6.8961,7.1491,7.4805,7.5372,7.7633,8.2218,9.0539,9.3196,9.5278,9.8389,9.9745,10.0676,10.1263,10.3232,10.4449,10.4715,10.4443,10.4185,10.4223,10.3798,10.3828,10.4344,10.4915,10.5236,10.5414,10.6021,10.6521,10.6913,10.7484,10.7877,10.8091,10.8876,10.9697,11.041,11.1231,11.2089,11.3092,11.3658,11.4174,11.4505,11.5093,11.5754,11.6624,11.6624,11.6849,11.7433,11.7433,11.7433,11.7396,0.0,0.0,0.0,0.0,0.0,0.0,0.0,0.0,0.0,0.0,0.0,0.0,0.0,0.0,0.0,0.0,0.0,0.0,0.0,3.1931,3.2731,3.326,3.4246,3.5473,3.6988,3.8314,4.0256,4.3068,4.5874,4.7823,4.8789,4.7684,4.6476,4.524,4.4678,4.4425,4.4425,4.4425,4.4425,4.449,4.5138,0.0,0.0,0.0,0.0,0.0,0.0,0.0,0.0,0.0,0.0,0.0,0.0,0.0,5.745,5.6705,5.8421,6.0397,5.9684,6.1562,6.4445,6.7521,6.7327,6.8826,7.7773,7.6908,7.4604,7.624,8.0136,8.3847,8.6087,8.8003,8.9215,8.866,9.0338,9.347,9.8137,10.0676,10.2056,10.2091,10.4029,10.5518,10.6092,10.5278,10.5039,10.5526,10.4171,10.3452,10.3487,10.3487,10.388,10.4701,10.4701,10.5486,10.6913,10.6984,10.7377,10.8091,10.8876,10.9697,11.041,11.1231,11.2411,11.3794,11.3933,11.4739,11.6066,11.623,11.6712,11.7312,11.7312,11.7387,11.7433,11.7433,11.7433,11.7516,0.0,0.0,0.0,0.0,0.0,0.0,0.0,0.0,0.0,0.0,0.0,0.0,0.0,0.0,0.0,0.0,0.0,0.0,0.0,3.2309,3.3212,3.3741,3.5088,3.6545,3.8083,3.9719,4.2288,4.5819,4.7968,4.889,4.8415,4.7207,4.597,4.4734,4.4509,4.4425,4.4425,4.4425,4.4425,4.449,4.523,4.5504,0.0,0.0,0.0,0.0,0.0,0.0,0.0,0.0,5.2922,5.4306,5.4369,5.5537,5.6834,5.6575,5.7255,5.8065,5.7806,6.1522,6.633,6.9583,7.1355,7.3492,7.8023,8.1713,8.332,8.0636,8.3689,8.7131,8.8033,8.9474,9.133,9.3737,9.3155,9.4121,9.8837,10.109,10.2278,10.2746,10.4715,10.6162,10.6759,10.6423,10.6028,10.5736,10.4701,10.4094,10.4094,10.3701,10.3773,10.4594,10.5022,10.5593,10.6128,10.7591,10.8833,10.9525,10.894,10.9227,11.0394,11.1148,11.2417,11.4049,11.5043,11.5771,11.6283,11.6763,11.7107,11.7433,11.7433,11.7433,11.7433,11.7433,11.7598,11.7805,0.0,0.0,0.0,0.0,0.0,0.0,0.0,0.0,0.0,0.0,0.0,0.0,0.0,0.0,0.0,0.0,0.0,0.0,3.1229,3.25,3.3428,3.3789,3.5304,3.7167,3.9244,4.0848,4.3493,4.7077,4.8792,4.8949,4.7516,4.6476,4.5521,4.4706,4.4509,4.4537,4.4678,4.4481,4.4425,4.449,4.5475,4.5837,0.0,0.0,0.0,0.0,0.0,0.0,0.0,0.0,5.2219,5.3501,5.4126,5.5345,5.651,5.651,5.7611,5.868,5.7773,6.254,6.8247,7.0202,7.3773,7.74,7.9575,8.3654,8.6406,8.4892,8.7987,9.0783,8.9881,9.0453,9.2065,9.5022,9.4306,9.4773,9.894,10.0931,10.2387,10.3057,10.4857,10.6512,10.7164,10.7026,10.6699,10.6128,10.52,10.4701,10.4915,10.4201,10.4094,10.4915,10.5414,10.5914,10.6485,10.8091,10.9474,11.0757,10.9747,10.9993,11.1515,11.2131,11.3176,11.4705,11.5754,11.6373,11.6675,11.7228,11.7433,11.7433,11.7433,11.7433,11.7396,11.7524,11.7805,11.7969,0.0,0.0,0.0,0.0,0.0,0.0,0.0,0.0,0.0,0.0,3.0216,0.0,0.0,0.0,0.0,0.0,0.0,0.0,3.0984,3.2408,3.3284,3.3284,3.4775,3.7147,4.0376,4.1655,4.3641,4.6374,4.818,4.8078,4.6279,4.5633,4.5324,4.5296,4.4678,4.4762,4.5268,4.4678,4.4425,4.449,4.5987,4.6491,4.6667,0.0,0.0,0.0,0.0,0.0,0.0,0.0,5.1986,5.2973,5.4301,5.5596,5.651,5.651,6.0073,6.3376,6.0526,6.5101,7.0367,6.9008,7.3571,7.9398,8.333,8.1677,8.1557,8.9203,9.3778,9.559,9.2586,9.1953,9.1748,9.1032,9.2737,9.5183,9.8355,10.0665,10.2222,10.2988,10.4736,10.6314,10.7093,10.7026,10.6913,10.6913,10.5486,10.4915,10.57,10.5022,10.4915,10.57,10.57,10.6485,10.8091,10.8091,10.9259,11.1587,11.1587,11.2348,11.3889,11.3889,11.4835,11.6283,11.6283,11.6726,11.7433,11.7433,11.7433,11.7433,11.7433,11.7396,11.7516,11.7885,11.8006,11.8125,0.0,0.0,0.0,0.0,0.0,0.0,0.0,0.0,0.0,3.0216,3.0216,0.0,0.0,0.0,0.0,0.0,0.0,0.0,3.0984,3.1537,3.2309,3.326,3.5153,3.7172,3.9197,4.2222,4.4995,4.7568,4.7651,4.7263,4.6279,4.5633,4.5099,4.4706,4.4931,4.4931,4.4678,4.4481,4.4425,4.4546,4.6454,4.6904,4.6726,0.0,0.0,0.0,0.0,0.0,0.0,0.0,0.0,0.0,5.4218,5.6272,5.8097,5.8615,6.0882,6.3149,6.2825,6.925,7.5839,7.4366,7.9061,8.4211,8.5373,8.4426,8.3942,8.6273,9.2382,9.621,9.2577,9.2362,9.3464,9.6097,9.5127,9.5469,9.9615,10.1691,10.3119,10.4178,10.5814,10.706,10.7773,10.7772,10.7484,10.6913,10.6485,10.6306,10.6521,10.5807,10.5736,10.6521,10.6521,10.733,10.8907,11.0023,11.1733,11.4066,11.4579,11.4562,11.3917,11.4505,11.5304,11.6281,11.6762,11.7228,11.7433,11.7433,11.7433,11.7433,11.7433,11.7598,11.781,11.7965,11.843,11.891,0.0,0.0,0.0,0.0,0.0,0.0,3.0216,3.0216,3.0216,3.0216,3.0216,3.0216,0.0,0.0,0.0,3.0216,3.0487,0.0,3.0984,3.1608,3.2659,3.4151,3.5774,3.7749,3.9947,4.2923,4.5043,4.6279,4.6392,4.6139,4.5549,4.5661,4.5521,4.5183,4.5802,4.5745,4.5155,4.4874,4.495,4.5352,4.6865,4.7407,4.7463,0.0,0.0,0.0,0.0,0.0,0.0,0.0,0.0,0.0,5.4562,5.6647,5.8713,5.9166,6.2451,6.6053,6.6511,7.334,8.0209,7.9904,8.3534,8.7191,8.7181,8.7464,8.7811,8.8115,9.3553,9.7528,9.5492,9.5207,9.6143,9.8768,9.7678,9.7506,10.0822,10.2309,10.3637,10.518,10.6423,10.7276,10.8019,10.8091,10.7877,10.7413,10.7092,10.702,10.7377,10.6592,10.6521,10.7377,10.7688,10.8382,10.9674,11.0874,11.2664,11.5068,11.5584,11.5614,11.5284,11.5802,11.6318,11.6727,11.721,11.7433,11.7433,11.7433,11.7479,11.7606,11.7606,11.7885,11.8277,11.8431,11.8838,11.9269,0.0,0.0,3.0216,0.0,0.0,3.0216,3.0216,3.0216,3.0216,3.0216,3.0216,3.0216,0.0,0.0,0.0,3.0216,3.0397,3.0668,3.0984,3.2198,3.3703,3.5495,3.6919,3.912,4.2167,4.3565,4.4059,4.3497,4.4678,4.4931,4.4369,4.5689,4.6251,4.6223,4.6841,4.6785,4.6167,4.5521,4.5713,4.646,4.7193,4.7882,4.8585,4.9396,0.0,0.0,0.0,0.0,0.0,0.0,0.0,0.0,5.502,5.6867,5.8551,5.8615,6.4152,7.0367,7.0728,7.6641,8.3194,8.4898,8.7229,8.9087,8.9204,9.0973,9.2577,9.2521,9.5938,9.9021,9.9285,9.9159,9.909,9.978,9.9952,10.0609,10.1874,10.2755,10.39,10.5854,10.667,10.7306,10.7984,10.8091,10.8091,10.8091,10.7413,10.7306,10.8091,10.7517,10.741,10.816,10.8907,10.9665,11.0595,11.1273,11.2895,11.512,11.5194,11.6023,11.7433,11.7433,11.7433,11.7433,11.7433,11.7433,11.7396,11.7359,11.7724,11.8006,11.7969,11.8317,11.8654,11.9091,11.9269,11.9521,0.0,0.0,3.0216,3.0216,0.0,0.0,3.0216,3.0216,3.0216,3.0216,3.0216,3.0216,3.0216,3.0216,0.0,3.0216,3.0216,3.0487,3.0984,3.193,3.3439,3.547,3.9055,4.1869,4.3798,4.377,4.3638,4.3497,4.4228,4.4284,4.3722,4.5464,4.6026,4.5549,4.6195,4.6139,4.5493,4.4874,4.506,4.5825,4.6988,4.7614,4.7951,4.9212,4.9251,0.0,0.0,0.0,0.0,0.0,0.0,0.0,5.502,5.651,5.7903,5.8486,6.2593,6.7753,7.0798,7.6675,8.2604,8.5369,8.9594,9.3399,9.4489,9.6106,9.5629,8.9782,9.45,9.8721,9.5879,9.7665,9.9711,9.9849,10.0828,10.1769,10.2545,10.4182,10.5641,10.6633,10.7344,10.7877,10.8091,10.8091,10.8091,10.8091,10.7912,10.7877,10.8091,10.8496,10.8863,10.9043,10.9656,11.0644,11.2123,11.3036,11.4249,11.5883,11.6588,11.708,11.7433,11.7433,11.7433,11.7433,11.7433,11.7433,11.7396,11.7687,11.7927,11.7969,11.8318,11.8728,11.9123,11.9231,11.9816,12.0586,0.0,0.0,0.0,0.0,0.0,0.0,0.0,0.0,3.0514,3.0239,3.0216,3.0216,3.0216,3.0216,0.0,0.0,3.0216,3.0397,3.0781,3.1746,3.3808,3.7194,4.0507,4.2842,4.3947,4.3076,4.2598,4.2598,4.2907,4.3216,4.3526,4.5408,4.5942,4.538,4.6307,4.6223,4.5296,4.5364,4.5752,4.6573,4.7614,4.826,4.8736,4.9443,4.9251,4.8696,4.9435,0.0,0.0,0.0,0.0,0.0,0.0,0.0,5.8162,5.8518,6.2769,6.8238,7.2776,7.8085,8.336,8.7465,9.1354,9.4572,9.571,9.7434,9.7724,9.4078,9.6795,9.9285,9.7206,9.8549,9.9999,10.0263,10.1264,10.2386,10.3618,10.5037,10.6387,10.7344,10.7805,10.8091,10.8091,10.8091,10.8091,10.8091,10.8091,10.83,10.864,10.9007,10.9402,10.9715,11.0426,11.1221,11.2012,11.2797,11.4021,11.5613,11.6095,11.6727,11.7433,11.7433,11.7433,11.7433,11.7433,11.7479,11.7724,11.7927,11.8202,11.8618,11.88,11.9387,12.0111,12.0111,12.0737,12.1704,0.0,0.0,0.0,0.0,0.0,0.0,0.0,0.0,0.0,3.0285,3.0216,3.0216,3.0216,3.0216,3.0216,0.0,0.0,0.0,3.0578,3.2064,3.4883,3.9144,4.1471,4.2767,4.316,4.2036,4.1446,4.1446,4.1446,4.2093,4.3385,4.5155,4.5745,4.538,4.642,4.6307,4.5324,4.5967,4.6712,4.7377,4.8115,4.887,4.9497,4.9497,4.9127,4.8696,4.9435,5.0611,5.1922,5.2776,0.0,0.0,0.0,0.0,5.8065,5.8065,6.2297,6.8115,7.2926,7.8514,8.4249,8.9708,9.2675,9.4468,9.5227,9.7055,9.8814,9.9538,9.9814,9.9883,9.9883,9.9999,10.0229,10.0683,10.1646,10.2895,10.472,10.5713,10.6672,10.8019,10.8091,10.8091,10.8091,10.8091,10.8091,10.8091,10.816,10.8573,10.9205,10.9427,10.9883,11.0499,11.1213,11.1594,11.1594,11.228,11.3421,11.4795,11.4907,11.5761,11.7293,11.7293,11.7367,11.7479,11.7479,11.7687,11.8085,11.8163,11.858,11.9193,11.9376,12.0111,12.1021,12.1211,12.1817,12.2613,0.0,0.0,0.0,0.0,0.0,0.0,0.0,0.0,0.0,0.0,3.0216,3.0216,3.0216,3.0216,3.0216,3.0216,3.0216,3.0306,3.0578,0.0,0.0,3.9925,4.1625,4.2345,4.1868,4.1165,4.0828,4.0828,4.0828,4.1474,4.2739,4.4059,4.4902,4.5324,4.5493,4.5493,4.5296,4.5481,4.6043,4.6697,4.7426,4.814,4.8758,4.8758,4.8696,4.8696,4.9435,5.03,5.129,5.2618,5.3706,0.0,0.0,0.0,5.583,5.583,5.8247,6.1653,6.4972,7.3898,8.3736,9.0259,9.3054,9.4468,9.5227,9.6641,9.8055,9.878,9.9435,9.9883,9.9883,10.0343,10.0683,10.083,10.2308,10.3836,10.4792,10.5996,10.7059,10.7984,10.8091,10.8091,10.8091,10.8091,10.8091,10.8091,10.8741,10.9106,10.9205,11.0371,11.1199,11.1176,11.2004,11.2368,11.2368,11.3154,11.3718,11.4015,11.4721,11.5664,11.6919,11.6919,11.7293,11.7927,11.7927,11.8125,11.8468,11.891,11.9123,11.9338,12.0405,12.0879,12.1097,12.1817,12.2613,12.3409,0.0,0.0,0.0,0.0,0.0,0.0,0.0,0.0,0.0,0.0,0.0,3.0216,3.0216,3.0216,3.0216,3.0216,3.0216,3.0512,3.1337,3.3767,3.6311,3.8917,4.0074,4.0765,4.1109,4.0491,4.0182,4.0182,4.0182,4.1193,4.3104,4.3638,4.4228,4.4818,4.4818,4.4818,4.4884,4.5681,4.605,4.6107,4.7583,4.9059,5.0236,4.9066,4.9589,5.0759,4.9528,4.9895,5.1069,5.167,5.3004,5.447,5.4762,0.0,0.0,0.0,5.6316,5.8722,6.5453,7.445,8.3123,8.7707,9.0907,9.3296,9.4503,9.5606,9.6745,9.7917,9.8973,9.9858,10.0274,10.057,10.1018,10.1606,10.2811,10.4083,10.5178,10.617,10.7199,10.7984,10.8091,10.8091,10.8091,10.8091,10.83,10.8741,10.9007,10.9596,11.0408,11.1001,11.1594,11.1967,11.2294,11.2529,11.2529,11.2901,11.3352,11.4073,11.4893,11.5687,11.6369,11.6369,11.7081,11.8279,11.8279,11.8618,11.902,11.9689,12.0012,12.0329,12.1296,12.2007,12.2424,12.2803,12.3485,12.431,0.0,0.0,0.0,0.0,0.0,0.0,0.0,0.0,0.0,0.0,0.0,3.0216,3.0216,0.0,0.0,0.0,3.0397,3.1011,3.2268,3.3457,3.5234,3.7714,3.8596,3.9395,3.9985,3.9704,3.9535,3.9535,3.9704,4.1053,4.3497,4.3666,4.4144,4.4874,4.4706,4.4565,4.449,4.5723,4.599,4.5752,4.8292,5.0328,5.1621,5.0944,5.2048,5.3557,5.0808,5.0715,5.1833,5.1326,5.2397,5.3887,5.4082,5.4114,0.0,0.0,0.0,5.6969,6.5651,7.2887,7.9254,8.4215,8.8049,9.122,9.3744,9.4957,9.5966,9.7314,9.8486,9.9623,10.082,10.1099,10.1532,10.2421,10.3091,10.3937,10.524,10.5914,10.6699,10.7698,10.7805,10.7877,10.8091,10.83,10.864,10.9241,10.9523,11.0186,11.13,11.1631,11.193,11.2529,11.2529,11.2529,11.2529,11.2571,11.3219,11.4198,11.4796,11.5432,11.6021,11.6209,11.7145,11.8609,11.8537,11.8681,11.9105,12.0201,12.0791,12.1097,12.2196,12.2992,12.3485,12.3712,12.4205,12.4879,0.0,0.0,0.0,0.0,0.0,0.0,0.0,0.0,0.0,0.0,0.0,3.0216,3.0216,3.0216,3.0216,3.0216,3.0847,3.1849,3.3265,3.4298,3.5404,3.6658,3.8196,0.0,3.8074,3.8608,3.8917,3.8917,3.9507,4.1053,4.3497,4.4088,4.5015,4.6167,4.5549,4.4959,4.4462,4.5169,4.552,4.587,4.9931,5.1621,5.2052,5.5161,5.6805,5.6934,5.4068,5.371,5.4301,5.2253,0.0,5.243,5.3142,5.3369,5.3369,0.0,0.0,0.0,6.191,6.5349,6.977,8.0576,8.4967,8.8046,9.3153,9.5249,9.6409,9.721,9.7848,9.8902,10.0974,10.1891,10.2386,10.2526,10.2975,10.3737,10.4522,10.4701,10.5307,10.6806,10.6984,10.7306,10.7984,10.8705,10.9241,10.9205,11.0499,11.13,11.1423,11.2087,11.2449,11.2529,11.2529,11.2529,11.2529,11.2921,11.33,11.3737,11.3812,11.4366,11.5609,11.6326,11.7435,11.8607,11.8198,11.8304,11.8823,12.0273,12.1021,12.1211,12.2803,12.3485,12.3599,12.4395,12.4812,12.4879,0.0,0.0,0.0,0.0,0.0,0.0,0.0,0.0,0.0,0.0,0.0,0.0,0.0,3.0216,3.0397,3.0847,3.1536,3.2326,3.33,3.3964,3.4984,3.6495,3.7868,3.8533,3.8524,3.8749,3.8861,3.8861,3.9086,4.0463,4.2935,4.3526,4.4481,4.5661,4.5436,4.5468,4.5681,4.6018,4.6191,4.6796,5.3588,5.7121,5.8462,6.0048,6.2167,6.3767,0.0,0.0,0.0,0.0,0.0,0.0,0.0,5.3402,5.1847,5.1394,5.243,5.4583,5.8521,6.2245,6.66,7.283,7.7513,8.1427,8.4453,8.8568,9.2059,9.3032,9.61,9.9137,10.0437,10.1287,10.2098,10.2934,10.3315,10.3701,10.4522,10.4594,10.52,10.6699,10.7354,10.7907,10.8734,10.9499,11.0093,11.059,11.1126,11.1594,11.2087,11.2368,11.2529,11.2529,11.2529,11.2571,11.2884,11.3,11.3373,11.401,11.401,11.4402,11.507,11.5297,11.5967,11.7004,11.7405,11.82,11.9505,12.0529,12.1325,12.1893,12.25,12.3409,12.431,12.441,12.4727,12.5308,0.0,0.0,0.0,0.0,0.0,0.0,0.0,0.0,0.0,3.0216,0.0,0.0,0.0,0.0,3.0763,3.156,3.2239,3.2932,3.3725,3.3979,3.4805,3.6197,3.74,3.8173,3.8552,3.8945,3.9058,3.8861,3.9058,4.0238,4.2289,4.3104,4.4144,4.5324,4.5127,4.5298,4.5709,4.6018,4.6191,4.6886,5.4669,5.8244,5.9211,6.2777,6.5073,6.6216,0.0,0.0,0.0,0.0,0.0,0.0,0.0,0.0,5.0681,4.9969,5.1102,5.3013,5.4924,5.8344,6.2464,6.7354,7.1175,7.503,7.9668,8.4797,8.9086,9.0814,9.5317,9.925,10.0315,10.0955,10.1731,10.3238,10.3594,10.3987,10.4522,10.4594,10.5302,10.7109,10.7503,10.8075,10.9415,11.0186,11.086,11.1373,11.1594,11.1967,11.2529,11.2529,11.2609,11.2729,11.2729,11.2886,11.3483,11.3483,11.3803,11.4411,11.4411,11.454,11.4805,11.5374,11.598,11.6587,11.7686,11.8596,11.9505,12.0604,12.1325,12.1893,12.2697,12.3407,12.4194,12.4308,12.4714,12.5325,0.0,0.0,0.0,0.0,0.0,0.0,0.0,0.0,3.0262,3.0262,0.0,0.0,0.0,0.0,0.0,3.2337,3.3093,3.3777,3.4424,3.4397,3.4812,3.5629,3.696,3.7758,3.7854,3.9142,3.9479,3.8889,3.9479,4.0407,4.1615,4.2851,4.4088,4.5212,4.4621,4.4369,4.4406,4.5229,4.552,4.6253,5.3099,5.4822,5.4206,6.3536,6.5847,6.464,6.8531,6.9342,0.0,0.0,0.0,0.0,0.0,0.0,0.0,4.9159,4.9969,5.1135,0.0,0.0,0.0,6.4321,6.6154,6.8918,7.9365,8.4274,8.7527,9.0867,9.5215,9.892,10.0633,10.1025,10.1489,10.3095,10.3987,10.4594,10.4594,10.4594,10.5397,10.7664,10.7256,10.7821,11.0024,11.0928,11.1386,11.1386,11.1975,11.2529,11.2529,11.2492,11.2729,11.3113,11.3075,11.3483,11.4213,11.4213,11.4411,11.4805,11.4805,11.4805,11.4881,11.6473,11.7269,11.7383,11.9013,11.9316,11.8785,12.0301,12.0983,12.1201,12.3304,12.36,12.3087,12.4306,12.4774,12.4788,0.0,0.0,0.0,0.0,0.0,3.1341,3.1341,3.1341,3.1341,0.0,0.0,0.0,0.0,0.0,0.0,3.4004,3.4806,3.5297,3.5077,3.4993,3.5003,3.5249,3.7016,3.809,3.8144,3.9201,3.9704,3.9535,3.9704,4.0182,4.0969,4.1755,4.257,4.3329,4.316,4.3347,4.3856,4.5026,4.6745,4.9316,5.8091,6.3072,6.6017,7.2539,7.6411,0.0,0.0,7.8002,0.0,0.0,7.3796,6.4024,0.0,0.0,0.0,0.0,4.8479,4.9613,4.9613,0.0,0.0,0.0,0.0,0.0,6.8998,7.2802,7.7491,8.7001,9.0047,9.2978,9.9073,10.0204,10.0525,10.1525,10.2809,10.3701,10.3701,10.3701,10.4395,10.6114,10.6575,10.7398,10.9239,11.0027,11.0545,11.0545,11.1224,11.16,11.16,11.2546,11.3075,11.3518,11.3518,11.3695,11.4213,11.4213,11.4411,11.4805,11.4805,11.4805,11.4805,11.5905,11.6701,11.7383,11.8482,11.928,11.9893,12.0089,12.0685,12.1514,12.1482,12.2173,12.3387,12.412,12.4418,12.4503,0.0,0.0,3.2397,3.2121,3.2076,3.2144,3.2374,3.2213,3.2076,0.0,0.0,0.0,0.0,0.0,0.0,3.474,3.5545,3.5861,3.5338,3.4989,3.5083,3.568,3.7152,3.82,3.8866,3.9761,4.0041,3.9788,3.9788,3.9957,4.0322,4.094,4.1418,4.1812,4.2329,4.294,4.3629,4.4773,4.7256,5.1092,5.8342,0.0,0.0,7.3628,7.7081,0.0,0.0,0.0,7.9652,8.5089,7.9496,0.0,0.0,0.0,0.0,0.0,0.0,4.903,4.903,5.0204,5.1869,5.3526,0.0,0.0,6.4627,6.8291,7.3365,8.4914,8.7702,9.0057,9.6756,9.685,9.6671,9.8706,9.9847,10.1096,10.3095,10.3701,10.4566,10.6336,10.658,10.7438,10.9325,10.9804,11.0114,11.0114,11.0716,11.1093,11.117,11.188,11.2618,11.3383,11.3383,11.3701,11.4373,11.4486,11.4616,11.4805,11.4805,11.4995,11.5374,11.6208,11.708,11.7875,11.8925,11.9817,12.0397,12.0338,12.0722,12.1369,12.1396,12.2026,12.2813,12.3606,12.3889,12.4008,0.0,0.0,3.2604,3.265,3.2695,3.2925,3.3453,3.3132,3.2833,0.0,3.3315,3.3922,3.4452,0.0,0.0,0.0,3.5993,3.6123,3.5521,3.4868,3.513,3.6495,3.7202,3.8224,3.9676,4.0378,4.0435,3.9873,3.9873,3.9873,3.9901,4.0435,4.0659,4.0802,4.1995,4.2902,4.3619,4.4368,4.7555,5.2414,5.6497,5.9412,0.0,0.0,7.3691,7.3095,8.2458,8.3325,8.0917,8.6577,8.3275,0.0,0.0,0.0,0.0,0.0,4.8615,4.9418,4.9127,0.0,0.0,5.3486,5.3444,0.0,6.3297,6.6866,7.1552,8.2345,8.5135,8.7191,9.2296,9.1051,9.0462,9.3924,9.5137,9.7278,10.1989,10.3202,10.4512,10.6671,10.6267,10.6951,10.9549,10.9817,10.978,10.9932,11.0312,11.0717,11.1183,11.1328,11.1803,11.292,11.292,11.3504,11.4692,11.4692,11.4692,11.4805,11.4805,11.5298,11.6094,11.689,11.78,11.8671,11.9915,12.0359,12.0512,12.0912,12.1067,12.1194,12.2301,12.2328,12.1794,12.301,12.3396,12.3396,3.2351,3.2764,3.3247,3.3637,3.405,3.4509,3.5014,3.4992,3.506,3.5474,3.5611,3.6348,3.802,3.8306,0.0,0.0,0.0,3.7769,3.675,3.5704,3.541,3.6106,3.7034,3.8139,3.9227,4.0208,4.0631,4.0519,4.0519,4.0519,4.0519,4.0631,4.0689,4.0707,4.1504,4.2246,4.2899,4.47,4.9312,5.5873,6.0044,6.5867,7.2682,7.9537,8.3654,8.595,8.8053,8.8215,8.6531,0.0,7.9587,7.8608,0.0,0.0,0.0,0.0,0.0,0.0,0.0,0.0,0.0,0.0,0.0,0.0,5.7741,5.806,6.0516,7.088,7.2001,7.3228,7.9917,8.1576,8.2219,8.3004,8.7893,9.3067,9.71,9.7813,9.8734,10.0968,10.11,10.288,10.7583,10.8108,10.8223,10.8484,10.9481,11.0614,11.1516,11.1591,11.1901,11.237,11.237,11.2887,11.3782,11.3782,11.4199,11.4805,11.4805,11.5298,11.6094,11.689,11.78,11.8671,11.9915,12.0625,12.0874,12.1275,12.1539,12.15,12.1777,12.1995,12.2314,12.3204,12.3087,12.27,3.2879,3.3109,3.3591,3.4578,3.4969,3.5497,3.6507,3.6438,3.6369,3.6622,3.7293,3.7989,3.869,3.9668,0.0,0.0,0.0,0.0,3.7508,3.6648,3.6439,3.7133,3.7942,3.8833,3.9869,4.0434,4.0688,4.0688,4.0688,4.0547,4.0238,4.0887,4.1906,4.3211,4.2842,4.3838,4.5953,4.7046,5.1059,5.7037,6.109,0.0,7.4959,8.1262,8.5041,8.7146,8.8927,9.0196,8.9808,8.1916,7.9995,0.0,0.0,6.639,6.2293,0.0,5.5456,5.2746,0.0,0.0,0.0,5.0517,0.0,0.0,0.0,5.6121,5.7716,6.7067,6.6824,6.6789,7.3076,7.3492,7.3683,7.5971,8.1006,8.4895,8.568,9.3891,10.0309,10.1769,10.2558,10.4353,10.7326,10.7777,10.8072,10.8674,10.9291,10.997,11.0669,11.0807,11.0983,11.1697,11.1697,11.2114,11.291,11.2986,11.3403,11.4199,11.4578,11.5488,11.6701,11.761,11.8496,11.9467,12.0283,12.0926,12.1323,12.1798,12.1923,12.1923,12.1923,12.2081,12.2313,12.2816,12.2623,12.2507,3.3292,3.3292,3.3683,3.4992,3.5382,3.5956,3.7288,3.7242,3.7081,3.7373,3.8671,3.9818,4.0449,4.1688,0.0,0.0,0.0,0.0,0.0,3.8282,3.827,3.906,3.9078,3.9784,4.1221,4.0884,4.0688,4.0688,4.0575,4.0266,3.9788,4.0855,4.2557,4.4768,4.4608,4.6314,4.934,5.0348,5.3893,5.9216,6.2971,6.785,7.3512,8.054,8.3195,8.3713,8.7986,9.0823,9.1513,8.4833,0.0,8.0731,7.6459,7.0189,0.0,0.0,0.0,0.0,0.0,0.0,0.0,0.0,0.0,5.1711,0.0,0.0,0.0,6.343,6.26,6.2135,6.6707,6.5649,6.5424,6.9233,7.3547,7.5831,7.4083,8.8203,9.8824,9.9062,10.1323,10.3512,10.5284,10.6728,10.8036,10.9168,10.8805,10.8779,10.9802,10.9802,11.0106,11.0788,11.0788,11.1205,11.2114,11.2114,11.2607,11.3593,11.4389,11.5677,11.7307,11.8306,11.9315,12.0359,12.0874,12.1313,12.159,12.2121,12.2313,12.2313,12.2313,12.2313,12.2313,12.2313,12.2391,12.2623,3.3292,3.3292,3.3476,3.4073,3.4923,3.5726,3.6346,3.6782,3.753,3.8753,4.0283,4.3086,4.7957,4.6746,0.0,0.0,0.0,0.0,4.256,0.0,4.1524,4.1515,3.9913,4.0368,4.3132,4.1559,4.0688,4.0688,4.0154,3.9845,3.9788,3.9928,4.0502,4.1499,4.5987,4.8569,4.9752,5.3882,5.9402,6.5796,6.9423,7.0405,0.0,7.9762,8.1641,8.0334,8.6652,9.058,9.1669,0.0,8.4313,8.5545,0.0,7.1747,7.1693,6.2649,0.0,0.0,0.0,0.0,0.0,0.0,5.1602,0.0,0.0,0.0,5.1822,5.1999,0.0,5.4717,5.5844,0.0,0.0,5.9131,6.4376,6.8444,6.8837,7.6695,8.1998,8.0583,8.5513,9.1322,9.7191,10.2005,10.5976,10.9119,10.6799,10.6598,10.9613,10.9802,10.9802,10.9916,10.9916,11.0409,11.1205,11.1205,11.2001,11.3593,11.4389,11.5677,11.7269,11.8637,11.9576,12.0417,12.1217,12.1584,12.159,12.2121,12.2313,12.2313,12.2313,12.2313,12.2313,12.2313,12.2816,12.3512,3.3292,3.3292,3.3545,3.4326,3.4808,3.5474,3.6553,3.7632,3.8758,3.9884,4.1317,4.3721,4.7769,0.0,0.0,0.0,0.0,0.0,0.0,0.0,0.0,4.609,4.2266,4.1467,4.4509,4.1671,4.035,4.0688,3.9732,3.9255,3.9255,4.0388,4.2225,4.4769,4.9873,5.3859,5.6861,6.0192,6.2522,6.419,6.7774,6.8036,0.0,7.8856,8.304,8.3592,8.9632,9.2457,9.2985,0.0,8.7157,0.0,0.0,0.0,0.0,0.0,0.0,0.0,0.0,0.0,0.0,0.0,0.0,0.0,5.0423,0.0,4.9393,0.0,0.0,0.0,0.0,0.0,0.0,0.0,5.9666,6.2521,6.145,6.7338,7.3488,7.8198,8.1951,8.7132,9.483,9.5694,9.8411,10.4794,10.2318,10.2108,10.6012,10.8514,10.9802,10.9802,10.9802,10.9992,11.0295,11.0295,11.1205,11.291,11.3706,11.5142,11.6903,11.8509,11.9611,12.0388,12.1301,12.1837,12.2003,12.2198,12.2313,12.2275,12.2384,12.2423,12.2313,12.2313,12.2507,12.2894,3.3292,3.3292,3.3522,3.4257,3.4624,3.5313,3.6805,3.8091,3.9384,4.0679,4.1947,4.4618,4.9232,4.7774,0.0,0.0,0.0,5.267,0.0,0.0,4.9867,5.2096,4.6062,0.0,0.0,4.3641,4.1368,4.0688,3.9648,3.9278,3.9442,4.0895,4.3269,4.6413,5.1871,5.702,6.1833,6.49,6.6512,6.7294,7.0225,7.0757,7.0697,7.9235,8.369,8.6164,9.1474,9.2747,9.2328,9.3416,8.9294,0.0,8.988,0.0,0.0,0.0,0.0,0.0,6.2089,0.0,0.0,0.0,0.0,0.0,0.0,0.0,0.0,0.0,0.0,0.0,0.0,0.0,0.0,0.0,0.0,5.7453,5.6009,5.9759,6.5376,7.2864,7.7092,8.214,8.9205,8.8129,9.0361,9.8605,9.612,9.6878,10.2904,10.6315,10.8514,10.9423,10.9689,10.9916,11.0219,11.0219,11.1015,11.2683,11.3601,11.498,11.6698,11.8425,11.9609,12.0396,12.11,12.1771,12.2387,12.2387,12.2384,12.2416,12.2511,12.2595,12.2768,12.2768,12.2885,12.3307,3.3292,3.3292,3.3292,3.3315,3.4142,3.5313,3.6805,3.7494,3.8681,4.0978,4.2209,0.0,0.0,0.0,0.0,0.0,0.0,5.8856,5.9036,0.0,5.463,0.0,0.0,0.0,0.0,4.847,4.4547,4.0688,4.0069,4.0066,4.0723,4.115,4.2049,4.3745,5.0047,5.5978,6.1652,6.6127,7.2897,8.041,8.1525,8.283,8.3899,0.0,8.2311,8.5504,9.0143,0.0,0.0,8.9396,9.0052,0.0,0.0,0.0,0.0,0.0,0.0,0.0,0.0,0.0,0.0,6.427,0.0,0.0,0.0,0.0,5.0293,0.0,0.0,0.0,0.0,0.0,0.0,0.0,0.0,0.0,0.0,5.445,5.5561,5.8195,6.6712,7.3632,7.6995,7.9026,8.3301,9.0889,8.835,9.1117,10.1805,10.3283,10.5292,10.8514,10.9423,11.0219,11.1091,11.1091,11.1887,11.3593,11.4793,11.582,11.6659,11.8298,11.9581,12.0396,12.0806,12.161,12.2517,12.2517,12.2613,12.2722,12.2722,12.3227,12.3926,12.3926,12.4509,12.5296,3.3752,3.3752,3.366,3.3338,3.3568,3.4418,3.6254,3.8358,4.1181,0.0,0.0,0.0,0.0,0.0,5.8989,0.0,0.0,6.3436,6.4656,6.0245,0.0,0.0,0.0,5.1454,0.0,0.0,4.455,4.1306,3.9873,3.9779,4.0833,4.1577,4.256,4.4056,5.2543,5.9319,6.4771,6.9756,7.4398,7.8507,7.992,8.0594,8.1245,0.0,8.7777,8.7267,9.2364,9.3588,0.0,9.3256,9.2512,9.1293,9.1263,8.7673,8.3494,8.3891,8.1478,7.878,0.0,0.0,7.8917,7.2992,0.0,0.0,0.0,0.0,0.0,0.0,0.0,0.0,0.0,0.0,0.0,0.0,0.0,0.0,0.0,5.3275,5.4133,5.5221,6.097,6.6358,7.0202,7.2295,7.6783,8.4749,8.5318,8.9335,9.8508,10.1881,10.5406,10.931,11.0219,11.0788,11.1091,11.1584,11.2493,11.3593,11.4298,11.5222,11.6289,11.7708,11.8597,11.9107,11.9871,12.0784,12.1587,12.1712,12.2471,12.3577,12.3685,12.4178,12.4878,12.4188,12.4587,12.5392,3.428,3.4142,3.3889,3.3591,3.3843,3.4877,3.7465,4.0571,4.401,0.0,5.0805,0.0,6.0739,0.0,6.1623,0.0,6.6789,6.6005,6.7438,6.4311,0.0,6.8167,6.1193,0.0,0.0,0.0,4.86,4.4838,4.211,4.1015,4.169,4.2844,4.3908,4.5101,5.2157,5.8678,6.4898,7.0294,7.4326,7.7063,7.8564,7.99,0.0,0.0,8.8028,8.5199,0.0,9.3847,9.3123,9.4721,9.4669,9.4206,9.6203,9.2997,8.8813,9.0858,8.8474,8.5515,8.6878,8.732,0.0,8.119,7.663,0.0,6.3234,0.0,0.0,0.0,0.0,0.0,0.0,0.0,0.0,0.0,0.0,0.0,0.0,5.2678,5.3298,5.3712,5.7079,6.1089,6.541,6.5707,6.98,7.9898,8.0239,8.4939,9.6271,9.972,10.3814,10.9196,11.0219,11.0902,11.1508,11.2001,11.3032,11.4177,11.4672,11.5368,11.6285,11.7289,11.8094,11.8614,11.9292,12.0121,12.0995,12.1701,12.2597,12.3814,12.4493,12.5294,12.5994,12.5278,12.5603,12.6498,3.4785,3.4395,3.4096,3.4142,3.4992,3.6778,4.0176,0.0,4.6984,0.0,5.3365,5.7455,6.029,6.0671,6.3106,6.8955,6.7803,0.0,6.7749,6.7111,0.0,0.0,6.9413,6.867,6.9984,0.0,0.0,0.0,4.6344,4.3867,4.3409,4.4737,4.5697,4.6397,4.8982,5.447,6.2204,6.8002,7.3028,7.7236,7.8593,8.1686,8.5549,8.6577,8.3568,8.0074,8.9667,9.1157,8.9191,9.359,9.6237,9.7782,9.7853,9.8247,9.8634,9.867,9.867,9.8027,9.503,9.1509,8.8628,8.8362,8.2093,0.0,0.0,0.0,7.102,0.0,0.0,0.0,0.0,0.0,0.0,0.0,0.0,0.0,0.0,0.0,5.2672,5.3078,5.5044,5.7973,6.2144,5.976,6.3221,7.5994,7.3492,7.8495,9.4945,9.6537,10.0403,10.8097,10.9082,11.0295,11.1887,11.1963,11.3135,11.5113,11.5821,11.6389,11.6826,11.7422,11.8099,11.8798,11.8798,11.9383,12.0516,12.2111,12.2996,12.3409,12.5085,12.6293,12.7111,12.7111,12.7618,12.8319,3.444,3.4693,3.5359,3.6117,3.7326,3.9075,0.0,0.0,0.0,0.0,5.7792,6.1319,6.5222,6.6817,6.8361,6.9939,6.963,0.0,0.0,0.0,0.0,7.5023,7.2212,7.0598,7.0736,6.2548,0.0,5.4196,4.7165,4.4474,4.5926,4.5578,4.5697,4.6397,4.8982,5.447,6.1983,6.5339,7.2744,8.2628,8.6253,8.6061,8.4182,0.0,8.6748,8.3423,9.0569,9.2785,9.2756,9.453,9.5535,9.633,9.7499,9.7892,9.792,9.8491,9.867,9.8491,9.7706,9.6756,9.5307,9.2354,8.7444,8.2431,0.0,0.0,0.0,0.0,0.0,0.0,0.0,0.0,0.0,0.0,0.0,0.0,0.0,0.0,0.0,5.3907,0.0,5.8615,5.6737,6.2102,6.7162,7.0612,7.3341,7.9708,9.0889,9.1647,9.5779,10.461,10.5914,10.6708,10.7088,10.8306,10.939,11.041,11.4279,11.6473,11.7007,11.7404,11.7711,11.7905,11.8009,11.9014,12.0399,12.0993,12.2299,12.4189,12.5319,12.6605,12.8007,12.8007,12.8085,12.8319,3.5451,3.6162,3.7035,3.7609,4.0176,0.0,4.5157,4.8582,0.0,5.7563,6.1623,0.0,6.6173,6.8702,7.0304,7.06,7.113,0.0,0.0,0.0,0.0,7.5988,7.5797,7.5601,7.5369,6.8249,0.0,5.8927,0.0,4.8101,4.6639,4.6275,4.623,4.6679,4.8731,5.2786,5.8453,6.4676,7.2546,8.1393,8.4693,8.5275,0.0,8.771,8.8222,8.7765,9.1437,9.3344,9.4237,9.5044,9.5823,9.6551,9.7892,9.8192,9.8099,9.8563,9.867,9.867,9.867,9.867,9.8135,9.5922,9.3491,9.0515,8.6466,8.4869,8.3874,0.0,8.0847,0.0,0.0,0.0,0.0,0.0,0.0,0.0,0.0,0.0,0.0,0.0,5.6472,0.0,0.0,0.0,6.8224,6.8565,7.1559,7.8192,8.9259,8.8568,9.2727,10.339,10.4097,10.3681,10.28,10.7266,10.9304,10.8916,11.4086,11.6891,11.7394,11.762,11.8003,11.8314,11.8381,11.9201,12.0603,12.1403,12.2591,12.3994,12.5202,12.6293,12.7189,12.7189,12.7618,12.8319,3.715,3.7976,3.8596,3.8665,4.3024,0.0,0.0,5.3085,0.0,6.0157,0.0,6.6904,6.5302,6.8225,7.0452,7.0922,0.0,7.257,7.1436,7.5815,7.7716,7.6288,7.9244,8.1025,8.1025,7.5592,0.0,0.0,0.0,5.2576,4.6602,4.6737,4.673,4.6795,4.8155,5.0983,5.5505,6.5973,7.3457,7.8337,8.0445,8.3364,8.644,8.6912,8.9075,9.191,9.2309,9.3326,9.4489,9.5198,9.6328,9.7492,9.8277,9.8527,9.8527,9.867,9.867,9.867,9.867,9.867,9.867,9.867,9.867,9.7956,9.5208,9.4602,9.4602,9.4602,8.9228,8.6404,0.0,0.0,0.0,0.0,0.0,0.0,0.0,0.0,0.0,0.0,0.0,0.0,0.0,0.0,6.6973,6.7616,6.8337,7.4406,8.7231,8.5528,8.9778,10.1889,10.2293,10.13,9.927,10.7289,11.0598,10.9123,11.4608,11.7388,11.7814,11.7917,11.8499,11.9279,11.9279,11.9902,12.0915,12.2396,12.3214,12.3487,12.5085,12.5786,12.5903,12.5981,12.7013,12.8299,3.8298,3.8459,3.8711,3.9101,4.3455,4.8559,5.3137,5.6399,5.9666,6.3384,6.6006,6.7382,6.7073,6.9273,7.0747,7.0922,7.2515,0.0,0.0,0.0,0.0,7.9176,8.032,8.1025,8.1025,7.5259,7.0128,0.0,5.8669,5.2663,4.7645,4.6532,4.5986,4.6018,4.6892,5.3039,6.3212,7.1203,7.8209,8.442,8.7607,8.9502,9.0603,9.0705,9.1655,9.2928,9.3024,9.3615,9.4419,9.456,9.551,9.6671,9.7457,9.7706,9.7849,9.8491,9.867,9.867,9.867,9.867,9.867,9.867,9.867,9.8527,9.7992,9.7849,9.7849,9.7849,9.7171,9.6306,9.4986,0.0,0.0,0.0,0.0,0.0,0.0,0.0,0.0,0.0,0.0,0.0,0.0,0.0,6.3099,6.2687,6.2794,6.7349,7.7523,7.8206,8.2834,9.2748,9.7327,9.9124,9.804,10.5199,10.85,10.8016,11.4227,11.7517,11.7995,11.7975,11.8499,11.9279,11.9279,12.0214,12.1695,12.2006,12.2903,12.4306,12.5319,12.6098,12.6916,12.7618,12.8081,12.8315,3.9354,3.9561,4.0333,4.1994,4.6563,5.1691,0.0,6.1056,6.4386,6.6033,6.7101,6.7806,6.7806,6.9789,7.1623,7.2544,7.4001,7.5607,7.7061,7.8785,7.9963,8.0513,8.0786,0.0,8.1025,7.828,7.3044,6.5546,6.1681,5.5513,4.741,4.6309,4.5791,4.5986,5.1008,5.6867,6.3802,7.3984,8.0663,8.4747,8.9396,9.1504,9.201,9.2309,9.27,9.3286,9.3995,9.4728,9.5368,9.5368,9.6091,9.7064,9.7849,9.8099,9.8206,9.8563,9.867,9.867,9.867,9.867,9.867,9.867,9.867,9.867,9.867,9.867,9.8765,9.9107,9.9441,9.8158,9.2933,8.6366,0.0,0.0,0.0,0.0,0.0,0.0,0.0,0.0,0.0,0.0,0.0,0.0,6.1527,6.0691,6.1119,6.6466,7.8022,7.5571,7.9972,9.3478,9.6394,9.6828,9.496,10.5504,10.8815,10.4987,11.3973,11.842,11.8694,11.9084,11.9785,12.0604,12.0604,12.1617,12.3214,12.3682,12.4111,12.45,12.5397,12.5997,12.6398,12.6788,12.6976,12.708,4.1507,4.2366,4.3624,4.6113,5.087,5.5657,5.986,6.4777,6.8089,6.8199,6.8541,6.8826,6.8826,7.0449,7.2316,7.4031,7.5503,7.7092,7.8754,8.0367,8.1252,8.1252,8.1414,8.1479,8.1479,8.1479,7.6751,0.0,0.0,5.8972,4.89,4.741,4.7582,4.9388,5.6867,6.2181,6.6255,7.6556,8.2486,8.5271,8.9801,9.2115,9.2849,9.3272,9.3664,9.3971,9.5022,9.5922,9.6564,9.6564,9.71,9.7849,9.8277,9.8527,9.867,9.867,9.867,9.867,9.867,9.867,9.867,9.867,9.8765,9.8955,9.8955,9.9014,9.9293,9.9768,9.9998,9.8323,9.2243,8.9526,0.0,0.0,0.0,0.0,0.0,0.0,0.0,0.0,0.0,0.0,0.0,0.0,5.9836,6.1019,6.1239,6.6827,7.9627,7.4447,7.8219,9.3868,9.4255,9.3698,9.2659,10.5707,10.982,10.5221,11.4781,11.9279,11.9279,12.0214,12.111,12.189,12.2084,12.3098,12.4695,12.5397,12.5299,12.4789,12.5724,12.5999,12.6085,12.6319,12.6402,12.659,4.6264,4.8342,5.0206,5.1433,5.583,5.9941,6.237,6.5838,6.8712,7.0412,7.0931,7.125,7.125,7.1682,7.2602,7.4031,7.5741,7.7321,7.8754,8.0849,8.1997,8.1997,8.2644,8.3001,8.3001,8.3001,7.9924,0.0,0.0,6.1724,5.5507,5.1556,5.3248,5.9827,6.2747,6.9368,0.0,8.0378,8.4915,9.0809,9.1398,9.263,9.4181,9.4277,9.4989,9.6007,9.6172,9.6707,9.7385,9.7385,9.792,9.8456,9.7813,9.8099,9.867,9.867,9.867,9.867,9.867,9.867,9.867,9.867,9.9201,9.9623,9.9623,10.007,10.0518,10.064,10.114,10.0715,9.7986,9.6879,9.3101,0.0,0.0,0.0,0.0,0.0,0.0,0.0,0.0,0.0,0.0,5.9855,5.6176,6.4526,6.2474,6.5384,7.5772,7.3172,7.5871,8.5714,8.6544,8.8904,9.3338,10.3295,11.0282,11.4312,11.772,11.9279,11.9279,12.0214,12.111,12.189,12.2708,12.3994,12.5591,12.5708,12.5702,12.5805,12.6585,12.6993,12.7085,12.7905,12.8198,12.8317,5.0659,5.1738,5.3168,5.6693,5.9774,6.2756,6.5614,6.8655,7.0908,7.2053,7.2027,7.1942,7.1942,7.2999,7.4169,7.5607,7.7191,7.8628,8.0085,8.1432,8.2126,8.2126,8.2806,8.3195,8.3195,8.3195,8.0378,0.0,0.0,0.0,5.9004,5.5118,5.702,6.4128,7.0805,7.6148,8.0371,8.5358,8.9245,9.2145,9.2934,9.3908,9.4964,9.5391,9.5842,9.6386,9.685,9.7242,9.7564,9.8063,9.842,9.8634,9.8313,9.842,9.867,9.867,9.867,9.867,9.867,9.867,9.8765,9.9201,9.9533,9.9804,10.021,10.0555,10.0772,10.1185,10.1975,10.242,10.1502,9.9856,9.7061,9.2388,0.0,0.0,0.0,0.0,0.0,0.0,0.0,0.0,0.0,0.0,6.2367,6.7472,6.0222,5.9978,7.018,7.316,7.7987,8.5496,9.0768,9.5301,9.9138,10.4912,10.9286,11.2387,11.7585,12.0097,12.0097,12.15,12.2591,12.3409,12.4306,12.5085,12.5786,12.6799,12.7006,12.6715,12.7495,12.7886,12.8007,12.8281,12.851,12.8517,5.5742,5.6632,5.8146,6.2074,6.4382,6.6426,6.8826,7.1051,7.2518,7.3096,7.3327,7.3382,7.3178,7.4218,7.558,7.7352,7.8376,7.9563,8.0906,8.19,8.2418,8.2418,8.3325,0.0,8.381,8.381,8.1802,7.7754,7.1828,0.0,6.5894,6.2704,6.4763,7.1337,7.8332,8.2257,8.388,8.9353,9.215,9.3087,9.4075,9.4953,9.5922,9.6457,9.6814,9.71,9.7635,9.7849,9.792,9.8491,9.867,9.867,9.867,9.867,9.867,9.867,9.867,9.867,9.867,9.8861,9.9107,9.9623,10.0034,10.0433,10.0892,10.1103,10.1501,10.1975,10.2757,10.3394,10.3597,10.2022,9.9875,9.7233,0.0,0.0,0.0,0.0,0.0,0.0,0.0,0.0,8.6424,7.4562,6.849,7.2503,6.3999,6.2,6.9855,7.2965,7.7913,8.5359,8.9897,9.4951,10.0574,10.388,10.8001,11.2893,11.8091,12.0682,12.0993,12.2513,12.3799,12.4812,12.5397,12.6,12.6599,12.779,12.8016,12.7605,12.819,12.8508,12.85,12.85,12.8517,12.8515,6.1875,6.4399,6.6295,6.7983,7.0044,7.1595,7.2028,7.2576,7.3153,7.3618,7.5377,7.6455,7.5796,7.5736,7.65,7.8691,7.8879,7.9563,8.0906,8.2385,8.3195,0.0,0.0,8.5268,8.5268,8.5268,8.5235,8.5138,0.0,0.0,7.7891,7.5974,7.8213,8.3875,8.4761,8.7504,9.1502,9.1572,9.2665,9.4383,9.4383,9.5593,9.7457,9.7492,9.7956,9.867,9.867,9.867,9.867,9.867,9.867,9.867,9.867,9.867,9.867,9.867,9.867,9.867,9.867,9.9201,9.9714,9.9714,10.0688,10.1702,10.1702,10.2202,10.2794,10.3219,10.3326,10.3493,10.4204,10.429,10.1917,9.4817,0.0,0.0,0.0,0.0,0.0,0.0,7.75,7.8348,8.8268,7.6919,7.2308,8.0461,7.6614,7.4924,7.7162,0.0,0.0,8.3623,7.9586,0.0,9.4885,9.847,10.6614,11.9201,12.0097,12.111,12.189,12.2786,12.4111,12.5708,12.5708,12.6694,12.8393,12.8393,12.84,12.851,12.851,12.8491,12.8515,12.8515,12.8515,12.8593,6.5699,6.734,6.8577,7.0164,7.1675,7.2574,7.272,7.353,7.4664,7.62,7.6979,7.8286,8.0451,7.9911,7.9495,0.0,8.1023,8.1769,0.0,8.3098,8.3875,8.3875,8.4782,8.5268,8.5268,8.5786,8.6045,8.6045,0.0,0.0,7.9217,8.1121,8.384,8.7075,8.8777,9.026,9.1606,9.2407,9.3352,9.4454,9.5332,9.6376,9.7564,9.8099,9.8456,9.867,9.867,9.867,9.867,9.867,9.867,9.867,9.867,9.867,9.867,9.867,9.9014,9.935,9.935,9.9857,10.0469,10.0902,10.1384,10.178,10.2314,10.2794,10.3112,10.3326,10.3693,10.4004,10.4327,10.4508,10.2981,9.7863,9.9607,0.0,0.0,0.0,0.0,0.0,0.0,8.896,0.0,8.7472,0.0,8.3668,7.8999,7.6144,7.6226,8.1788,0.0,0.0,9.6554,0.0,10.7082,10.7082,11.1213,11.9279,12.0798,12.189,12.2786,12.3604,12.4711,12.5804,12.6389,12.7312,12.8393,12.8393,12.8387,12.8393,12.7807,12.7592,12.7617,12.7617,12.7617,12.7695,6.8777,6.9895,7.0487,7.1478,7.2604,7.3067,7.2836,7.4052,7.551,7.7181,7.8308,8.0019,8.2786,8.2874,0.0,8.1983,8.3185,8.3778,8.3325,8.4393,8.4911,8.462,8.5559,8.598,8.5721,8.6401,0.0,8.679,8.5031,8.3955,8.379,8.6537,8.8463,8.9632,9.0988,9.1809,9.2245,9.3246,9.4196,9.5166,9.6328,9.7242,9.7992,9.8491,9.867,9.867,9.867,9.867,9.867,9.867,9.867,9.867,9.867,9.867,9.867,9.867,9.9201,9.9714,9.9714,10.0383,10.1222,10.1623,10.1858,10.2165,10.2794,10.3079,10.3394,10.3589,10.3979,10.4313,10.4508,10.4722,10.4003,10.1388,10.2184,10.0912,9.4452,0.0,0.0,0.0,0.0,0.0,0.0,9.4582,9.2173,0.0,8.7506,8.5377,8.717,8.9001,9.2352,9.7496,10.2913,10.7589,11.1407,11.0706,11.3512,11.9785,12.1617,12.2822,12.3691,12.4198,12.5115,12.6299,12.6885,12.758,12.8395,12.8395,12.8281,12.7988,12.7402,12.6994,12.668,12.668,12.668,12.6915,7.1187,7.1942,7.2057,7.2057,7.2894,7.3414,7.2776,7.4285,7.5832,7.6874,7.9268,8.1473,8.3177,8.454,8.5397,8.543,0.0,0.0,8.5365,8.6012,8.611,8.5397,8.6595,8.7016,8.6433,8.7081,8.747,8.7824,8.9531,9.0587,9.0853,9.1663,9.1888,9.1676,9.1743,9.2309,9.325,9.3994,9.506,9.6386,9.7135,9.792,9.867,9.867,9.867,9.867,9.867,9.867,9.867,9.867,9.867,9.867,9.867,9.8765,9.8765,9.8765,9.9293,9.9768,9.9768,10.0808,10.1817,10.178,10.2277,10.2866,10.3182,10.3394,10.3522,10.4204,10.4252,10.4373,10.4704,10.4799,10.4799,10.4686,10.3397,10.1194,9.8057,9.8732,0.0,0.0,0.0,0.0,9.6784,9.9116,10.1401,0.0,10.0299,10.0317,10.5305,9.4262,9.1924,10.1003,10.1393,10.4082,10.981,11.0706,11.4408,12.0895,12.2492,12.3691,12.458,12.458,12.5488,12.7094,12.7211,12.7692,12.8508,12.8508,12.7983,12.7188,12.711,12.6602,12.59,12.59,12.59,12.6095,7.1595,7.2201,7.2488,7.2488,7.3182,7.356,7.3414,7.4605,7.6416,7.8811,8.0234,8.2068,8.5246,8.5888,8.6369,8.6854,8.6433,8.6142,8.6142,8.6304,8.6336,8.6142,8.5915,8.598,8.6401,8.7081,8.8692,9.1247,9.1135,9.1865,9.3457,9.2822,9.2617,9.2477,9.2688,9.2928,9.3215,9.3804,9.4973,9.6315,9.6529,9.7421,9.867,9.867,9.867,9.867,9.867,9.867,9.867,9.867,9.867,9.867,9.867,9.9014,9.9441,9.9441,9.9946,10.0555,10.114,10.1821,10.25,10.2792,10.3213,10.356,10.373,10.3888,10.4104,10.4327,10.447,10.4704,10.4799,10.4799,10.461,10.4003,10.298,10.0982,9.7333,9.6591,9.5921,0.0,9.6673,9.9979,10.4669,10.6905,10.6095,0.0,0.0,10.3489,9.7093,10.2295,10.7783,11.2693,11.4096,11.5382,11.6902,11.8383,12.0578,12.3607,12.3984,12.458,12.5517,12.551,12.6083,12.7187,12.789,12.8309,12.8503,12.8503,12.7987,12.711,12.6485,12.5782,12.5002,12.5002,12.5002,12.5197,7.2172,7.2488,7.2602,7.2602,7.3153,7.3501,7.3211,7.4778,7.6807,7.9145,8.0678,8.2597,8.5532,8.5883,8.6174,8.6887,8.6919,8.7016,8.734,8.7049,8.6887,8.6887,8.679,8.679,8.6887,8.834,9.0328,9.3081,9.2996,9.3464,9.466,9.3973,9.3615,9.3566,9.3281,9.331,9.3626,9.4296,9.5244,9.635,9.6707,9.7599,9.867,9.867,9.867,9.867,9.867,9.867,9.867,9.867,9.867,9.8765,9.9014,9.9441,9.9768,10.0433,10.0892,10.1185,10.1623,10.2202,10.2794,10.3219,10.3597,10.3786,10.3979,10.4204,10.4313,10.447,10.4684,10.4799,10.4799,10.4799,10.4496,10.37,10.1681,9.9428,9.6974,9.6336,9.6626,9.7862,10.1173,10.4791,10.8382,11.0489,10.998,10.602,10.7104,0.0,10.3804,10.8001,11.151,11.381,11.7387,11.9513,11.9902,12.1219,12.2605,12.3905,12.3909,12.4384,12.5311,12.5311,12.5819,12.6688,12.7202,12.7612,12.7891,12.75,12.711,12.6602,12.5704,12.4885,12.4104,12.4104,12.4104,12.4299,7.2747,7.2689,7.2602,7.2602,7.3095,7.3269,7.2718,7.4816,7.7072,7.8605,8.072,8.2779,8.4916,8.5332,8.5721,8.6369,8.7016,8.7696,8.8312,8.7664,8.7275,8.7275,8.7858,8.7955,8.7437,8.9891,9.1958,9.3753,9.4419,9.4854,9.5158,9.4869,9.4595,9.4348,9.3664,9.3591,9.4031,9.4709,9.5458,9.6208,9.6886,9.7635,9.8349,9.8456,9.8491,9.8527,9.8634,9.8598,9.8527,9.8634,9.8598,9.8718,9.9497,9.9804,10.0122,10.1347,10.178,10.1899,10.1895,10.2315,10.3009,10.3394,10.3693,10.4042,10.429,10.4388,10.4508,10.4704,10.4799,10.4799,10.4799,10.4686,10.3965,10.2332,9.9591,9.7216,9.5619,9.6556,9.7941,9.9487,10.4614,10.8581,10.9791,11.1584,11.2811,11.291,10.9803,10.9823,11.4074,11.1915,11.0512,11.0603,11.6407,11.9998,12.099,12.189,12.2678,12.3401,12.3486,12.3983,12.4794,12.4716,12.5087,12.6017,12.6017,12.629,12.6797,12.6212,12.5782,12.5509,12.4885,12.4182,12.3401,12.3401,12.3391,12.342,7.3356,7.3008,7.2602,7.2602,7.2718,7.2747,7.2631,7.4462,7.6409,7.7898,8.0438,8.2588,8.4237,8.5494,8.6272,8.6401,8.7016,8.747,8.7567,8.6952,8.6563,8.6563,8.666,8.6952,8.7405,9.017,9.2225,9.3452,9.4138,9.4946,9.5781,9.4806,9.4358,9.4312,9.4039,9.3868,9.3995,9.4102,9.4637,9.5387,9.553,9.6029,9.6743,9.7421,9.7671,9.7778,9.8456,9.8242,9.7778,9.8456,9.8242,9.7872,9.9225,10.0122,10.0724,10.1464,10.2315,10.3009,10.2574,10.3112,10.3721,10.4079,10.4411,10.4722,10.4704,10.4704,10.4704,10.4799,10.4799,10.4799,10.4799,10.4193,10.1687,9.5467,9.5814,9.5282,9.0712,9.4856,9.9399,10.229,10.6415,10.9498,11.0783,11.1982,11.3087,11.3904,11.4096,11.2587,10.9212,11.3795,11.5004,11.1604,11.7304,12.1202,12.2788,12.3692,12.4208,12.4414,12.4413,12.4911,12.58,12.502,12.5206,12.6017,12.6017,12.5704,12.5119,12.5704,12.5119,12.3909,12.4494,12.4182,12.3401,12.3401,12.3178,12.2995,7.4024,7.385,7.3676,7.3647,7.3647,7.379,7.4262,7.6103,7.7741,7.8829,8.1126,8.2967,8.4042,8.517,8.598,8.6369,8.7016,8.7437,8.7437,8.679,8.6563,8.6952,8.6952,8.7949,9.013,9.1503,9.3098,9.4859,9.5118,9.5608,9.6287,9.5319,9.4764,9.4728,9.4224,9.3995,9.3995,9.3995,9.4459,9.5208,9.5208,9.5637,9.635,9.6707,9.685,9.6886,9.7278,9.7457,9.7622,9.8354,9.859,9.8973,10.0287,10.0975,10.1427,10.2315,10.29,10.3288,10.3288,10.3693,10.4104,10.4327,10.4567,10.4799,10.4799,10.4799,10.4799,10.4799,10.4799,10.4875,10.5406,10.4799,10.25,9.7066,9.7801,9.7289,9.2354,9.7078,10.178,10.3923,10.7813,11.0701,11.1904,11.2482,11.299,11.3512,11.472,11.4503,11.2095,11.5789,11.7504,11.6501,12.0119,12.241,12.3203,12.3692,12.3906,12.3901,12.3887,12.4215,12.4611,12.4182,12.4182,12.4611,12.4611,12.4416,12.3987,12.4416,12.4104,12.3401,12.3791,12.3593,12.3098,12.2605,12.2298,12.1917,7.4721,7.4634,7.4547,7.4518,7.4518,7.4751,7.5757,7.7608,7.918,7.9953,8.1816,8.3389,8.3907,8.4749,8.5591,8.6336,8.7016,8.7437,8.7437,8.6919,8.6887,8.7405,8.7567,8.908,9.2325,9.2688,9.3951,9.6238,9.6058,9.631,9.688,9.5521,9.503,9.5173,9.4352,9.3995,9.3995,9.3995,9.4352,9.4923,9.4923,9.5244,9.5779,9.5993,9.6172,9.6315,9.6529,9.6993,9.7622,9.847,9.9064,9.9692,10.1193,10.1817,10.1975,10.2971,10.3425,10.3626,10.3813,10.4104,10.4252,10.4411,10.4588,10.4799,10.4799,10.4799,10.4799,10.4799,10.4989,10.5311,10.6107,10.55,10.3512,9.9173,9.9671,9.9278,9.5506,9.9848,10.4221,10.6292,10.9514,11.1904,11.2595,11.2795,11.3005,11.32,11.4603,11.5616,11.5811,11.7408,11.8985,12.0617,12.2293,12.3089,12.2903,12.3203,12.311,12.2681,12.2997,12.3011,12.2815,12.2815,12.2815,12.2815,12.2815,12.2815,12.2815,12.3011,12.3118,12.3008,12.3203,12.3122,12.2706,12.2083,12.1714,12.1285,7.5301,7.4924,7.4518,7.4518,7.4518,7.5042,7.6524,7.7912,7.918,7.9953,8.1816,8.3195,8.326,8.449,8.5591,8.6336,8.7016,8.7437,8.7437,8.7373,8.7373,8.7437,8.8053,8.9443,9.1825,9.3199,9.4833,9.645,9.626,9.6684,9.7362,9.5137,9.4495,9.5173,9.4352,9.3995,9.3995,9.3995,9.4031,9.4066,9.4066,9.4102,9.4245,9.4994,9.5708,9.6422,9.7135,9.7457,9.7694,9.9117,9.9172,9.8969,10.101,10.2049,10.2389,10.3079,10.3683,10.4191,10.4327,10.429,10.4388,10.4684,10.4799,10.4799,10.4799,10.4799,10.4799,10.4799,10.5406,10.6107,10.6487,10.5892,10.3393,9.7552,9.8129,9.9009,9.8021,10.1216,10.5699,11.107,11.2181,11.2595,11.2694,11.2795,11.32,11.4018,11.4992,11.5889,11.6707,11.8305,11.9698,12.0693,12.2411,12.288,12.2108,12.3011,12.259,12.099,12.18,12.18,12.0981,12.0981,12.0981,12.0981,12.0981,12.0981,12.1098,12.1918,12.2007,12.1908,12.2609,12.2802,12.2478,12.2478,12.2194,12.1809,7.6056,7.5882,7.5708,7.5708,7.6564,7.7516,7.8473,8.0285,8.1652,8.1976,8.3111,8.381,8.381,8.4296,8.4911,8.5656,8.5948,8.611,8.611,8.6784,8.7434,8.8053,8.9026,9.0477,9.2674,9.3501,9.5013,9.738,9.6853,9.6886,9.7457,9.5601,9.4923,9.5173,9.4352,9.3995,9.3995,9.3995,9.3995,9.3995,9.3995,9.3995,9.4031,9.4316,9.4637,9.4887,9.5208,9.5922,9.6966,9.839,9.9462,10.05,10.2166,10.2897,10.3313,10.3786,10.4191,10.4588,10.4588,10.4588,10.4609,10.4837,10.4799,10.4799,10.4799,10.5178,10.5595,10.5595,10.6505,10.731,10.7378,10.6908,10.4994,10.0414,10.2405,10.3916,10.1915,10.5521,10.9407,11.2206,11.2588,11.2716,11.2795,11.291,11.3317,11.4096,11.4486,11.5109,11.5889,11.7608,11.8687,11.9091,12.0819,12.1601,12.1284,12.1599,12.1488,12.0785,12.1098,12.1098,12.0785,12.0785,12.0785,12.0785,12.0785,12.0393,11.9885,12.1289,12.111,12.0002,12.1286,12.1401,12.059,12.059,12.0497,12.0213,7.6462,7.6462,7.6462,7.6462,7.7711,7.9091,8.0004,8.1838,8.3224,8.3525,8.3907,8.4199,8.4199,8.4199,8.449,8.5235,8.5073,8.5041,8.5268,8.6358,8.7525,8.883,9.0157,9.1678,9.3651,9.434,9.5812,9.8185,9.7404,9.7216,9.7849,9.6029,9.5315,9.5494,9.4459,9.3995,9.3995,9.3995,9.4138,9.4352,9.4066,9.4138,9.4352,9.4066,9.4138,9.4388,9.4875,9.5897,9.7227,9.8891,10.0429,10.1784,10.2934,10.3626,10.4042,10.4388,10.4588,10.4799,10.4799,10.4989,10.5178,10.5178,10.5178,10.5292,10.5482,10.6012,10.6505,10.6505,10.7434,10.8011,10.7737,10.738,10.6328,10.3507,10.5496,10.6776,10.5077,10.8116,11.09,11.1799,11.1898,11.2114,11.2498,11.2498,11.2888,11.3706,11.4018,11.4698,11.5783,11.7097,11.7716,11.781,11.9013,11.9591,11.9591,12.0108,12.0317,12.0005,12.0005,12.0005,12.0005,12.0005,11.9985,11.9913,11.9913,11.948,11.9103,12.031,12.0017,11.9082,12.0207,12.0092,11.9376,11.9376,11.9287,11.91,7.6462,7.6462,7.6462,7.6462,7.7711,7.9242,8.0756,8.2151,8.3415,8.4172,8.4199,8.4199,8.4199,8.4199,8.449,8.5203,8.462,8.449,8.5235,8.6325,8.7619,8.9403,9.1313,9.3065,9.461,9.5743,9.7106,9.867,9.7885,9.792,9.8634,9.6315,9.5601,9.6243,9.4673,9.3995,9.3995,9.3995,9.4459,9.5137,9.4316,9.4459,9.5101,9.4281,9.4495,9.5372,9.685,9.7873,9.886,10.101,10.2012,10.2426,10.3112,10.3824,10.4388,10.4742,10.4799,10.4799,10.4799,10.5406,10.6088,10.6088,10.6088,10.6277,10.7111,10.7301,10.7301,10.7301,10.7983,10.8308,10.7418,10.7313,10.6989,10.5991,10.6119,10.6582,10.7299,10.8395,10.9308,11.0009,11.0225,11.0589,11.1485,11.1602,11.1992,11.281,11.3706,11.5019,11.6713,11.679,11.6909,11.6909,11.6991,11.6999,11.6999,11.8599,11.9107,11.8287,11.8287,11.8287,11.8287,11.8287,11.8106,11.7798,11.7798,11.8108,11.8682,11.8682,11.9013,11.9489,11.9489,11.9337,11.91,11.91,11.91,11.91,7.6462,7.6462,7.6882,7.7857,7.9242,8.0756,8.2285,8.3637,8.4666,8.4976,8.4944,8.4944,8.4944,8.4523,8.4296,8.4523,8.4121,8.4161,8.4751,8.556,8.6656,8.7942,8.975,9.1643,9.3855,9.4992,9.659,9.867,9.8456,9.8456,9.8634,9.6814,9.61,9.6243,9.4673,9.3995,9.3995,9.3995,9.4459,9.5137,9.4316,9.4459,9.5101,9.4281,9.4495,9.5244,9.5734,9.7191,9.8989,9.9536,10.0722,10.2273,10.32,10.3601,10.3889,10.461,10.4799,10.4799,10.4799,10.4989,10.5292,10.5898,10.6088,10.6277,10.7111,10.7301,10.749,10.8097,10.8918,10.9083,10.7505,10.7291,10.6921,10.5521,10.5804,10.6605,10.7617,10.849,10.9403,11.0087,11.0299,11.0394,11.0706,11.1213,11.1992,11.281,11.3708,11.4208,11.4214,11.4804,11.5103,11.5117,11.5797,11.6101,11.6101,11.7194,11.7897,11.8287,11.8287,11.8014,11.7389,11.7196,11.668,11.6006,11.5829,11.6091,11.6605,11.7302,11.7519,11.751,11.8089,11.7887,11.7292,11.7984,11.8215,11.8292,7.6462,7.7031,7.7711,7.8555,8.0339,8.2016,8.2982,8.4347,8.5268,8.5268,8.5268,8.5425,8.555,8.516,8.4901,8.4992,8.4585,8.4424,8.4635,8.5294,8.5908,8.6428,8.824,9.0639,9.321,9.438,9.6061,9.8206,9.8206,9.8384,9.8634,9.7064,9.6315,9.6243,9.4673,9.3995,9.3995,9.3995,9.4637,9.5565,9.478,9.4923,9.5601,9.5101,9.4999,9.5199,9.627,9.7621,9.8992,9.9575,10.1023,10.2561,10.3415,10.3776,10.4193,10.4686,10.4799,10.4799,10.4799,10.5103,10.5406,10.5974,10.6088,10.6277,10.7111,10.7379,10.77,10.8306,10.8672,10.8409,10.6912,10.6394,10.5707,10.4308,10.5106,10.6078,10.6692,10.7783,10.8797,10.9303,10.9303,10.9381,10.981,11.0589,11.1502,11.2407,11.3281,11.3388,11.2615,11.3697,11.4186,11.3915,11.4695,11.5203,11.5203,11.571,11.6413,11.7311,11.6882,11.6686,11.6491,11.6204,11.5696,11.509,11.5198,11.51,11.509,11.6287,11.6512,11.6099,11.6984,11.6984,11.6599,11.71,11.7292,11.7407,7.6462,7.7564,7.8555,7.8813,8.1169,8.2982,8.3245,8.4475,8.5268,8.5268,8.5268,8.5425,8.5675,8.5799,8.5923,8.6291,8.5603,8.5155,8.4734,8.5327,8.5545,8.5235,8.7242,8.9716,9.2675,9.3937,9.554,9.7492,9.7492,9.7885,9.867,9.7135,9.6422,9.635,9.4851,9.4209,9.4209,9.4209,9.5066,9.635,9.5601,9.5744,9.6386,9.6243,9.5808,9.5433,9.7751,9.8609,9.8939,10.0676,10.2033,10.3013,10.3416,10.4003,10.4686,10.4799,10.4799,10.4799,10.4799,10.5406,10.5974,10.5974,10.5994,10.6316,10.7227,10.7583,10.7801,10.7983,10.762,10.6912,10.5596,10.4827,10.4012,10.279,10.411,10.5212,10.529,10.6692,10.7783,10.7705,10.7705,10.7978,10.868,10.9592,11.0496,11.1495,11.2415,11.2613,11.179,11.3281,11.3798,11.3095,11.3915,11.4305,11.4305,11.4305,11.4813,11.571,11.4891,11.4891,11.5497,11.5292,11.4895,11.4588,11.5106,11.4781,11.3984,11.5484,11.5792,11.5291,11.5984,11.6292,11.6407,11.6407,11.6407,11.6484,7.6462,7.6733,7.7711,8.006,8.0894,8.2151,8.4475,8.5142,8.5268,8.5268,8.5268,8.53,8.5425,8.5675,8.5799,8.5923,8.5757,8.5624,8.5814,8.5979,8.6097,8.5964,8.7759,8.9465,9.1088,9.2509,9.4665,9.7492,9.7492,9.7885,9.867,9.7706,9.7242,9.7207,9.6243,9.5815,9.5815,9.5815,9.635,9.7171,9.6386,9.6529,9.71,9.5922,9.5786,9.6383,9.6872,9.8117,9.9604,10.079,10.1296,10.1712,10.2411,10.3207,10.4003,10.461,10.4799,10.4799,10.4799,10.4875,10.5121,10.5234,10.5483,10.6106,10.7584,10.7531,10.7188,10.7482,10.7285,10.6602,10.4876,10.43,10.3897,10.362,10.4494,10.5406,10.6108,10.7082,10.7511,10.6887,10.6809,10.6614,10.6108,10.7405,10.9008,11.0593,11.0897,11.1315,11.1791,11.2205,11.2587,11.3095,11.329,11.3407,11.3407,11.3407,11.4188,11.571,11.5515,11.5007,11.438,11.4117,11.3384,11.2512,11.2388,11.2607,11.3022,11.3407,11.3791,11.4291,11.4484,11.4984,11.5599,11.5599,11.5984,11.6484,7.7387,7.7852,7.8992,8.1517,8.2552,8.3507,8.5016,8.5268,8.5268,8.5268,8.5425,8.555,8.5766,8.6046,8.6291,8.6535,8.6447,8.6574,8.6693,8.6693,8.6527,8.6196,8.7921,8.9287,9.0088,9.175,9.3882,9.6386,9.6386,9.6814,9.7528,9.6743,9.6386,9.6386,9.5565,9.5208,9.5208,9.5208,9.5672,9.6386,9.5958,9.6029,9.635,9.5922,9.606,9.6618,9.7093,9.839,9.9818,10.0332,10.1009,10.1691,10.2184,10.3207,10.4307,10.4686,10.4799,10.4686,10.4307,10.4287,10.4191,10.3922,10.4125,10.4821,10.6077,10.6276,10.618,10.6078,10.568,10.521,10.4283,10.3684,10.3419,10.3809,10.4588,10.5406,10.5796,10.6614,10.6887,10.5991,10.5913,10.6022,10.6377,10.729,10.8406,10.9685,11.0189,11.0509,11.0596,11.0987,11.1416,11.1807,11.1885,11.1885,11.1885,11.1885,11.2296,11.3021,11.3919,11.3996,11.3395,11.301,11.253,11.1908,11.1999,11.2099,11.2214,11.2983,11.3291,11.3407,11.3791,11.4291,11.4714,11.4714,11.5215,11.5984,7.8179,7.9133,8.0353,8.2325,8.3929,8.5016,8.5268,8.5268,8.5268,8.5268,8.555,8.5799,8.6169,8.6535,8.693,8.7289,8.7289,8.7289,8.7289,8.7389,8.7123,8.6395,8.8089,8.9287,8.9674,9.1421,9.3211,9.5208,9.5208,9.5601,9.6315,9.5672,9.5387,9.5351,9.4673,9.4388,9.4388,9.4388,9.478,9.5387,9.5387,9.5387,9.5458,9.5922,9.6249,9.6453,9.7542,9.8722,9.9796,9.9796,10.082,10.2108,10.2108,10.3094,10.4382,10.4382,10.4382,10.4325,10.3605,10.3525,10.352,10.2789,10.3029,10.3468,10.4167,10.4897,10.5197,10.4492,10.3972,10.3723,10.3715,10.3107,10.2913,10.3809,10.451,10.5017,10.5212,10.5991,10.6108,10.5095,10.4994,10.5715,10.7387,10.7586,10.8005,10.8904,10.9689,10.9816,10.9308,10.9894,11.0401,11.0518,11.0518,11.0518,11.0518,11.05,11.029,11.0083,11.1491,11.2211,11.2308,11.1894,11.168,11.1918,11.2305,11.2099,11.1598,11.2983,11.3099,11.2599,11.3407,11.3907,11.3984,11.4291,11.4907,11.5715,7.7549,7.83,7.9405,8.0863,8.2419,8.3799,8.5142,8.5268,8.5268,8.5268,8.5268,8.555,8.5799,8.6413,8.693,8.7289,8.7289,8.7289,8.7289,8.7852,8.7852,8.7157,8.8861,9.007,9.0467,9.17,9.3211,9.5208,9.5208,9.5601,9.6315,9.6208,9.6172,9.6172,9.6065,9.5993,9.5993,9.5993,9.6065,9.6172,9.6172,9.6172,9.61,9.577,9.5773,9.6097,9.7062,9.844,9.9796,9.9796,10.0516,10.1312,10.1312,10.1881,10.2601,10.2601,10.2712,10.2766,10.2744,10.2684,10.2906,10.3167,10.3598,10.3808,10.3608,10.4078,10.4492,10.4113,10.3893,10.3598,10.2913,10.2718,10.2913,10.3809,10.4004,10.4315,10.5095,10.5991,10.5913,10.4315,10.409,10.4812,10.65,10.6709,10.7107,10.8003,10.8211,10.8605,10.9308,10.9386,10.9816,11.0518,11.0518,11.0518,11.0518,11.0304,11.0115,11.0083,10.9928,11.0213,11.0879,11.0814,11.1112,11.1606,11.1598,11.1598,11.1522,11.1714,11.1791,11.1714,11.2599,11.3291,11.4214,11.5599,11.6176,11.6393,7.951,7.998,8.0618,8.295,8.3929,8.4603,8.5142,8.5268,8.5138,8.4717,8.5415,8.5759,8.5458,8.6426,8.717,8.7289,8.7289,8.7455,8.7819,8.815,8.8349,8.8482,9.0087,9.1069,9.1261,9.2512,9.3639,9.453,9.453,9.4709,9.503,9.503,9.503,9.503,9.503,9.503,9.503,9.503,9.503,9.503,9.503,9.503,9.4959,9.4875,9.5794,9.7405,9.9374,10.0571,10.1199,10.1199,10.1502,10.1805,10.1805,10.1995,10.2298,10.2408,10.25,10.2364,10.2014,10.2004,10.208,10.1797,10.2213,10.2624,10.2388,10.2886,10.3413,10.3208,10.3185,10.3107,10.2718,10.2601,10.2913,10.3809,10.4315,10.4783,10.5095,10.5991,10.5991,10.4783,10.4712,10.5219,10.6395,10.6589,10.6992,10.7904,10.7996,10.8215,10.8605,10.8098,10.7981,10.841,10.7816,10.7691,10.8081,10.7888,10.7922,10.8298,10.8005,10.8581,10.9896,10.9685,10.9802,11.0021,11.0021,11.0021,11.0021,11.0021,11.0021,11.0098,11.0983,11.1576,11.2197,11.3818,11.4114,11.399]}]]